[[{"header":{"parameterUnit":"m.s-1","parameterCategory":1,"la1":30.6,"la2":28.766,"lo1":-90.7593,"lo2":-88.6598,"dy":0.0162,"dx":0.0183,"nx":116,"ny":114,"refTime":"2024-07-03T12:00:00:Z","depth":0,"parameterNumber":2,"parameterNumberName":"U-component_of_WINDS"},"data":[0.0,0.0,0.0,0.0,0.0,0.0,0.0,0.0,0.0,0.0,0.0,0.0,0.0,0.0,0.0,0.0,0.0,0.0,0.0,0.0,0.0,0.0,0.0,0.0,0.0,0.0,0.0,0.0,0.0,0.0,0.0,0.0,0.0,0.0,0.0,0.0,0.0,0.0,0.0,0.0,0.0,0.0,0.0,0.0,0.0,0.0,0.0,0.0,0.0,0.0,0.0,0.0,0.0,0.0,0.0,0.0,0.0,0.0,0.0,0.0,0.0,0.0,0.0,0.0,0.0,0.0,0.0,0.0,0.0,0.0,0.0,0.0,0.0,0.0,0.0,0.0,0.0,0.0,0.0,0.0,0.0,0.0,0.0,0.0,0.0,0.0,0.0,0.0,0.0,0.0,0.0,0.0,0.0,0.0,0.0,0.0,0.0,0.0,0.0,0.0,0.0,0.0,0.0,0.0,0.0,0.0,0.0,0.0,0.0,0.0,0.0,0.0,0.0,0.0,0.0,0.0,0.0,0.0,0.0,0.0,0.0,0.0,0.0,0.0,0.0,0.0,0.0,0.0,0.0,0.0,0.0,0.0,0.0,0.0,0.0,0.0,0.0,0.0,0.0,0.0,0.0,0.0,0.0,0.0,0.0,0.0,0.0,0.0,0.0,0.0,0.0,0.0,0.0,0.0,0.0,0.0,0.0,0.0,0.0,0.0,0.0,0.0,0.0,0.0,0.0,0.0,0.0,0.0,0.0,0.0,0.0,0.0,0.0,0.0,0.0,0.0,0.0,0.0,0.0,0.0,0.0,0.0,0.0,0.0,0.0,0.0,0.0,0.0,0.0,0.0,0.0,0.0,0.0,0.0,0.0,0.0,0.0,0.0,0.0,0.0,0.0,0.0,0.0,0.0,0.0,0.0,0.0,0.0,0.0,0.0,0.0,0.0,0.0,0.0,0.0,0.0,0.0,0.0,0.0,0.0,0.0,0.0,0.0,0.0,0.0,0.0,0.0,0.0,0.0,0.0,0.0,0.0,0.0,0.0,0.0,0.0,0.0,0.0,0.0,0.0,0.0,0.0,0.0,0.0,0.0,0.0,0.0,0.0,0.0,0.0,0.0,0.0,0.0,0.0,0.0,0.0,0.0,0.0,0.0,0.0,0.0,0.0,0.0,0.0,0.0,0.0,0.0,0.0,0.0,0.0,0.0,0.0,0.0,0.0,0.0,0.0,0.0,0.0,0.0,0.0,0.0,0.0,0.0,0.0,0.0,0.0,0.0,0.0,0.0,0.0,0.0,0.0,0.0,0.0,0.0,0.0,0.0,0.0,0.0,0.0,0.0,0.0,0.0,0.0,0.0,0.0,0.0,0.0,0.0,0.0,0.0,0.0,0.0,0.0,0.0,0.0,0.0,0.0,0.0,0.0,0.0,0.0,0.0,0.0,0.0,0.0,0.0,0.0,0.0,0.0,0.0,0.0,0.0,0.0,0.0,0.0,0.0,0.0,0.0,0.0,0.0,0.0,0.0,0.0,0.0,0.0,0.0,0.0,0.0,0.0,0.0,0.0,0.0,0.0,0.0,0.0,0.0,0.0,0.0,0.0,0.0,0.0,0.0,0.0,0.0,0.0,0.0,0.0,0.0,0.0,0.0,0.0,0.0,0.0,0.0,0.0,0.0,0.0,0.0,0.0,0.0,0.0,0.0,0.0,0.0,0.0,0.0,0.0,0.0,0.0,0.0,0.0,0.0,0.0,0.0,0.0,0.0,0.0,0.0,0.0,0.0,0.0,0.0,0.0,0.0,0.0,0.0,0.0,0.0,0.0,0.0,0.0,0.0,0.0,0.0,0.0,0.0,0.0,0.0,0.0,0.0,0.0,0.0,0.0,0.0,0.0,0.0,0.0,0.0,0.0,0.0,0.0,0.0,0.0,0.0,0.0,0.0,0.0,0.0,0.0,0.0,0.0,0.0,0.0,0.0,0.0,0.0,0.0,0.0,0.0,0.0,0.0,0.0,0.0,0.0,0.0,0.0,0.0,0.0,0.0,0.0,0.0,0.0,0.0,0.0,0.0,0.0,0.0,0.0,0.0,0.0,0.0,0.0,0.0,0.0,0.0,0.0,0.0,0.0,0.0,0.0,0.0,0.0,0.0,0.0,0.0,0.0,0.0,0.0,0.0,0.0,0.0,0.0,0.0,0.0,0.0,0.0,0.0,0.0,0.0,0.0,0.0,0.0,0.0,0.0,0.0,0.0,0.0,0.0,0.0,0.0,0.0,0.0,0.0,0.0,0.0,0.0,0.0,0.0,0.0,0.0,0.0,0.0,0.0,0.0,0.0,0.0,0.0,0.0,0.0,0.0,0.0,0.0,0.0,0.0,0.0,0.0,0.0,0.0,0.0,0.0,0.0,0.0,0.0,0.0,0.0,0.0,0.0,0.0,0.0,0.0,0.0,0.0,0.0,0.0,0.0,0.0,0.0,0.0,0.0,0.0,0.0,0.0,0.0,0.0,0.0,0.0,0.0,0.0,0.0,0.0,0.0,0.0,0.0,0.0,0.0,0.0,0.0,0.0,0.0,0.0,0.0,0.0,0.0,0.0,0.0,0.0,0.0,0.0,0.0,0.0,0.0,0.0,0.0,0.0,0.0,0.0,0.0,0.0,0.0,0.0,0.0,0.0,0.0,0.0,0.0,0.0,0.0,0.0,0.0,0.0,0.0,0.0,0.0,0.0,0.0,0.0,0.0,0.0,0.0,0.0,0.0,0.0,0.0,0.0,0.0,0.0,0.0,0.0,0.0,0.0,0.0,0.0,0.0,0.0,0.0,0.0,0.0,0.0,0.0,0.0,0.0,0.0,0.0,0.0,0.0,0.0,0.0,0.0,0.0,0.0,0.0,0.0,0.0,0.0,0.0,0.0,0.0,0.0,0.0,0.0,0.0,0.0,0.0,0.0,0.0,0.0,0.0,0.0,0.0,0.0,0.0,0.0,0.0,0.0,0.0,0.0,0.0,0.0,0.0,0.0,0.0,0.0,0.0,0.0,0.0,0.0,0.0,0.0,0.0,0.0,0.0,0.0,0.0,0.0,0.0,0.0,0.0,0.0,0.0,0.0,0.0,0.0,0.0,0.0,0.0,0.0,0.0,0.0,0.0,0.0,0.0,0.0,0.0,0.0,0.0,0.0,0.0,0.0,0.0,0.0,0.0,0.0,0.0,0.0,0.0,0.0,0.0,0.0,0.0,0.0,0.0,0.0,0.0,0.0,0.0,0.0,0.0,0.0,0.0,0.0,0.0,0.0,0.0,0.0,0.0,0.0,0.0,0.0,0.0,0.0,0.0,0.0,0.0,0.0,0.0,0.0,0.0,0.0,0.0,0.0,0.0,0.0,0.0,0.0,0.0,0.0,0.0,0.0,0.0,0.0,0.0,0.0,0.0,0.0,0.0,0.0,0.0,0.0,0.0,0.0,0.0,0.0,0.0,0.0,0.0,0.0,0.0,0.0,0.0,0.0,0.0,0.0,0.0,0.0,0.0,0.0,0.0,0.0,0.0,0.0,0.0,0.0,0.0,0.0,0.0,0.0,0.0,0.0,0.0,0.0,0.0,0.0,0.0,0.0,0.0,0.0,0.0,0.0,0.0,0.0,0.0,0.0,0.0,0.0,0.0,0.0,0.0,0.0,0.0,0.0,0.0,0.0,0.0,0.0,0.0,0.0,0.0,0.0,0.0,0.0,0.0,0.0,0.0,0.0,0.0,0.0,0.0,0.0,0.0,0.0,0.0,0.0,0.0,0.0,0.0,0.0,0.0,0.0,0.0,0.0,0.0,0.0,0.0,0.0,0.0,0.0,0.0,0.0,0.0,0.0,0.0,0.0,0.0,0.0,0.0,0.0,0.0,0.0,0.0,0.0,0.0,0.0,0.0,0.0,0.0,0.0,0.0,0.0,0.0,0.0,0.0,0.0,0.0,0.0,0.0,0.0,0.0,0.0,0.0,0.0,0.0,0.0,0.0,0.0,0.0,0.0,0.0,0.0,0.0,0.0,0.0,0.0,0.0,0.0,0.0,0.0,0.0,0.0,0.0,0.0,0.0,0.0,0.0,0.0,0.0,0.0,0.0,0.0,0.0,0.0,0.0,0.0,0.0,0.0,0.0,0.0,0.0,0.0,0.0,0.0,0.0,0.0,0.0,0.0,0.0,0.0,0.0,0.0,0.0,0.0,0.0,0.0,0.0,0.0,0.0,0.0,0.0,0.0,0.0,0.0,0.0,0.0,0.0,0.0,0.0,0.0,0.0,0.0,0.0,0.0,0.0,0.0,0.0,0.0,0.0,0.0,0.0,0.0,0.0,0.0,0.0,0.0,0.0,0.0,0.0,0.0,0.0,0.0,0.0,0.0,0.0,0.0,0.0,0.0,0.0,0.0,0.0,0.0,0.0,0.0,0.0,0.0,0.0,0.0,0.0,0.0,0.0,0.0,0.0,0.0,0.0,0.0,0.0,0.0,0.0,0.0,0.0,0.0,0.0,0.0,0.0,0.0,0.0,0.0,0.0,0.0,0.0,0.0,0.0,0.0,0.0,0.0,0.0,0.0,0.0,0.0,0.0,0.0,0.0,0.0,0.0,0.0,0.0,0.0,0.0,0.0,0.0,0.0,0.0,0.0,0.0,0.0,0.0,0.0,0.0,0.0,0.0,0.0,0.0,0.0,0.0,0.0,0.0,0.0,0.0,0.0,0.0,0.0,0.0,0.0,0.0,0.0,0.0,0.0,0.0,0.0,0.0,0.0,0.0,0.0,0.0,0.0,0.0,0.0,0.0,0.0,0.0,0.0,0.0,0.0,0.0,0.0,0.0,0.0,0.0,0.0,0.0,0.0,0.0,0.0,0.0,0.0,0.0,0.0,0.0,0.0,0.0,0.0,0.0,0.0,0.0,0.0,0.0,0.0,0.0,0.0,0.0,0.0,0.0,0.0,0.0,0.0,0.0,0.0,0.0,0.0,0.0,0.0,0.0,0.0,0.0,0.0,0.0,0.0,0.0,0.0,0.0,0.0,0.0,0.0,0.0,0.0,0.0,0.0,0.0,0.0,0.0,0.0,0.0,0.0,0.0,0.0,0.0,0.0,0.0,0.0,0.0,0.0,0.0,0.0,0.0,0.0,0.0,0.0,0.0,0.0,0.0,0.0,0.0,0.0,0.0,0.0,0.0,0.0,0.0,0.0,0.0,0.0,0.0,0.0,0.0,0.0,0.0,0.0,0.0,0.0,0.0,0.0,0.0,0.0,0.0,0.0,0.0,0.0,0.0,0.0,0.0,0.0,0.0,0.0,0.0,0.0,0.0,0.0,0.0,0.0,0.0,0.0,0.0,0.0,0.0,0.0,0.0,0.0,0.0,0.0,0.0,0.0,0.0,0.0,0.0,0.0,0.0,0.0,0.0,0.0,0.0,0.0,0.0,0.0,0.0,0.0,0.0,0.0,0.0,0.0,0.0,0.0,0.0,0.0,0.0,0.0,0.0,0.0,0.0,0.0,0.0,0.0,0.0,0.0,0.0,0.0,0.0,0.0,0.0,0.0,0.0,0.0,0.0,0.0,0.0,0.0,0.0,0.0,0.0,0.0,0.0,0.0,0.0,0.0,0.0,0.0,0.0,0.0,0.0,0.0,0.0,0.0,0.0,0.0,0.0,0.0,0.0,0.0,0.0,0.0,0.0,0.0,0.0,0.0,0.0,0.0,0.0,0.0,0.0,0.0,0.0,0.0,0.0,0.0,0.0,0.0,0.0,0.0,0.0,0.0,0.0,0.0,0.0,0.0,0.0,0.0,0.0,0.0,0.0,0.0,0.0,0.0,0.0,0.0,0.0,0.0,0.0,0.0,0.0,0.0,0.0,0.0,0.0,0.0,0.0,0.0,0.0,0.0,0.0,0.0,0.0,0.0,0.0,0.0,0.0,0.0,0.0,0.0,0.0,0.0,0.0,0.0,0.0,0.0,0.0,0.0,0.0,0.0,0.0,0.0,0.0,0.0,0.0,0.0,0.0,0.0,0.0,0.0,0.0,0.0,0.0,0.0,0.0,0.0,0.0,0.0,0.0,0.0,0.0,0.0,0.0,0.0,0.0,-1.4845,-1.4214,0.0,0.0,0.0,0.0,0.0,0.0,0.0,0.0,0.0,0.0,0.0,0.0,0.0,0.0,0.0,0.0,0.0,0.0,0.0,0.0,0.0,0.0,0.0,-0.954,-0.9381,-0.9213,-0.9199,-0.9169,-0.9099,0.0,0.0,0.0,0.0,0.0,-0.9698,-0.9508,-0.9425,-0.9485,-0.8993,-0.8833,-0.8983,-0.8973,-0.8516,-0.7712,0.0,0.0,0.0,0.0,0.0,0.0,0.0,0.0,0.0,0.0,0.0,0.0,0.0,0.0,0.0,0.0,0.0,0.0,0.0,0.0,0.0,0.0,0.0,0.0,0.0,0.0,0.0,0.0,0.0,0.0,0.0,0.0,0.0,0.0,0.0,0.0,0.0,0.0,0.0,0.0,0.0,0.0,0.0,0.0,0.0,0.0,0.0,0.0,0.0,0.0,0.0,0.0,0.0,0.0,0.0,0.0,0.0,0.0,0.0,0.0,0.0,0.0,0.0,0.0,0.0,0.0,0.0,0.0,0.0,0.0,-1.73,-1.633,0.0,0.0,0.0,0.0,0.0,0.0,0.0,0.0,0.0,0.0,0.0,0.0,0.0,0.0,0.0,0.0,0.0,0.0,0.0,0.0,0.0,-0.8835,-0.9496,-0.9398,-0.9266,-0.9187,-0.9123,-0.9093,-0.9188,-0.9234,0.0,0.0,0.0,-0.9546,-0.9671,-0.9511,-0.9614,-0.999,-0.9604,-0.9568,-0.9858,-1.0547,-1.0389,-0.953,-0.922,0.0,0.0,0.0,0.0,0.0,0.0,0.0,0.0,0.0,0.0,0.0,0.0,0.0,0.0,0.0,0.0,0.0,0.0,0.0,0.0,0.0,0.0,0.0,0.0,0.0,0.0,0.0,0.0,0.0,0.0,0.0,0.0,0.0,0.0,0.0,0.0,0.0,0.0,0.0,0.0,0.0,0.0,0.0,0.0,0.0,0.0,0.0,0.0,0.0,0.0,0.0,0.0,0.0,0.0,0.0,0.0,0.0,0.0,0.0,0.0,0.0,0.0,0.0,-2.0504,-2.1712,-2.3167,-2.2471,-2.2858,-2.3896,-2.0262,-1.9121,-1.9671,-1.7652,0.0,0.0,0.0,0.0,0.0,0.0,0.0,0.0,0.0,0.0,0.0,0.0,0.0,0.0,0.0,0.0,0.0,0.0,0.0,-0.8745,-0.9366,-0.935,-0.9357,-0.9527,-0.9165,-0.9093,-0.9511,-0.9276,0.0,0.0,-0.9434,-0.9513,-0.9525,-0.9769,-0.9905,-0.9904,-1.0979,-1.1526,-1.1594,-1.2889,-1.3409,-1.3214,-1.1409,-1.1099,-1.1812,0.0,0.0,0.0,0.0,0.0,0.0,0.0,0.0,0.0,0.0,0.0,0.0,0.0,0.0,0.0,0.0,0.0,0.0,0.0,0.0,0.0,0.0,0.0,0.0,0.0,0.0,0.0,0.0,0.0,0.0,0.0,0.0,0.0,0.0,0.0,0.0,0.0,0.0,0.0,0.0,0.0,-1.0323,-1.0857,0.0,0.0,0.0,0.0,0.0,0.0,0.0,0.0,0.0,0.0,0.0,0.0,0.0,-1.7639,-1.9638,-2.1435,-2.2654,-2.3318,-2.4975,-2.6106,-2.6712,-2.6208,-2.6291,-2.6818,-2.5831,0.0,-2.1841,-2.0891,0.0,0.0,0.0,0.0,0.0,0.0,0.0,0.0,0.0,0.0,0.0,0.0,0.0,0.0,0.0,0.0,0.0,0.0,0.0,0.0,0.0,-0.9744,-0.9778,-1.0219,-1.047,-1.0319,-0.9644,-0.999,-0.9916,-0.9226,-0.9237,-0.9498,-1.0003,-1.0297,-1.0806,-1.1519,-1.2462,-1.3128,-1.3552,-1.4517,-1.525,-1.5702,-1.4777,-1.384,-1.2883,-1.193,0.0,0.0,0.0,0.0,0.0,0.0,0.0,0.0,0.0,0.0,0.0,0.0,0.0,0.0,0.0,0.0,0.0,0.0,0.0,0.0,0.0,0.0,0.0,0.0,0.0,0.0,0.0,0.0,0.0,0.0,0.0,0.0,0.0,0.0,0.0,0.0,0.0,0.0,0.0,-0.9836,-1.126,-1.2261,-1.3153,-1.3488,0.0,0.0,0.0,0.0,0.0,0.0,0.0,0.0,0.0,-1.9322,-2.0325,-2.1577,-2.3127,-2.4679,-2.5809,-2.6548,-2.774,-2.8584,-2.9009,-2.8535,-2.8437,-2.8616,-2.8186,-2.6996,-2.5271,-2.3712,-2.2223,-2.0839,0.0,0.0,0.0,0.0,-1.9841,-2.001,0.0,0.0,0.0,0.0,0.0,0.0,0.0,0.0,0.0,0.0,0.0,0.0,-1.0197,-1.0204,-1.0476,-1.1189,-1.1728,-1.1571,-1.0532,-1.0684,-1.0389,-0.9419,-0.9372,-0.9649,-1.0227,-1.0904,-1.1953,-1.3403,-1.4081,-1.477,-1.5461,-1.6168,-1.6894,-1.7566,-1.7687,-1.6617,-1.4612,-1.3704,-1.2629,0.0,0.0,0.0,0.0,0.0,0.0,0.0,0.0,0.0,0.0,0.0,0.0,0.0,0.0,0.0,0.0,0.0,0.0,0.0,0.0,0.0,0.0,0.0,0.0,0.0,0.0,0.0,0.0,0.0,0.0,0.0,0.0,0.0,0.0,0.0,0.0,0.0,0.0,-1.1161,-1.2655,-1.4243,-1.5264,-1.5655,0.0,0.0,0.0,0.0,0.0,0.0,-1.8689,-1.9974,-2.1293,-2.2627,-2.3597,-2.4693,-2.5963,-2.7334,-2.8374,-2.9068,-3.0023,-3.0623,-3.0847,-3.038,-3.0161,-3.0144,-2.9755,-2.911,-2.8229,-2.6184,-2.4914,-2.4137,-2.3035,-2.2936,-2.3444,-2.3444,-2.3444,-2.3579,0.0,0.0,0.0,0.0,0.0,0.0,0.0,0.0,0.0,0.0,0.0,-0.9592,-0.9809,-1.0664,-1.1564,-1.2426,-1.2373,-1.2438,0.0,-1.1094,-1.0087,-1.0146,-1.0135,-1.0052,-0.9836,-1.159,-1.3319,-1.4988,-1.5915,-1.6631,-1.72,-1.8247,-1.8754,-1.8829,-1.9353,-1.9148,-1.8267,-1.5755,-1.5019,-1.5228,0.0,0.0,0.0,0.0,0.0,0.0,0.0,0.0,0.0,0.0,0.0,0.0,0.0,0.0,0.0,0.0,0.0,0.0,0.0,0.0,0.0,0.0,0.0,0.0,0.0,0.0,0.0,0.0,0.0,0.0,0.0,0.0,0.0,0.0,0.0,0.0,0.0,0.0,0.0,-1.7241,-1.8462,0.0,0.0,0.0,0.0,-1.8582,-2.0416,-2.1524,-2.1514,-2.2712,-2.3979,-2.5278,-2.5367,-2.6259,-2.8023,-2.9522,-3.0356,-3.0612,-3.2102,-3.2667,-3.236,-3.1899,-3.1686,-3.1685,-3.1251,-3.0666,-2.9852,-2.828,-2.7199,-2.6522,-2.6437,-2.6454,-2.6471,-2.6471,-2.6471,-2.6488,0.0,0.0,0.0,-0.8535,-0.8957,-0.94,-0.9694,-0.9582,-0.9518,-0.9686,-0.9914,-1.0438,-1.1367,-1.2031,-1.2905,-1.4159,-1.4215,-1.4041,-1.3734,-1.2305,-1.171,-1.2245,-1.11,-1.1302,-1.3109,-1.4003,-1.5281,-1.6915,-1.6982,-1.7477,-1.8342,-1.8721,-1.908,-1.9424,-1.9603,-1.9573,-1.9226,-1.743,-1.6323,-1.5619,-1.3555,-1.2107,0.0,0.0,0.0,0.0,0.0,0.0,0.0,0.0,0.0,0.0,0.0,0.0,0.0,0.0,0.0,0.0,0.0,0.0,0.0,0.0,0.0,0.0,0.0,0.0,0.0,0.0,0.0,0.0,0.0,0.0,0.0,0.0,0.0,0.0,0.0,0.0,0.0,-1.8998,-2.0565,0.0,-2.0941,-2.1883,-2.223,-2.155,-2.3458,-2.4335,-2.3608,-2.5211,-2.6378,-2.6842,-2.8474,-2.9681,-3.0322,-3.1667,-3.2527,-3.2879,-3.345,-3.3782,-3.3917,-3.3466,-3.3275,-3.3256,-3.2818,-3.2476,-3.2188,-3.1627,-3.0125,-2.818,-2.818,-2.818,-2.818,-2.818,-2.818,-2.818,-0.7104,-0.79,0.0,-0.8533,-0.9447,-1.0203,-1.0205,-1.0021,-0.9922,-0.9995,-1.0248,-1.097,-1.2445,-1.3142,-1.4058,-1.5438,-1.5645,-1.5398,-1.4648,-1.3614,-1.3101,-1.3226,-1.2304,-1.302,-1.5652,-1.5876,-1.6689,-1.8171,-1.7957,-1.8308,-1.9169,-1.9169,-1.9369,-1.9708,-1.9708,-1.9708,-1.9648,-1.8747,-1.776,-1.6668,-1.5322,-1.4111,-1.3026,0.0,0.0,0.0,0.0,0.0,0.0,0.0,0.0,0.0,0.0,0.0,0.0,0.0,0.0,0.0,0.0,0.0,0.0,0.0,0.0,0.0,0.0,0.0,0.0,0.0,0.0,0.0,0.0,0.0,0.0,0.0,0.0,0.0,0.0,0.0,-1.9452,-2.1455,-2.2863,-2.3708,-2.3769,-2.4898,-2.5263,-2.4466,-2.6146,-2.6945,-2.6287,-2.7747,-2.8822,-2.9235,-3.0943,-3.1936,-3.2145,-3.3244,-3.3877,-3.4105,-3.4365,-3.4488,-3.4493,-3.4225,-3.4007,-3.3845,-3.3535,-3.3406,-3.3406,-3.3406,-3.2256,-3.0465,-3.0211,-3.011,-3.0076,-2.9839,-2.9738,-2.9738,-0.6137,-0.7,-0.7603,-0.7636,-0.906,-1.0197,-1.0204,-1.0039,-1.0077,-1.0543,-1.0507,-1.1108,-1.2861,-1.3946,-1.5025,-1.6238,-1.6544,-1.6384,-1.5714,-1.4892,-1.3978,-1.299,-1.3765,-1.5159,-1.7103,-1.7032,-1.7539,-1.8732,-1.8863,-1.9188,-1.9708,-1.9708,-1.9708,-1.9708,-1.9708,-1.9708,-1.9708,-1.9708,-1.9333,-1.8627,-1.7294,-1.6398,-1.5709,0.0,0.0,0.0,0.0,0.0,0.0,0.0,0.0,0.0,0.0,0.0,0.0,0.0,0.0,0.0,0.0,0.0,0.0,0.0,0.0,0.0,0.0,0.0,0.0,0.0,0.0,0.0,0.0,0.0,0.0,0.0,0.0,0.0,-1.8254,-1.9201,-2.1183,-2.4627,-2.543,-2.5998,-2.6691,-2.7452,-2.7696,-2.7236,-2.8575,-2.9441,-2.9544,-3.024,-3.1202,-3.2438,-3.25,-3.2824,-3.3432,-3.4167,-3.4406,-3.4172,-3.4861,-3.4826,-3.4155,-3.4155,-3.3894,-3.3474,-3.3474,-3.3474,-3.3474,-3.3474,-3.3474,-3.3389,-3.2632,-3.2327,-3.2242,-3.1532,-3.1241,-3.1224,-0.6133,-0.7,-0.7789,-0.8439,-0.9453,-1.0201,-1.019,-1.0023,-1.0077,-1.0543,-1.0955,-1.1933,-1.3876,-1.4804,-1.5853,-1.7272,-1.6477,-1.6272,-1.7151,-1.4331,-1.2946,-1.3677,-1.5876,-1.7441,-1.8234,-1.8212,-1.8609,-1.9438,-1.9459,-1.9566,-1.9708,-1.9708,-1.9708,-1.9708,-1.9708,-1.9708,-1.9708,-1.9708,-1.9588,-1.9346,-1.8491,-1.7758,-1.7041,0.0,0.0,0.0,0.0,0.0,0.0,0.0,0.0,0.0,0.0,0.0,0.0,0.0,0.0,0.0,0.0,0.0,0.0,0.0,0.0,0.0,0.0,0.0,0.0,0.0,0.0,0.0,0.0,0.0,0.0,0.0,-1.8438,-1.9562,-1.951,-2.2303,-2.4705,-2.5687,-2.7141,-2.8147,-2.835,-2.9516,-3.0031,-2.9444,-3.0806,-3.123,-3.0333,-3.0943,-3.1493,-3.1836,-3.2775,-3.36,-3.4273,-3.4942,-3.5265,-3.5193,-3.5397,-3.538,-3.5193,-3.5193,-3.5106,-3.4991,-3.4991,-3.4991,-3.4991,-3.4991,-3.4991,-3.4873,-3.3592,-3.3102,-3.3068,-3.2865,-3.2459,-3.1921,-0.6674,-0.7544,-0.8307,-0.8815,-0.9625,-1.0192,-1.0202,-1.0035,-1.0188,-1.0954,-1.1326,-1.2276,-1.4277,-1.4875,-1.5612,-1.6779,-1.6373,-1.6123,-1.6238,-1.4392,-1.4018,-1.5689,-1.7471,-1.8637,-1.9106,-1.9121,-1.9301,-1.9708,-1.9708,-1.9708,-1.9708,-1.9708,-1.9708,-1.9708,-1.9989,-1.9959,-1.9723,-1.9989,-1.9944,-1.9678,-1.9271,-1.8897,-1.8433,-1.7401,-1.6428,-1.5518,-1.4853,-1.4323,-1.3823,-1.3149,0.0,0.0,0.0,0.0,0.0,0.0,0.0,0.0,0.0,0.0,0.0,0.0,0.0,0.0,0.0,0.0,0.0,0.0,0.0,0.0,0.0,0.0,0.0,0.0,-2.1571,-2.2807,-2.336,-2.5246,-2.6853,-2.7684,-2.8779,-2.9685,-3.0313,-3.1159,-3.1645,-3.1583,-3.2426,-3.2718,-3.2256,-3.2615,-3.299,-3.3265,-3.404,-3.4616,-3.5028,-3.5407,-3.56,-3.56,-3.56,-3.56,-3.56,-3.56,-3.56,-3.56,-3.56,-3.56,-3.56,-3.56,-3.56,-3.5481,0.0,0.0,0.0,0.0,-3.3136,-3.2696,-0.7602,-0.8367,-0.8932,-0.9024,-0.9692,-1.0195,-1.0205,-1.0047,-1.032,-1.145,-1.1562,-1.2278,-1.4203,-1.4508,-1.4839,-1.5566,-1.6238,-1.5947,-1.438,-1.5114,-1.6368,-1.8069,-1.8572,-1.9091,-1.9693,-1.9708,-1.9708,-1.9708,-1.9708,-1.9708,-1.9708,-1.9708,-1.9753,-1.9842,-2.0438,-2.0423,-1.9944,-2.0557,-2.0438,-1.9813,-1.9813,-1.9768,-1.9648,-1.9031,-1.8386,-1.7727,-1.7145,-1.6204,-1.5126,-1.4468,0.0,0.0,0.0,0.0,0.0,0.0,0.0,0.0,0.0,0.0,0.0,0.0,0.0,0.0,0.0,0.0,0.0,0.0,0.0,0.0,0.0,0.0,0.0,0.0,-2.4877,-2.6831,-2.8224,-2.7964,-2.825,-2.9899,-3.026,-3.0869,-3.2175,-3.2446,-3.2835,-3.3474,-3.3662,-3.397,-3.4498,0.0,0.0,0.0,0.0,-3.5599,-3.56,-3.5769,-3.5819,-3.5735,-3.5735,-3.5735,-3.5718,-3.5633,-3.56,-3.56,-3.56,-3.56,-3.56,-3.56,-3.56,-3.5532,-3.4878,-3.4624,-3.4523,-3.3795,-3.3525,-3.3508,-0.8614,-0.8787,-0.9125,-0.9818,-1.0099,-1.0195,-1.0205,-1.0111,-1.0279,-1.0881,-1.146,-1.2365,-1.3774,-1.4516,-1.5165,-1.5795,-1.5966,-1.588,0.0,0.0,-1.8001,-1.7798,-1.8886,-1.9573,-1.9708,-1.9708,-1.9708,-1.9708,-1.9708,-1.9708,-1.9708,-1.9708,-1.9989,-2.0494,-2.0643,-2.0932,-2.1321,-2.1455,-2.1126,-2.0494,-2.0494,-2.0183,-1.9693,-1.9558,-1.9091,-1.8493,-1.8356,-1.8147,-1.7849,-1.7175,-1.6877,-1.6608,-1.5451,0.0,0.0,0.0,0.0,0.0,0.0,0.0,0.0,0.0,0.0,0.0,0.0,0.0,0.0,0.0,0.0,0.0,0.0,0.0,0.0,-2.494,-2.6805,-2.8308,-2.9566,-3.0128,-3.0352,-3.0123,-3.114,-3.1989,-3.2276,-3.3393,-3.4117,-3.4269,-3.4852,-3.5013,-3.4591,-3.4605,-3.4664,-3.4783,-3.5363,-3.5652,-3.56,-3.6817,-3.7161,-3.6575,-3.6575,0.0,-3.6558,-3.591,-3.56,-3.56,-3.56,-3.56,-3.56,-3.56,-3.56,-3.5583,-3.543,-3.538,-3.5295,-3.4556,-3.4286,-3.4201,-0.9421,-0.9521,-0.9694,-1.0111,-1.0196,-1.0194,-1.02,-1.0148,-1.0285,-1.0833,-1.1156,-1.1705,-1.265,-1.3102,-1.3458,-1.3723,-1.4237,0.0,0.0,-1.7391,-1.8083,-1.8195,-1.9151,-1.9708,-1.9708,-1.9708,-1.9708,-1.9708,-1.9708,-1.9708,-1.9708,-2.0034,-2.0378,-2.0718,-2.1395,-2.1695,-2.1724,-2.2074,-2.162,-2.0703,-2.0703,-2.0303,-1.9708,-1.9708,-1.9498,-1.9196,-1.9196,-1.9196,-1.9091,-1.8433,-1.8192,-1.8027,-1.7056,-1.5902,-1.4716,0.0,0.0,0.0,0.0,0.0,0.0,0.0,0.0,0.0,0.0,0.0,0.0,0.0,0.0,-1.9871,-2.1673,0.0,-2.4772,-2.7292,-2.8543,-2.9544,-3.0511,-3.1275,-3.1596,-3.1241,-3.1853,-3.2598,-3.3343,-3.407,-3.4641,-3.503,-3.538,-3.5453,-3.5121,-3.5489,-3.5689,-3.5689,-3.6425,-3.6786,-3.6749,-3.7533,-3.7719,-3.7347,-3.7347,-3.7144,-3.6795,-3.6772,-3.6326,-3.5616,-3.6028,-3.5977,-3.56,-3.56,-3.56,-3.56,-3.56,-3.56,-3.5549,-3.5199,-3.5064,-3.5013,-0.9979,-1.0159,-1.0201,-1.019,-1.0196,-1.0193,-1.019,-1.0144,-1.0288,-1.0754,-1.0866,-1.1071,-1.153,-1.1731,-1.1911,0.0,0.0,0.0,0.0,-1.7385,-1.7976,-1.8854,-1.9405,-1.9708,-1.9708,-1.9708,-1.9708,-1.9708,-1.9708,-1.9708,-1.9708,-2.0258,-2.0628,-2.0946,-2.2009,-2.2343,-2.2099,-2.2658,-2.2099,-2.0882,-2.0882,-2.0464,-1.9818,-1.9818,-1.9818,-1.9818,-1.9818,-1.9781,-1.9667,-1.9172,-1.8927,-1.8682,-1.809,-1.7191,-1.6233,-1.5532,-1.4521,0.0,0.0,0.0,0.0,0.0,0.0,0.0,0.0,0.0,-1.864,-1.9933,-2.1682,-2.33,-2.4331,-2.5808,-2.7477,-2.9363,-3.0143,-3.0784,-3.1512,-3.2141,-3.2513,-3.2513,-3.2649,-3.319,-3.437,-3.4624,-3.4962,-3.5549,-3.56,-3.5667,-3.5802,-3.6434,-3.688,-3.7015,-3.7736,-3.8041,-3.7905,-3.8193,-3.8261,-3.8125,-3.8125,-3.7804,-3.7252,-3.7686,-3.7205,-3.6073,-3.6569,-3.6417,-3.5802,-3.565,-3.56,-3.56,-3.56,-3.56,-3.56,-3.56,-3.56,-3.56,-1.0075,-1.0159,-1.0201,-1.019,-1.0196,-1.0193,-1.019,-1.0185,-1.0188,-1.0199,-1.0811,-1.1228,-1.1162,-1.1865,-1.2705,-1.3658,0.0,0.0,-1.7395,-1.8213,-1.8921,-1.9564,-1.9663,-1.9708,-1.9708,-1.9708,-1.9708,-1.9708,-1.9708,-1.9708,-1.9708,-1.9783,-2.0456,-2.159,-2.1739,-2.2398,-2.3385,-2.3475,-2.2757,-2.159,-2.159,-2.1027,-2.0229,-2.0229,-2.0229,-2.0229,-2.0229,-2.0075,-1.9909,-2.0069,-1.9685,-1.9077,-1.8714,-1.8493,-1.8134,-1.6877,0.0,-1.5482,-1.542,-1.5095,-1.5083,-1.6389,-1.6621,-1.7459,0.0,0.0,-2.2111,-2.3449,-2.4818,-2.5815,-2.6018,-2.7651,-2.9417,-3.0783,-3.1593,-3.2327,-3.3051,-3.322,-3.3288,-3.3288,-3.3863,-3.4303,-3.4472,-3.5098,-3.5498,-3.5583,-3.56,-3.5904,-3.6643,-3.6761,-3.7117,-3.777,-3.8481,-3.8565,-3.7922,-3.9191,-3.9537,-3.887,-3.887,-3.8819,-3.8717,-3.8159,-3.7821,-3.7618,-3.7066,-3.6745,-3.6626,-3.5887,-3.56,-3.56,-3.56,-3.56,-3.56,-3.56,-3.56,-3.56,-1.0094,-1.0159,-1.0201,-1.019,-1.0196,-1.0211,-1.0253,-1.023,-1.0184,-1.0168,-1.0454,-1.0635,-1.0586,-1.0797,-1.1491,-1.2893,-1.3723,-1.5163,-1.75,-1.8377,-1.917,-2.0008,-1.9821,-1.9708,-1.9708,-1.9708,-1.9708,-1.9708,-1.9708,-1.9708,-1.9708,-2.0094,-2.0587,-2.1141,-2.153,-2.1994,-2.2508,-2.2743,-2.2319,-2.1488,-2.1765,-2.1407,-2.0715,-2.0715,-2.0591,-2.0382,-2.0147,-2.0004,0.0,0.0,-1.9669,-1.9191,-1.9124,-1.865,-1.8012,-1.7443,-1.7101,0.0,-1.7474,-1.742,0.0,0.0,-1.95,-2.0485,-2.354,-2.4205,-2.4522,-2.5841,-2.6834,-2.7596,-2.7981,-2.9403,-3.0804,0.0,-3.2459,-3.3051,-3.3372,-3.3406,-3.3406,-3.3406,-3.4049,-3.4489,-3.4489,-3.5182,-3.56,-3.56,-3.6045,-3.6434,-3.6778,-3.7625,-3.821,-3.8531,-3.9242,-3.9503,-3.9174,-3.9791,-3.996,-3.9656,-3.9656,-3.9436,-3.8988,-3.9123,-3.8937,-3.8497,-3.7753,-3.7432,-3.7381,-3.6603,-3.6299,-3.6248,-3.5769,-3.56,-3.56,-3.56,-3.56,-3.56,-1.0092,-1.0147,-1.0187,-1.0209,-1.0191,-1.0226,-1.0293,-1.0253,-1.023,-1.023,-1.0222,-1.0229,-1.0196,-1.0047,-1.0565,-1.2079,-1.2986,-1.4576,-1.7156,-1.816,-1.9053,-1.9972,-1.9911,-1.9803,-1.9708,-1.9708,-1.9708,-1.9708,-1.9708,-1.9708,-1.9708,-2.0198,-2.0509,-2.0718,-2.1216,-2.153,-2.1734,-2.2122,-2.1898,-2.1339,-2.181,-2.1648,-2.1166,-2.1166,-2.0986,-2.0719,-2.0306,-1.9932,0.0,0.0,-1.924,-1.8812,-1.878,-1.8279,-1.7773,-1.8132,-1.8287,-1.8385,-1.8774,0.0,0.0,-2.1018,-2.1973,-2.3146,-2.5514,-2.618,-2.6609,-2.771,-2.8485,-2.9053,-2.9498,-3.0543,-3.1621,-3.2486,-3.3051,-3.3541,-3.3964,-3.3846,-3.3626,-3.3423,-3.4049,-3.4421,-3.4218,-3.5064,-3.56,-3.56,-3.6349,-3.6897,-3.7077,-3.8294,-3.9089,-3.9317,-3.9825,-4.0096,-4.0096,-4.0096,-4.0096,-4.0096,-4.0096,-3.9825,-3.9309,-3.9859,-3.9808,-3.9242,-3.8514,-3.821,-3.8159,-3.7398,-3.6998,-3.6745,-3.6163,-3.5785,-3.56,-3.56,-3.56,-3.56,-1.0086,-1.0096,-1.0128,-1.0185,-1.0195,-1.0212,-1.0293,-1.0293,-1.0293,-1.0293,-1.0293,-1.027,-1.022,-1.0132,-1.0605,-1.19,-1.2568,-1.39,-1.6191,-1.758,-1.8581,-1.921,-1.9906,-2.0089,-1.9708,-1.9708,-1.9708,-1.9708,-1.9708,-1.9708,-1.9708,-1.9723,-2.0079,-2.0703,-2.0718,-2.1096,-2.1734,-2.2122,-2.1898,-2.1339,-2.181,-2.1827,-2.1582,-2.1582,-2.1538,-2.1407,-2.1008,0.0,0.0,0.0,-1.8348,-1.7767,-1.7311,-1.7409,0.0,-1.9256,-1.9729,0.0,0.0,0.0,-2.049,-2.2221,-2.3627,-2.5098,-2.7025,-2.7892,-2.8516,-2.9198,-2.9821,-3.0239,-3.026,-3.0777,-3.1678,-3.3136,-3.3389,-3.3892,-3.5329,-3.4928,-3.4201,-3.3491,-3.4049,-3.4218,-3.3508,-3.4737,-3.56,-3.56,-3.6349,-3.7094,-3.7838,-3.8582,-3.9326,-4.0045,-4.0096,-4.0096,-4.0096,-4.0096,-4.0096,-4.0096,-4.0096,-4.0096,-4.0079,-4.0096,-4.0096,-4.0028,-3.9276,-3.8954,-3.8903,-3.8176,-3.7449,-3.6795,-3.6778,-3.6282,-3.56,-3.56,-3.56,-3.56,-1.002,-1.0072,-1.0126,-1.0185,-1.0194,-1.0211,-1.0293,-1.0293,-1.0293,-1.0293,-1.0253,0.0,0.0,0.0,0.0,0.0,-1.2369,-1.3707,-1.5452,-1.6944,-1.8079,-1.8765,-1.9587,-1.9972,-1.9826,-2.0011,-2.0089,-2.0089,-1.9821,-1.9708,-1.9708,-1.9708,-1.9828,-2.0034,-2.0034,-2.0322,-2.0796,-2.1254,-2.1451,-2.1536,-2.2007,-2.2257,-2.232,-2.232,-2.1492,-2.0313,0.0,0.0,0.0,0.0,-1.7747,0.0,-1.7517,0.0,0.0,-1.9301,0.0,0.0,0.0,0.0,-2.213,-2.37,-2.5002,-2.6397,-2.8306,-2.9231,-2.9697,-2.9851,-3.0039,-3.0023,-2.954,-3.0398,-3.1512,-3.2513,-3.3491,-3.4472,-3.5447,-3.4979,-3.4404,-3.415,-3.4336,0.0,0.0,0.0,0.0,-3.56,-3.6806,-3.7635,-3.7889,-3.9056,-3.9842,-4.0096,-4.0096,-4.0096,-4.0096,-4.0096,-4.0096,-4.0096,-4.0096,-4.0096,-4.0096,-4.0096,-4.0096,-4.0096,-3.9842,-3.974,-3.9673,-3.892,-3.8481,-3.8142,-3.7185,-3.6643,-3.6332,-3.5785,-3.56,-3.56,-0.9994,-1.004,-1.0122,-1.0192,-1.0209,0.0,0.0,0.0,0.0,0.0,0.0,0.0,0.0,0.0,0.0,0.0,0.0,-1.2964,-1.4736,-1.5947,-1.709,-1.8153,-1.8739,-1.9058,-1.9081,-1.8982,-1.9061,-1.9342,-1.9083,-1.9227,-1.9767,-1.9767,-1.9907,-2.0156,-2.0156,-2.0296,-2.0583,-2.1149,-2.1549,-2.1813,-2.2127,-2.2362,-2.2452,-2.1937,-2.0802,0.0,0.0,0.0,0.0,0.0,0.0,0.0,0.0,0.0,0.0,0.0,0.0,-2.0673,0.0,-2.2726,-2.3376,-2.4991,-2.6473,-2.7868,-2.9121,-2.9842,-3.0136,-2.9779,-2.9482,-2.9059,-2.8316,-2.8959,-3.0091,-3.165,-3.2696,-3.3846,-3.538,-3.4979,-3.459,-3.4861,-3.4895,-3.5013,0.0,0.0,0.0,-3.5633,-3.728,-3.8176,-3.7922,-3.9317,-4.0096,-4.0096,-4.0096,-4.0096,-4.0096,-4.0096,-4.0096,-4.0096,-4.0096,-4.0096,-4.0096,-4.0096,-4.0096,-4.0096,-4.0096,-4.0096,-4.0062,-3.9605,-3.9225,-3.887,-3.7669,-3.7032,-3.6711,-3.591,-3.56,-3.56,-0.9994,-1.004,-1.0113,0.0,0.0,0.0,0.0,0.0,0.0,0.0,0.0,0.0,0.0,0.0,0.0,0.0,0.0,0.0,-1.389,0.0,0.0,-1.7266,-1.7445,-1.753,-1.7611,-1.6926,-1.6913,-1.7622,-1.7581,-1.8321,-1.9761,-1.9793,-2.0191,-2.0863,-2.091,-2.0942,-2.1021,-2.1723,-2.2013,-2.199,-2.2078,-2.2078,-2.189,-2.0499,0.0,0.0,0.0,0.0,0.0,0.0,0.0,0.0,0.0,0.0,0.0,0.0,0.0,-2.0655,-2.2901,-2.3693,-2.4325,-2.6141,-2.803,-2.9438,-2.9397,-2.9741,-2.9839,-2.9062,-2.8283,-2.7504,-2.6742,0.0,-2.7741,-3.0666,-3.1241,-3.2324,-3.5194,-3.503,-3.4878,0.0,0.0,0.0,0.0,0.0,0.0,-3.5819,0.0,-3.8684,-3.799,-3.9334,-4.0096,-4.0096,-4.0096,-4.0096,-4.0096,-4.0096,-4.0096,-4.0096,-4.0096,-4.0096,-4.0096,-4.0096,-4.0096,-4.0096,-4.0096,-4.0096,-4.0096,-4.0096,-3.9706,-3.8971,-3.8244,-3.7499,-3.6761,-3.596,-3.5633,-3.56,0.0,0.0,0.0,0.0,0.0,0.0,0.0,0.0,0.0,0.0,0.0,0.0,0.0,0.0,0.0,0.0,0.0,0.0,0.0,0.0,0.0,0.0,0.0,0.0,-1.7599,-1.757,0.0,0.0,0.0,-1.7423,-1.7824,-1.8437,-1.8805,-1.9016,-1.9613,-2.0133,-2.058,-2.0748,-2.0721,-2.0537,0.0,-2.0365,-1.9931,0.0,0.0,0.0,0.0,0.0,0.0,0.0,0.0,0.0,0.0,0.0,-1.9761,0.0,0.0,-2.2903,-2.4573,-2.576,-2.6775,-2.7745,-2.9068,-2.9987,-2.9381,-2.9403,-2.9214,-2.7909,-2.7255,-2.6599,-2.5614,0.0,0.0,-3.0112,-3.1765,0.0,-3.5346,-3.5943,0.0,-3.6451,0.0,-3.7398,-3.7601,-3.8294,0.0,0.0,-3.8362,-3.892,-3.8717,-3.9605,-4.0096,-4.0096,-4.0096,-4.0096,-4.0096,-4.0096,-4.0096,-4.0096,-4.0096,-4.0096,-4.0096,-4.0096,-4.0096,-4.0096,-4.0096,-4.0096,-4.0096,-4.0096,-3.9994,-3.9757,-3.9005,-3.8261,-3.7533,-3.6755,-3.6113,-3.5667,0.0,0.0,0.0,0.0,0.0,0.0,0.0,0.0,0.0,0.0,0.0,0.0,0.0,0.0,0.0,0.0,0.0,0.0,0.0,0.0,0.0,0.0,0.0,0.0,-1.6616,-1.6771,0.0,0.0,0.0,0.0,0.0,-1.7665,-1.8024,-1.8365,-1.8881,-1.9291,-1.9616,0.0,0.0,0.0,0.0,0.0,0.0,0.0,0.0,0.0,0.0,0.0,0.0,0.0,0.0,-1.8645,-1.9407,-2.0051,-2.0845,-2.2526,0.0,-2.4021,-2.6263,-2.7401,-2.8155,-2.9152,-2.9872,-3.0076,-2.8956,-2.8581,-2.792,-2.6074,-2.5652,0.0,-2.3297,0.0,0.0,0.0,0.0,0.0,-3.4827,-3.6079,-3.6931,0.0,-3.7922,0.0,-3.8819,-3.9225,-3.9292,0.0,-3.9242,-3.9326,-3.9005,-3.9706,-4.0096,-4.0096,-4.0096,-4.0096,-4.0096,-4.0096,-4.0096,-4.0096,-4.0096,-4.0096,-4.0096,-4.0096,-4.0096,-4.0096,-4.0096,-4.0096,-4.0096,-4.0096,-4.0096,-4.0028,-3.9276,-3.8548,-3.7821,-3.7083,-3.6424,-3.5989,0.0,0.0,0.0,0.0,0.0,0.0,0.0,0.0,0.0,0.0,0.0,0.0,0.0,0.0,0.0,0.0,0.0,0.0,0.0,0.0,0.0,0.0,0.0,0.0,0.0,0.0,0.0,0.0,0.0,0.0,0.0,0.0,0.0,0.0,0.0,0.0,0.0,0.0,0.0,0.0,0.0,0.0,0.0,0.0,0.0,0.0,0.0,0.0,0.0,0.0,-1.8707,-1.9252,-2.0507,-2.1382,-2.2179,-2.3455,-2.3996,-2.4839,-2.7823,-2.8773,-2.9189,-3.0321,-3.0538,-3.0034,-2.8483,-2.7521,-2.6338,-2.4202,0.0,-2.3277,-2.1092,-2.2456,-2.4588,-2.6587,0.0,-3.114,-3.4083,-3.5831,-3.7083,-3.7821,-3.8633,-3.9394,-4.0045,-4.0096,-4.0096,-4.0096,-4.0096,-3.9825,-3.9174,-3.9757,-4.0096,-4.0096,-4.0096,-4.0096,-4.0096,-4.0096,-4.0096,-4.0096,-4.0096,-4.0096,-4.0096,-4.0096,-4.0096,-4.0096,-4.0096,-4.0096,-4.0096,-4.0096,-4.0096,-4.0045,-3.9394,-3.8633,-3.7821,-3.7161,-3.6666,-3.6291,0.0,0.0,0.0,0.0,0.0,0.0,0.0,0.0,0.0,0.0,0.0,0.0,0.0,0.0,0.0,0.0,0.0,0.0,0.0,0.0,0.0,0.0,0.0,0.0,0.0,0.0,0.0,0.0,0.0,0.0,0.0,0.0,0.0,0.0,0.0,0.0,0.0,0.0,0.0,0.0,0.0,0.0,0.0,0.0,0.0,0.0,0.0,0.0,0.0,0.0,-1.9424,-2.0548,-2.2022,-2.279,-2.3487,-2.5477,-2.6386,-2.7135,-2.8937,-3.0181,-3.1023,-3.1191,-3.1178,-3.0621,-2.8694,-2.6941,0.0,0.0,0.0,-2.2206,-2.2144,-2.3242,0.0,-2.7596,0.0,0.0,0.0,0.0,-3.7083,0.0,0.0,0.0,0.0,0.0,0.0,0.0,-4.0096,-4.0045,-3.9926,-4.0028,-4.0096,-4.0096,-4.0096,-4.0096,-4.0096,-4.0096,-4.0096,-4.0096,-4.0096,-4.0096,-4.0096,-4.0096,-4.0096,-4.0096,-4.0096,-4.0096,-4.0096,-4.0096,-4.0096,-4.0096,-3.996,-3.9089,-3.7889,-3.777,-3.6869,-3.5805,0.0,0.0,0.0,0.0,0.0,0.0,0.0,0.0,0.0,0.0,-1.1487,0.0,0.0,0.0,0.0,0.0,0.0,0.0,0.0,0.0,0.0,0.0,0.0,0.0,0.0,0.0,0.0,0.0,0.0,0.0,0.0,0.0,0.0,0.0,0.0,0.0,0.0,0.0,0.0,0.0,0.0,0.0,0.0,0.0,0.0,0.0,0.0,0.0,0.0,0.0,-1.9347,-2.0663,-2.2262,-2.3491,-2.4671,-2.6095,-2.7159,-2.8334,-3.0527,-3.156,-3.2102,-3.2369,-3.1541,-3.016,-2.8184,0.0,0.0,0.0,0.0,-2.1524,-2.0627,0.0,0.0,0.0,0.0,0.0,0.0,0.0,0.0,0.0,0.0,0.0,0.0,0.0,0.0,-4.0096,-4.0096,-4.0096,-4.0096,-4.0096,-4.0096,-4.0096,-4.0096,-4.0096,-4.0096,-4.0096,-4.0096,-4.0096,-4.0096,-4.0096,-4.0096,-4.0096,-4.0096,-4.0096,-4.0096,-4.0096,-4.0096,-4.0096,-4.0096,-4.0096,-4.0096,-3.9191,-3.7929,-3.8173,-3.7494,-3.6419,0.0,0.0,0.0,0.0,0.0,0.0,0.0,-1.1036,-1.133,-1.204,-1.2331,-1.2205,-1.15,-1.0857,0.0,0.0,0.0,0.0,0.0,0.0,0.0,0.0,0.0,0.0,0.0,0.0,0.0,0.0,0.0,0.0,0.0,0.0,0.0,0.0,0.0,0.0,0.0,0.0,0.0,0.0,0.0,0.0,0.0,0.0,0.0,0.0,0.0,0.0,0.0,0.0,-1.8924,-2.0172,-2.178,-2.3637,-2.54,-2.6295,-2.7392,-2.8854,-3.1377,-3.2175,-3.2376,-3.2861,-3.1415,-2.9372,-2.7487,-2.4877,0.0,0.0,0.0,-2.0742,-1.9226,0.0,0.0,0.0,0.0,0.0,0.0,0.0,0.0,0.0,0.0,0.0,0.0,0.0,0.0,-4.0096,-4.0096,-4.0096,-4.0096,-4.0096,-4.0096,-4.0096,-4.0096,-4.0096,-4.0096,-4.0096,-4.0096,-4.0096,-4.0096,-4.0096,-4.0096,-4.0096,-4.0096,-4.0096,-4.0096,-4.0096,-4.0096,-4.0096,-4.0096,-4.0079,-3.9943,-3.9056,-3.7943,-3.8252,-3.7795,-3.6981,0.0,0.0,0.0,0.0,0.0,0.0,0.0,-1.0557,-1.122,-1.1845,-1.2211,-1.2357,-1.2207,-1.1647,0.0,0.0,0.0,0.0,0.0,0.0,0.0,0.0,0.0,0.0,0.0,0.0,0.0,0.0,0.0,0.0,0.0,0.0,0.0,0.0,0.0,0.0,0.0,0.0,0.0,0.0,0.0,0.0,0.0,0.0,0.0,0.0,0.0,0.0,0.0,0.0,0.0,-1.9198,-2.075,-2.2942,-2.5231,-2.6708,0.0,0.0,-3.0241,-3.1075,-3.1511,-3.1571,-3.0332,-2.8662,-2.6937,0.0,0.0,0.0,-1.9861,-1.9415,-1.9948,-1.982,0.0,0.0,0.0,0.0,0.0,0.0,0.0,0.0,0.0,0.0,0.0,0.0,0.0,-4.0096,-4.0096,-4.0096,-4.0096,-4.0096,-4.0096,-4.0096,-4.0096,-4.0096,-4.0096,-4.0096,-4.0096,-4.0096,-4.0096,-4.0096,-4.0096,-4.0096,-4.0096,-4.0096,-4.0096,-4.0096,-4.0096,-4.0096,-4.0096,-4.0028,-3.9343,-3.8616,-3.7892,-3.7683,-3.7109,-3.6539,0.0,0.0,0.0,0.0,0.0,0.0,0.0,-1.0729,-1.1168,-1.181,-1.2606,-1.294,-1.2471,-1.2274,0.0,0.0,0.0,0.0,0.0,0.0,0.0,0.0,0.0,0.0,0.0,0.0,0.0,0.0,0.0,0.0,0.0,0.0,0.0,0.0,0.0,0.0,0.0,0.0,0.0,0.0,0.0,0.0,0.0,0.0,0.0,0.0,0.0,0.0,0.0,0.0,0.0,0.0,-1.8704,-2.0449,0.0,0.0,-2.633,-2.7802,-2.945,-3.063,-3.1391,-3.1391,-2.9822,-2.7964,-2.6772,0.0,0.0,-2.0595,-1.9697,-1.9039,-1.9218,-1.9275,-1.978,0.0,-2.2085,-2.3661,0.0,0.0,0.0,0.0,0.0,0.0,0.0,0.0,0.0,-4.0096,-4.0096,-4.0096,-4.0096,-4.0096,-4.0096,-4.0096,-4.0096,-4.0096,-4.0096,-4.0096,-4.0096,-4.0096,-4.0096,-4.0096,-4.0096,-4.0096,-4.0096,-4.0096,-4.0096,-4.0096,-4.0096,-4.0096,-3.9842,-3.9419,-3.9106,-3.8278,-3.7295,-3.7791,-3.7512,-3.6943,0.0,0.0,0.0,0.0,0.0,0.0,-1.0431,-1.0719,-1.1041,-1.1455,-1.2539,-1.3071,-1.2586,-1.2403,-1.1836,-1.0612,0.0,0.0,0.0,0.0,0.0,0.0,0.0,0.0,0.0,0.0,0.0,0.0,0.0,0.0,0.0,0.0,0.0,0.0,0.0,0.0,0.0,0.0,0.0,0.0,0.0,0.0,0.0,0.0,0.0,0.0,0.0,0.0,0.0,0.0,0.0,0.0,0.0,0.0,0.0,0.0,-2.4895,-2.6422,-2.823,-2.9453,-3.0222,-3.0371,-2.8767,-2.6909,0.0,0.0,-2.0667,-2.0153,-1.9432,-1.8798,-1.8528,-1.8694,-1.911,-1.987,-2.0686,-2.224,-2.5186,0.0,0.0,0.0,0.0,0.0,0.0,0.0,-4.0171,-4.0319,-4.0179,-4.0154,-4.0336,-4.0196,-4.0096,-4.0096,-4.0096,-4.0196,-4.0336,-4.0179,-4.0179,-4.0319,-4.0196,-4.0096,-4.0096,-4.0096,-4.0096,-4.0096,-4.0096,-4.0096,-4.0079,-3.9859,-3.9462,-3.8954,-3.8514,-3.7726,-3.6899,-3.7676,-3.7651,-3.7285,0.0,0.0,0.0,0.0,0.0,0.0,0.0,-1.0302,-1.0821,-1.0639,-1.1655,-1.2461,-1.2594,-1.1889,-1.1422,-1.1487,0.0,0.0,0.0,0.0,0.0,0.0,0.0,0.0,0.0,0.0,0.0,0.0,0.0,0.0,0.0,0.0,0.0,0.0,0.0,0.0,0.0,0.0,0.0,0.0,0.0,0.0,0.0,0.0,0.0,0.0,0.0,0.0,0.0,0.0,0.0,0.0,0.0,0.0,0.0,0.0,-2.3654,-2.4372,-2.639,-2.7126,-2.7472,-2.801,-2.6881,-2.5361,0.0,-2.2406,-2.0455,-1.9255,-1.8807,-1.8518,-1.8249,-1.7992,-1.829,-1.9765,-2.0686,-2.224,-2.5186,0.0,0.0,0.0,0.0,0.0,0.0,0.0,-4.0336,-4.0833,-4.0392,0.0,-4.0856,-4.0392,-4.0096,-4.0096,-4.0096,-4.0343,-4.088,-4.0368,-4.0368,-4.088,-4.0343,-4.0096,-4.0096,-4.0096,-4.0096,-4.0096,-4.0096,-4.0096,-4.0045,-3.9292,-3.9005,-3.8836,-3.7405,-3.6812,-3.6831,-3.7121,-3.7209,-3.7341,0.0,0.0,0.0,0.0,0.0,0.0,0.0,-0.9891,-1.0091,-0.9939,-1.0937,-1.1681,-1.1778,-1.1548,-1.1421,-1.1498,0.0,0.0,0.0,0.0,0.0,0.0,0.0,0.0,0.0,0.0,0.0,0.0,0.0,0.0,0.0,0.0,0.0,0.0,0.0,0.0,0.0,0.0,0.0,0.0,0.0,0.0,0.0,0.0,0.0,0.0,0.0,0.0,0.0,0.0,0.0,0.0,0.0,0.0,0.0,-1.9112,-2.1287,0.0,-2.3879,-2.4795,-2.5436,-2.5109,-2.4563,-2.3784,-2.2596,-2.1392,-2.0184,-1.8988,-1.8508,-1.83,-1.8218,-1.7982,-1.8628,-2.1164,-2.1789,0.0,0.0,0.0,0.0,0.0,0.0,0.0,0.0,0.0,-4.0154,-4.0343,-4.0204,-4.0154,-4.0343,-4.0179,-4.0262,-4.0648,-4.0655,-4.092,-4.1512,-4.0943,-4.0733,-4.0903,-4.0343,-4.0096,-4.0096,-4.0096,-4.0096,-4.0096,-4.0096,-4.0096,-4.0045,-3.9292,-3.87,-3.8159,-3.7185,-3.6451,-3.6078,-3.6911,-3.7209,-3.7285,0.0,0.0,0.0,0.0,0.0,0.0,0.0,-0.9744,-0.9784,-0.9722,-1.0381,-1.1,-1.139,-1.1142,-1.1102,-1.1464,0.0,0.0,0.0,0.0,0.0,0.0,0.0,0.0,0.0,0.0,0.0,0.0,0.0,0.0,0.0,0.0,0.0,0.0,0.0,0.0,0.0,0.0,0.0,0.0,0.0,0.0,-1.4385,0.0,0.0,0.0,0.0,0.0,0.0,0.0,0.0,0.0,0.0,0.0,0.0,0.0,-1.891,-2.0797,0.0,-2.2964,-2.3603,-2.3418,-2.3035,-2.2439,-2.1472,-2.0657,-1.983,-1.8676,-1.84,-1.829,-1.81,-1.8143,-1.8915,-2.1079,-2.1688,0.0,0.0,0.0,0.0,0.0,0.0,0.0,0.0,-3.9774,-4.0096,-4.0096,-4.0096,-4.0096,-4.0096,-4.0286,-4.0672,-4.1223,-4.1018,-4.1313,-4.2142,-4.1313,-4.1018,-4.1246,-4.0466,-4.0096,-4.0096,-4.0096,-4.0096,-4.0096,-4.0096,-4.0096,0.0,-3.8988,-3.8311,-3.7804,-3.6755,-3.6163,-3.6028,-3.6865,-3.7209,-3.7284,0.0,0.0,0.0,0.0,0.0,0.0,0.0,0.0,0.0,0.0,-1.002,-1.0449,-1.1328,-1.0684,0.0,0.0,0.0,0.0,0.0,0.0,0.0,0.0,0.0,0.0,0.0,0.0,0.0,-1.3599,-1.2969,-1.3015,-1.3697,0.0,0.0,0.0,0.0,0.0,0.0,0.0,0.0,0.0,0.0,-1.4596,0.0,0.0,0.0,0.0,0.0,0.0,0.0,0.0,0.0,0.0,0.0,0.0,0.0,0.0,0.0,0.0,0.0,-2.1395,-2.181,-2.2441,-2.1957,-2.1222,-2.0725,-2.0111,0.0,-1.8374,-1.8371,-1.8435,-1.8063,-1.8494,-1.9239,-2.0225,0.0,0.0,0.0,0.0,0.0,0.0,0.0,0.0,-3.799,-3.9317,-4.0096,-4.0096,-4.0146,-4.0171,-4.0171,-4.0655,-4.1246,-4.1835,-4.1335,-4.1578,-4.275,-4.1578,-4.1246,-4.1789,-4.0642,-4.0096,-4.0096,-4.0096,-4.0096,-4.0096,-4.0096,-4.0079,-3.991,-3.8481,-3.7872,-3.7686,-3.622,-3.5963,-3.6457,-3.7001,-3.721,-3.7304,0.0,0.0,0.0,0.0,0.0,0.0,0.0,0.0,0.0,0.0,0.0,-1.0286,-1.0547,-1.035,0.0,0.0,0.0,0.0,0.0,0.0,0.0,0.0,0.0,0.0,0.0,0.0,0.0,-1.3599,-1.3397,-1.4073,-1.5551,-1.4783,0.0,0.0,0.0,0.0,0.0,0.0,0.0,0.0,-1.518,-1.5,0.0,0.0,0.0,0.0,-1.3976,-1.414,0.0,0.0,0.0,0.0,0.0,0.0,0.0,0.0,-1.5662,-1.6056,-1.7336,0.0,-1.9199,-1.8806,-1.9276,-1.9652,0.0,-1.8952,-1.8859,0.0,0.0,-1.8389,-1.971,-1.9372,-2.0067,0.0,0.0,0.0,0.0,0.0,0.0,0.0,0.0,0.0,-3.9571,-3.991,-4.0096,-4.0096,-4.0473,-4.0709,-4.0709,-4.1268,-4.1874,-4.248,-4.2342,-4.2617,-4.3322,-4.2185,-4.1664,-4.1789,-4.0642,-4.0096,-4.0096,-4.0096,-4.0096,-4.0096,-4.0096,-3.9791,-3.9174,-3.8278,-3.7567,-3.6988,-3.6431,-3.6287,-3.6457,-3.7001,-3.7433,-3.7702,0.0,0.0,0.0,0.0,0.0,0.0,0.0,0.0,0.0,0.0,0.0,0.0,0.0,0.0,0.0,0.0,0.0,0.0,0.0,0.0,0.0,0.0,0.0,0.0,0.0,0.0,0.0,0.0,0.0,-1.3768,0.0,0.0,0.0,0.0,0.0,0.0,0.0,0.0,0.0,0.0,-1.5046,0.0,0.0,0.0,0.0,0.0,-1.3976,-1.4166,0.0,-1.4658,-1.4798,-1.4872,0.0,0.0,0.0,0.0,-1.493,-1.5021,-1.5456,-1.7118,-1.8663,-1.8356,-1.8918,-1.9426,-1.9034,0.0,0.0,0.0,0.0,0.0,-1.9799,0.0,0.0,0.0,0.0,0.0,0.0,0.0,0.0,0.0,0.0,-4.0328,0.0,-4.0309,-4.0168,-4.0827,-4.0814,-4.0766,-4.0766,-4.1324,-4.1608,-4.1555,-4.1833,-4.2466,-4.3496,-4.2638,-4.2062,-4.1789,-4.0891,-4.0473,-4.0449,-3.9865,-3.9719,-3.9935,-3.9355,-3.8853,-3.8454,-3.7933,-3.7467,-3.7112,-3.6855,-3.6904,-3.7117,-3.7397,-3.7685,-3.7859,0.0,0.0,0.0,0.0,0.0,0.0,0.0,0.0,0.0,0.0,0.0,0.0,0.0,0.0,0.0,0.0,0.0,0.0,0.0,0.0,0.0,0.0,0.0,0.0,0.0,0.0,0.0,0.0,0.0,0.0,0.0,0.0,-1.4721,0.0,0.0,0.0,0.0,0.0,0.0,0.0,-1.4788,0.0,0.0,0.0,0.0,0.0,0.0,0.0,0.0,-1.4666,-1.4747,-1.4813,-1.4707,0.0,0.0,0.0,0.0,0.0,-1.4805,-1.6911,-1.9049,-1.9058,-1.9516,-1.9944,-1.9894,0.0,0.0,0.0,0.0,0.0,0.0,0.0,0.0,0.0,0.0,0.0,0.0,0.0,0.0,0.0,0.0,0.0,-4.135,-4.0364,-4.0149,-4.134,-4.0896,-4.0544,-4.0544,-4.1061,-4.1053,-4.0366,-4.084,-4.1754,-4.3112,-4.2595,-4.2063,-4.1543,-4.0946,-4.0671,-4.0631,-3.9474,-3.9183,-3.9564,-3.841,-3.7838,-3.7733,-3.7553,-3.7434,-3.7342,-3.7306,-3.7542,-3.7893,-3.7893,-3.7946,-3.8013,0.0,0.0,0.0,0.0,0.0,0.0,0.0,0.0,0.0,0.0,0.0,0.0,0.0,0.0,0.0,0.0,0.0,0.0,0.0,0.0,0.0,0.0,0.0,0.0,0.0,0.0,0.0,0.0,0.0,0.0,-1.3165,-1.4429,-1.5191,0.0,0.0,0.0,0.0,0.0,0.0,-1.5106,0.0,0.0,0.0,0.0,0.0,0.0,0.0,0.0,0.0,-1.4469,-1.4545,-1.4561,-1.4539,0.0,0.0,0.0,0.0,0.0,-1.6156,-1.7866,-1.9039,-1.8159,-1.9342,-2.0658,-2.0367,0.0,0.0,0.0,0.0,0.0,0.0,0.0,0.0,0.0,0.0,0.0,0.0,0.0,0.0,0.0,0.0,-3.9578,-3.9764,-3.9576,-3.9538,-3.9746,-4.0078,-4.0271,-4.0271,-4.0831,-4.1088,-4.0978,-4.1044,-4.1224,-4.1462,-4.0889,-4.0526,-4.0451,-3.9888,-3.9623,-3.9602,-3.8964,-3.8708,-3.8758,-3.8165,-3.755,-3.7011,-3.7352,-3.714,-3.6655,-3.7469,-3.7842,-3.7893,-3.7893,-3.8183,-3.8596,0.0,0.0,0.0,0.0,0.0,0.0,0.0,0.0,0.0,0.0,0.0,0.0,0.0,0.0,0.0,0.0,0.0,0.0,0.0,0.0,0.0,0.0,0.0,0.0,0.0,0.0,0.0,0.0,0.0,-1.3407,-1.3496,-1.4225,-1.4974,-1.5679,0.0,0.0,0.0,0.0,0.0,-1.5166,0.0,0.0,0.0,0.0,0.0,0.0,0.0,0.0,0.0,0.0,-1.4493,-1.4493,-1.4493,0.0,0.0,0.0,0.0,0.0,-1.5405,-1.6979,-1.8389,-1.8128,-2.0137,-2.2047,-2.1722,0.0,0.0,0.0,0.0,0.0,0.0,0.0,0.0,0.0,0.0,0.0,0.0,0.0,0.0,0.0,0.0,-3.9651,-4.0257,-3.9622,-3.9494,-4.0257,-4.0145,-4.0029,-4.0029,-4.0301,-4.0249,-3.9811,-3.9808,-3.9808,-3.9808,-3.9528,-3.9656,-4.0202,-3.9942,-3.9692,-3.9413,-3.8454,-3.8023,-3.8005,-3.7081,-3.6445,-3.6192,-3.6698,-3.6876,-3.6904,-3.7632,-3.8082,-3.8316,-3.8316,-3.8481,-3.8707,0.0,0.0,0.0,0.0,0.0,0.0,0.0,0.0,0.0,0.0,0.0,0.0,0.0,0.0,0.0,0.0,0.0,0.0,0.0,0.0,0.0,0.0,0.0,0.0,0.0,0.0,-1.2228,-1.2831,-1.3684,-1.414,-1.4231,-1.435,-1.4718,0.0,0.0,0.0,0.0,0.0,-1.4709,-1.4756,0.0,0.0,0.0,0.0,0.0,0.0,0.0,0.0,0.0,0.0,0.0,0.0,0.0,0.0,0.0,-1.4493,-1.4493,-1.4585,-1.497,-1.6355,-1.7901,-1.8755,-2.0906,-2.2874,-2.3089,0.0,0.0,0.0,0.0,0.0,0.0,0.0,0.0,0.0,0.0,0.0,0.0,0.0,-3.869,-3.9509,-3.9391,-3.9589,-4.0443,-3.9556,-3.9379,-4.0455,-3.9974,-3.9625,-3.9625,-3.9625,-3.9331,-3.8726,-3.8707,-3.8707,-3.8707,-3.8707,-3.9086,-3.9858,-3.9858,-3.9589,-3.9082,-3.7945,-3.7391,-3.7251,-3.611,-3.56,-3.5667,-3.6312,-3.6823,-3.7266,-3.786,-3.835,-3.8707,-3.8707,-3.8707,-3.8707,0.0,0.0,0.0,0.0,0.0,0.0,0.0,0.0,0.0,0.0,0.0,0.0,0.0,0.0,0.0,0.0,0.0,0.0,0.0,0.0,0.0,0.0,0.0,0.0,0.0,-1.3017,-1.3111,-1.407,-1.4093,-1.4484,-1.5196,-1.5091,-1.4813,-1.4399,0.0,0.0,0.0,0.0,0.0,-1.3834,-1.4255,0.0,0.0,0.0,0.0,0.0,0.0,0.0,0.0,0.0,0.0,0.0,0.0,0.0,-1.4493,-1.4493,-1.4493,-1.4824,-1.6321,-1.7198,-1.8178,-2.0138,-2.1185,0.0,-2.3949,-2.4354,0.0,0.0,0.0,0.0,0.0,0.0,0.0,0.0,0.0,0.0,0.0,0.0,-3.8703,-3.8784,-3.8774,-3.8776,-3.8857,-3.8786,-3.8753,-3.8872,-3.8817,-3.8799,-3.8799,-3.8799,-3.8762,-3.8707,-3.8707,-3.8707,-3.8707,-3.8707,-3.8747,-3.8808,-3.8808,-3.853,-3.8005,-3.7466,-3.6952,-3.6461,-3.5866,-3.56,-3.5672,-3.6724,-3.7171,-3.7303,-3.8251,-3.8676,-3.8707,-3.8707,-3.8707,-3.8707,0.0,0.0,0.0,0.0,0.0,0.0,0.0,0.0,0.0,0.0,0.0,0.0,0.0,0.0,0.0,0.0,0.0,0.0,0.0,0.0,0.0,0.0,0.0,-1.1451,-1.3145,-1.3489,-1.4106,-1.507,-1.4783,-1.4844,-1.5167,-1.4738,0.0,0.0,0.0,0.0,0.0,0.0,0.0,-1.4324,-1.4421,-1.3823,0.0,0.0,0.0,0.0,0.0,0.0,0.0,0.0,-1.3298,-1.3445,-1.4261,-1.4493,-1.4493,-1.4493,-1.4493,-1.464,-1.5239,-1.6733,-1.8328,-1.912,0.0,0.0,0.0,0.0,0.0,0.0,0.0,0.0,0.0,0.0,0.0,0.0,0.0,0.0,-3.8496,-3.8707,-3.8707,-3.8707,-3.8707,-3.8707,-3.8707,-3.8707,-3.8707,-3.8707,-3.8707,-3.8707,-3.8707,-3.8707,-3.8707,-3.8707,-3.8707,-3.8707,-3.8707,-3.8707,-3.8707,-3.8707,-3.8707,-3.8269,-3.7451,-3.7267,-3.6921,-3.6374,-3.6182,-3.6097,-3.6161,-3.6902,-3.736,-3.772,-3.8417,-3.8707,-3.8707,-3.8707,-3.8707,-3.8707,0.0,0.0,0.0,0.0,0.0,0.0,0.0,0.0,0.0,0.0,0.0,0.0,0.0,0.0,0.0,0.0,0.0,0.0,0.0,0.0,0.0,0.0,0.0,-1.1155,-1.2303,-1.3436,-1.437,-1.5087,-1.4813,-1.4758,-1.4898,0.0,0.0,0.0,0.0,0.0,0.0,0.0,0.0,0.0,-1.4241,-1.3557,0.0,0.0,0.0,0.0,0.0,0.0,0.0,0.0,-1.2735,-1.3065,-1.3895,-1.4314,-1.4493,-1.4493,-1.486,-1.5258,-1.5258,-1.7004,-1.8924,0.0,0.0,0.0,0.0,0.0,0.0,0.0,0.0,0.0,0.0,0.0,0.0,0.0,0.0,-3.7358,-3.8533,-3.8707,-3.8707,-3.8707,-3.8707,-3.8707,-3.8707,-3.8707,-3.8707,-3.8707,-3.8707,-3.8707,-3.8707,-3.8707,-3.8707,-3.8707,-3.8707,-3.8707,-3.8707,-3.8707,-3.8611,-3.8449,-3.8627,-3.8252,-3.7415,-3.7415,-3.7135,-3.6643,-3.6643,-3.6643,-3.6684,-3.721,-3.772,-3.8183,-3.8562,-3.8707,-3.8707,-3.8707,-3.8707,-3.8707,0.0,0.0,0.0,0.0,0.0,0.0,0.0,0.0,0.0,0.0,0.0,0.0,0.0,0.0,0.0,0.0,0.0,0.0,0.0,0.0,0.0,0.0,0.0,-1.0943,-1.1475,-1.2847,-1.3718,-1.3989,-1.3989,-1.4155,-1.4478,-1.3856,0.0,0.0,0.0,0.0,0.0,0.0,0.0,0.0,-1.3574,-1.2975,-1.16,0.0,0.0,0.0,0.0,0.0,0.0,0.0,-1.1485,-1.2243,-1.3114,-1.3919,-1.4517,-1.4493,-1.5649,-1.6908,-1.6902,-1.8275,0.0,0.0,0.0,0.0,0.0,0.0,0.0,0.0,0.0,0.0,0.0,0.0,0.0,-3.6046,-3.6978,-3.7786,-3.8597,-3.8707,-3.8707,-3.8707,-3.8707,-3.8707,-3.8707,-3.8707,-3.8707,-3.8707,-3.8707,-3.8707,-3.8707,-3.8707,-3.8707,-3.8707,-3.8707,-3.8707,-3.8707,-3.8707,-3.843,-3.7911,-3.8449,-3.8415,-3.7893,-3.7893,-3.7649,-3.7209,-3.7209,-3.7209,-3.7229,-3.7702,-3.8216,-3.8707,-3.8707,-3.8707,-3.8707,-3.8707,-3.8707,-3.8707,0.0,0.0,0.0,0.0,0.0,0.0,0.0,0.0,0.0,0.0,0.0,0.0,0.0,0.0,0.0,0.0,0.0,0.0,0.0,0.0,0.0,0.0,0.0,0.0,0.0,0.0,-1.1943,-1.3718,-1.3727,-1.3478,0.0,0.0,0.0,-1.279,0.0,0.0,0.0,0.0,0.0,0.0,-1.3793,-1.3318,-1.2386,0.0,0.0,0.0,0.0,0.0,0.0,0.0,0.0,0.0,-1.309,-1.4494,-1.5497,-1.4825,-1.6209,-1.7745,-1.6806,-1.8439,0.0,0.0,0.0,0.0,0.0,0.0,0.0,0.0,0.0,0.0,0.0,0.0,0.0,-3.6978,-3.7345,-3.7786,-3.8597,-3.8707,-3.8707,-3.8707,-3.8707,-3.8707,-3.8707,-3.8707,-3.8707,-3.8707,-3.8707,-3.8707,-3.8707,-3.8707,-3.8707,-3.8707,-3.8707,-3.8707,-3.8707,-3.8707,-3.8627,-3.8465,-3.8627,-3.8415,-3.7893,-3.7893,-3.7825,-3.7685,-3.7685,-3.7685,-3.772,-3.8251,-3.8562,-3.8707,-3.8707,-3.8707,-3.8707,-3.8707,-3.8707,-3.8707,0.0,0.0,0.0,0.0,0.0,0.0,0.0,0.0,0.0,0.0,0.0,-1.0192,0.0,0.0,0.0,0.0,0.0,0.0,0.0,0.0,0.0,0.0,0.0,0.0,0.0,-1.0041,-1.0864,0.0,0.0,0.0,0.0,0.0,0.0,-1.2674,0.0,-1.2547,0.0,0.0,0.0,0.0,-1.3299,-1.312,-1.2685,0.0,0.0,0.0,0.0,0.0,0.0,0.0,0.0,0.0,-1.2283,0.0,-1.464,-1.5014,-1.6631,-1.833,-1.8494,0.0,0.0,0.0,0.0,0.0,0.0,0.0,0.0,0.0,0.0,0.0,0.0,-3.6795,0.0,-3.7419,-3.7768,-3.8138,-3.8634,-3.8707,-3.8707,-3.8707,-3.8707,-3.8707,-3.8707,-3.8707,-3.8579,-3.8248,-3.8212,-3.8083,-3.7771,-3.7753,-3.7753,-3.7753,-3.8065,-3.8065,-3.7753,-3.8377,-3.8542,-3.823,-3.856,-3.853,-3.8216,-3.8216,-3.8216,-3.8216,-3.8216,-3.8216,-3.8232,-3.8562,-3.8707,-3.8707,-3.8707,-3.8707,-3.8707,-3.8707,-3.8707,-3.8652,0.0,0.0,-0.8811,-0.8893,0.0,0.0,0.0,0.0,0.0,0.0,-1.0194,-1.0197,0.0,0.0,0.0,-1.0104,0.0,0.0,0.0,0.0,0.0,0.0,0.0,0.0,0.0,0.0,0.0,0.0,0.0,0.0,0.0,0.0,-1.1855,-1.2169,0.0,-1.1996,0.0,0.0,0.0,0.0,-1.2243,-1.2457,-1.2527,-1.1771,0.0,0.0,0.0,0.0,0.0,0.0,0.0,0.0,-1.1209,-1.1806,-1.2886,-1.4974,-1.6854,-1.8724,0.0,0.0,0.0,0.0,0.0,0.0,0.0,0.0,0.0,0.0,0.0,0.0,-3.7603,-3.7621,-3.7621,-3.7621,-3.8212,-3.867,-3.8597,-3.8597,-3.856,-3.8487,-3.8487,-3.8487,-3.8487,-3.8487,-3.8175,-3.7456,-3.7382,-3.707,-3.634,-3.6303,-3.6303,-3.6303,-3.7015,-3.7052,-3.6303,-3.7753,-3.8102,-3.7401,-3.812,-3.8487,-3.8487,-3.856,-3.8597,-3.8597,-3.8597,-3.8634,-3.8707,-3.8707,-3.8707,-3.8707,-3.8707,-3.867,-3.8597,-3.8597,-3.8542,-3.8377,0.0,0.0,-0.8827,-0.8888,0.0,0.0,0.0,0.0,-1.0194,-1.0192,-1.0193,-1.0191,-1.0207,-1.0187,0.0,-1.0177,-1.0181,0.0,0.0,0.0,0.0,0.0,0.0,0.0,0.0,0.0,0.0,0.0,0.0,0.0,0.0,0.0,0.0,-1.18,0.0,-1.1448,0.0,0.0,0.0,-1.1144,-1.1326,-1.157,-1.1759,-1.0959,-1.0791,0.0,0.0,0.0,0.0,0.0,0.0,0.0,-1.2009,-1.3254,-1.443,-1.4145,-1.6543,-1.9314,0.0,0.0,0.0,0.0,0.0,0.0,0.0,0.0,0.0,0.0,0.0,0.0,-3.8322,-3.8432,-3.8432,-3.8432,-3.8597,-3.8487,-3.786,-3.7768,-3.7529,-3.689,-3.6817,-3.6817,-3.6817,-3.6817,-3.6743,-3.656,-3.656,-3.6468,-3.6303,-3.6303,-3.6303,-3.6303,-3.6468,-3.6468,-3.6303,-3.6633,-3.6725,-3.656,-3.6725,-3.6817,-3.6835,-3.7474,-3.7768,-3.7768,-3.7768,-3.812,-3.8707,-3.8707,-3.8707,-3.8707,-3.8707,-3.8303,-3.7768,-3.7768,-3.7364,-3.678,0.0,0.0,0.0,0.0,0.0,0.0,0.0,0.0,-0.9721,-1.0154,-1.0207,-1.0194,-1.0197,-1.0175,0.0,0.0,-1.0176,-1.0179,0.0,0.0,0.0,0.0,0.0,0.0,0.0,0.0,0.0,0.0,0.0,0.0,0.0,0.0,0.0,-1.1925,0.0,-1.135,0.0,0.0,0.0,-1.0252,-1.0477,-1.0991,-1.1506,-1.0701,-1.0661,-1.0889,-1.0092,0.0,0.0,0.0,0.0,0.0,0.0,0.0,-1.3342,-1.4436,-1.6164,-1.8118,0.0,0.0,0.0,0.0,0.0,0.0,0.0,0.0,0.0,0.0,0.0,0.0,-3.7477,-3.7551,-3.7551,-3.7551,-3.7551,-3.7404,-3.6978,-3.6942,-3.6776,-3.634,-3.6303,-3.6303,-3.6303,-3.6303,-3.6138,-3.5701,-3.5665,-3.5514,-3.511,-3.5092,-3.5092,-3.5092,-3.5477,-3.5495,-3.511,-3.5899,-3.6083,-3.5665,-3.6101,-3.6083,-3.5701,-3.6541,-3.6942,-3.6942,-3.6942,-3.7147,-3.7551,-3.7551,-3.7551,-3.7551,-3.7551,-3.7294,-3.6942,-3.6942,-3.6666,-3.6229,0.0,0.0,0.0,0.0,0.0,0.0,0.0,0.0,0.0,-1.0116,-1.0191,-1.0201,-1.0206,-1.0157,-1.0133,0.0,0.0,0.0,-1.0191,0.0,0.0,0.0,0.0,0.0,0.0,0.0,0.0,0.0,0.0,0.0,0.0,0.0,0.0,-1.2282,0.0,0.0,0.0,0.0,-1.0031,-0.9396,-0.9706,-1.0394,-1.114,-1.0492,-1.0467,-1.0703,-1.0037,-0.9869,-1.0104,-1.1046,0.0,0.0,0.0,0.0,-1.177,-1.4532,-1.5407,-1.6267,0.0,0.0,0.0,0.0,0.0,0.0,0.0,0.0,0.0,0.0,0.0,-3.6119,-3.6266,-3.6303,-3.6303,-3.6303,-3.6303,-3.6248,-3.6101,-3.6083,-3.6028,-3.5881,-3.5862,-3.5862,-3.5862,-3.5862,-3.5569,-3.4857,-3.4784,-3.4491,-3.3844,-3.3807,-3.3807,-3.3807,-3.4454,-3.4472,-3.3807,-3.5183,-3.5514,-3.4802,-3.5532,-3.5495,-3.4821,-3.555,-3.5936,-3.6083,-3.6083,-3.6156,-3.6303,-3.6303,-3.6303,-3.6303,-3.6303,-3.6211,-3.6083,-3.6083,-3.5991,-3.5771,0.0,0.0,0.0,0.0,0.0,0.0,0.0,0.0,0.0,0.0,-1.0199,-1.0193,-1.0197,-1.0185,-1.0189,-1.0195,-1.0185,-1.0181,0.0,0.0,0.0,0.0,0.0,0.0,0.0,0.0,0.0,0.0,0.0,0.0,0.0,0.0,0.0,-1.2622,0.0,0.0,0.0,0.0,-1.0001,-0.8831,-0.9099,-0.9381,-0.9601,-0.9614,-0.9761,-0.9944,-0.9832,-0.9811,-1.0071,-1.1564,-1.2114,0.0,0.0,0.0,0.0,-1.2583,-1.3629,0.0,0.0,0.0,0.0,0.0,0.0,0.0,0.0,0.0,0.0,0.0,0.0,-3.5389,-3.6156,-3.6303,-3.6303,-3.6303,-3.6303,-3.6046,-3.5279,-3.5169,-3.4912,-3.4211,-3.4137,-3.4137,-3.4137,-3.4137,-3.4082,-3.3972,-3.3972,-3.3917,-3.3807,-3.3807,-3.3807,-3.3807,-3.3899,-3.3917,-3.3807,-3.4027,-3.4082,-3.3972,-3.4082,-3.4064,-3.3972,-3.4082,-3.4523,-3.5169,-3.5169,-3.5591,-3.6303,-3.6303,-3.6303,-3.6303,-3.6303,-3.5844,-3.5169,-3.5169,-3.4729,-3.4119,0.0,0.0,0.0,0.0,0.0,0.0,0.0,0.0,0.0,0.0,0.0,-1.0143,-1.0148,-1.0137,-1.0156,-1.0204,-1.0196,0.0,0.0,0.0,0.0,0.0,0.0,0.0,0.0,0.0,0.0,0.0,0.0,0.0,0.0,-1.0621,-1.1858,0.0,0.0,0.0,0.0,0.0,0.0,-0.9424,-0.9267,-1.0095,-1.1293,-1.0001,-1.0459,-1.1632,-1.0294,-0.9825,-1.0107,-1.1753,-1.2279,-1.2396,-1.3248,0.0,0.0,0.0,0.0,0.0,0.0,0.0,0.0,0.0,0.0,0.0,0.0,0.0,0.0,0.0,-3.4082,-3.4435,-3.4835,-3.4908,-3.4908,-3.4908,-3.4908,-3.4761,-3.438,-3.4325,-3.4197,-3.3844,-3.3807,-3.3807,-3.3807,-3.3807,-3.3807,-3.3807,-3.3807,-3.3807,-3.3807,-3.3807,-3.3807,-3.3807,-3.3807,-3.3807,-3.3807,-3.3807,-3.3807,-3.3807,-3.3807,-3.3807,-3.3807,-3.3807,-3.399,-3.4325,-3.4325,-3.4559,-3.4908,-3.4908,-3.4908,-3.4908,-3.4908,-3.4669,-3.4325,-3.4325,-3.41,-3.3807,0.0,0.0,0.0,0.0,0.0,0.0,0.0,0.0,0.0,0.0,0.0,-1.0101,-1.0119,0.0,0.0,0.0,-1.0182,0.0,0.0,0.0,0.0,0.0,0.0,0.0,0.0,0.0,0.0,0.0,0.0,0.0,-1.1147,-1.1681,-1.353,0.0,-1.5743,0.0,0.0,0.0,0.0,-1.1018,-1.0702,-1.1702,-1.3254,-1.1898,-1.2589,-1.4,-1.1798,0.0,0.0,0.0,0.0,0.0,0.0,0.0,0.0,0.0,0.0,0.0,0.0,0.0,0.0,0.0,0.0,0.0,0.0,0.0,0.0,0.0,-3.3183,-3.3183,-3.3183,-3.3513,-3.3807,-3.3807,-3.3807,-3.3807,-3.3807,-3.3807,-3.3807,-3.3807,-3.3807,-3.3807,-3.3807,-3.3807,-3.3807,-3.3807,-3.3807,-3.3807,-3.3807,-3.3807,-3.3807,-3.3807,-3.3807,-3.3807,-3.3807,-3.3807,-3.3807,-3.3807,-3.3807,-3.3807,-3.3807,-3.3807,-3.3807,-3.3807,-3.3807,-3.3807,-3.3807,-3.3807,-3.3807,-3.3807,-3.3807,-3.3807,-3.3807,-3.3807,-3.3807,-3.3807,0.0,0.0,0.0,0.0,0.0,0.0,0.0,0.0,0.0,0.0,0.0,-1.0112,-1.0187,-1.015,-1.0136,-1.0187,-1.0149,0.0,0.0,0.0,0.0,0.0,0.0,0.0,0.0,0.0,0.0,0.0,0.0,0.0,-1.2314,-1.2864,-1.536,-1.9295,-1.77,-1.6428,-1.5457,0.0,0.0,-1.3893,-1.4003,-1.4126,-1.4398,-1.5928,-1.6597,-1.6493,-1.4848,0.0,0.0,0.0,0.0,0.0,0.0,0.0,0.0,0.0,0.0,0.0,0.0,0.0,0.0,0.0,0.0,0.0,0.0,0.0,0.0,0.0,-3.1525,-3.1525,-3.1525,-3.2761,-3.3807,-3.3807,-3.3807,-3.3807,-3.3807,-3.3807,-3.3807,-3.3807,-3.3807,-3.3807,-3.3807,-3.3807,-3.3807,-3.3807,-3.3807,-3.3807,-3.3807,-3.3807,-3.3807,-3.3807,-3.3807,-3.3807,-3.3807,-3.3807,-3.3807,-3.3807,-3.3807,-3.3807,-3.3807,-3.3807,-3.3807,-3.3807,-3.3807,-3.3807,-3.3807,-3.3807,-3.3807,-3.3807,-3.3807,-3.3807,-3.3807,-3.3807,-3.3807,-3.3807,0.0,0.0,0.0,0.0,0.0,0.0,0.0,0.0,0.0,0.0,0.0,0.0,0.0,-1.0113,-1.0127,-1.0194,-1.0091,0.0,0.0,0.0,0.0,0.0,0.0,0.0,0.0,0.0,0.0,0.0,0.0,-0.8509,-1.0875,-1.1891,-1.3699,-1.6166,-1.6815,-1.7283,-1.7478,-1.5819,0.0,0.0,-1.5121,-1.6136,0.0,-1.682,-1.7571,-1.8655,0.0,0.0,0.0,0.0,0.0,0.0,-1.3202,-1.2634,-1.2003,-1.1198,0.0,0.0,0.0,0.0,0.0,0.0,0.0,0.0,0.0,0.0,0.0,-3.0467,-3.1035,-3.1397,-3.1397,-3.2284,-3.3036,-3.3036,-3.3458,-3.3807,-3.3807,-3.3807,-3.3807,-3.3807,-3.3807,-3.3807,-3.3807,-3.3807,-3.3587,-3.306,-3.3036,-3.2797,-3.2296,-3.226,-3.226,-3.226,-3.226,-3.2504,-3.3023,-3.3532,-3.3807,-3.3807,-3.3807,-3.3807,-3.3807,-3.3807,-3.3807,-3.3807,-3.3807,-3.3807,-3.3807,-3.3807,-3.3807,-3.3807,-3.3807,-3.3807,-3.3807,-3.3807,-3.3807,-3.3807,0.0,0.0,0.0,-1.0194,0.0,-1.0206,-1.0204,-1.0156,-1.0124,-1.0124,0.0,0.0,0.0,0.0,-1.0124,-1.0159,-1.0046,0.0,0.0,0.0,0.0,0.0,0.0,0.0,0.0,0.0,0.0,0.0,0.0,0.0,0.0,-1.141,-1.2946,-1.4852,-1.5455,-1.683,0.0,0.0,0.0,-1.6649,0.0,0.0,-1.9565,0.0,-2.0081,0.0,0.0,0.0,0.0,0.0,0.0,0.0,0.0,-1.2789,-1.1619,-1.0802,-1.1289,0.0,0.0,0.0,0.0,0.0,0.0,0.0,0.0,0.0,0.0,-2.8787,-2.9692,-3.0232,-3.0361,-3.1221,-3.1992,-3.2168,-3.2651,-3.2981,-3.2981,-3.2981,-3.2981,-3.2981,-3.2981,-3.2981,-3.2981,-3.2981,-3.2761,-3.2247,-3.221,-3.1953,-3.1433,-3.1397,-3.1397,-3.1397,-3.1397,-3.1659,-3.2192,-3.2724,-3.3128,-3.3403,-3.3403,-3.3403,-3.3421,-3.3678,-3.3642,-3.3421,-3.3678,-3.3807,-3.3807,-3.3807,-3.3807,-3.3807,-3.3807,-3.3807,-3.3807,-3.3807,-3.3807,-3.3807,-1.0191,-1.0193,-1.0195,-1.0209,-1.0194,-1.0206,-1.0187,-1.0195,-1.0195,-1.0197,0.0,0.0,0.0,0.0,0.0,-1.0132,-1.0029,-0.9921,-0.9896,0.0,0.0,0.0,0.0,0.0,0.0,0.0,0.0,0.0,0.0,0.0,0.0,0.0,-1.3313,-1.586,-1.3878,-1.5054,-1.8573,0.0,-1.8832,-1.909,0.0,-2.0367,-2.0617,0.0,0.0,0.0,-2.2369,-2.1486,0.0,-1.9041,0.0,0.0,0.0,-1.3275,-1.082,-1.0047,-1.0925,0.0,0.0,0.0,0.0,0.0,0.0,0.0,0.0,0.0,0.0,-2.6293,-2.7305,-2.7859,-2.8282,-2.9523,-3.0675,-3.1219,-3.1372,-3.1409,-3.1397,-3.1397,-3.1397,-3.1397,-3.1397,-3.1397,-3.1397,-3.1397,-3.1397,-3.1378,-3.136,-3.136,-3.1342,-3.1342,-3.1342,-3.1342,-3.136,-3.136,-3.136,-3.1397,-3.1788,-3.2564,-3.2564,-3.2564,-3.2583,-3.3366,-3.3311,-3.2601,-3.3385,-3.3733,-3.377,-3.3788,-3.3807,-3.3807,-3.3807,-3.3807,-3.3807,-3.3807,-3.3807,-3.3807,-1.019,-1.0162,-1.0141,-1.0193,-1.0156,-1.0117,-1.0053,-1.0105,-1.0102,0.0,0.0,0.0,-1.0194,-1.067,-1.1011,-1.0976,-1.0931,-1.06,-0.9878,-0.9576,-0.9359,-0.922,0.0,0.0,0.0,0.0,0.0,0.0,0.0,0.0,0.0,0.0,0.0,0.0,-1.2641,-1.3656,-1.5193,-1.4756,0.0,0.0,-1.8731,-2.0064,0.0,0.0,0.0,0.0,0.0,-2.285,-2.2542,0.0,-2.0645,-1.9538,0.0,0.0,0.0,-1.2362,-1.3036,0.0,-1.3128,0.0,0.0,0.0,0.0,0.0,0.0,0.0,0.0,-2.4561,-2.5661,-2.6498,-2.7186,-2.7772,-2.8334,-2.8909,-3.052,-3.1619,-3.1421,-3.1397,-3.1397,-3.1397,-3.1397,-3.1397,-3.1397,-3.1397,-3.1158,-3.0577,-3.0522,-3.0283,-2.9702,-2.9647,-2.9647,-2.9647,-3.0228,-3.0522,-3.0522,-3.1121,-3.1513,-3.1733,-3.1733,-3.1733,-3.1733,-3.1953,-3.1935,-3.1733,-3.1971,-3.2394,-3.2968,-3.3568,-3.3807,-3.3807,-3.3807,-3.3807,-3.3807,-3.3807,-3.3807,-3.3807,-1.0191,-1.0172,-1.0239,-1.0559,-1.061,-1.0652,-1.0801,-1.0964,-1.1012,0.0,0.0,0.0,-1.1156,-1.1844,-1.2233,-1.1904,-1.1536,-1.1032,-1.042,-0.9872,-0.9488,-0.9317,-0.9068,-0.8897,0.0,0.0,0.0,0.0,0.0,0.0,0.0,0.0,0.0,0.0,-1.0929,-1.1673,-1.2683,-1.1986,0.0,0.0,-1.8832,0.0,0.0,-2.3082,-2.381,0.0,0.0,0.0,-2.3797,-2.3359,-2.2349,0.0,0.0,-1.6445,-1.5092,-1.4101,-1.4609,0.0,0.0,0.0,0.0,0.0,0.0,0.0,0.0,-2.0307,0.0,0.0,-2.4591,-2.5522,-2.659,-2.7085,-2.744,-2.779,-2.9062,-3.0101,-3.0354,-3.0393,-3.0393,-3.0393,-3.0393,-3.0393,-3.0393,-3.0393,-3.021,-2.9721,-2.98,-2.9658,-2.9186,-2.9055,-2.9005,-2.9005,-2.9445,-2.9702,-2.9702,-3.0173,-3.0577,-3.0889,-3.0889,-3.0889,-3.0907,-3.125,-3.1231,-3.0907,-3.125,-3.1659,-3.2137,-3.2614,-3.3183,-3.3807,-3.3807,-3.3807,-3.3807,-3.3807,-3.3807,-3.3807,0.0,-1.0252,-1.0486,-1.109,-1.1288,-1.1538,-1.2041,-1.2259,-1.2335,0.0,-1.2433,-1.2697,-1.3002,-1.3522,-1.3643,-1.3136,-1.2093,-1.1422,-1.1336,-1.0366,-0.9651,-0.9304,-0.9307,-0.9174,-0.8925,0.0,0.0,0.0,0.0,0.0,0.0,0.0,0.0,0.0,-0.9196,-0.9676,-1.0971,-1.0555,0.0,-1.6709,-1.9346,-2.1121,0.0,0.0,-2.4958,-2.5213,-2.5497,-2.522,-2.4743,-2.4734,-2.3601,0.0,0.0,-1.8647,-1.806,-1.5846,-1.62,0.0,-1.7251,-1.7783,0.0,0.0,-1.8691,0.0,-2.0747,-1.9748,-1.9183,0.0,-2.3626,-2.4418,-2.5872,-2.6603,-2.7001,-2.7076,-2.7222,-2.7683,-2.8618,-2.8798,-2.8768,-2.873,-2.8753,-2.8801,-2.8858,-2.8877,-2.8925,-2.9033,-2.9267,-2.9402,-2.9402,-2.9145,-2.9005,-2.9005,-2.9005,-2.9005,-2.9005,-2.9005,-2.9354,-3.0081,-3.0081,-3.0081,-3.0099,-3.0797,-3.0742,-3.0118,-3.0815,-3.1182,-3.1268,-3.1268,-3.221,-3.366,-3.3568,-3.3587,-3.366,-3.3568,-3.3613,-3.3713,-1.0112,-1.0541,-1.0964,-1.1109,-1.1531,-1.2078,-1.2717,-1.2382,-1.2498,-1.3628,-1.4034,-1.478,-1.6205,-1.5399,-1.4954,-1.5472,-1.3617,-1.2353,-1.2189,-1.0635,-0.9592,-0.9304,-0.9307,-0.9218,-0.9057,-0.9159,0.0,0.0,0.0,0.0,0.0,0.0,0.0,0.0,-0.8965,-0.9446,-1.0476,-1.2062,0.0,-1.6322,-1.6998,0.0,-2.3458,-2.3478,-2.4686,-2.63,-2.5777,-2.5896,-2.6265,-2.6278,-2.5178,-2.3738,0.0,0.0,-2.088,-1.9868,-1.9678,-1.9733,-1.94,-1.9664,-1.9842,-1.9016,0.0,0.0,-1.8812,-1.8941,-1.9494,0.0,-2.1001,-2.1242,-2.2972,-2.3538,-2.3879,-2.4364,-2.5565,-2.6642,-2.7233,-2.7447,-2.7429,-2.7114,-2.7212,-2.7493,-2.7993,-2.8026,-2.8382,-2.9254,-2.9372,-2.9402,-2.9402,-2.9145,-2.9005,-2.9005,-2.9005,-2.9005,-2.9005,-2.9005,-2.9078,-2.9225,-2.9225,-2.9225,-2.9244,-2.939,-2.9372,-2.9244,-2.939,-2.9831,-3.043,-3.043,-3.1384,-3.2766,-3.2118,-3.2265,-3.2748,-3.21,-3.2404,-3.3157,-1.0179,-1.0964,-1.1692,-1.1692,-1.2172,-1.2884,-1.3841,-1.3829,-1.4211,-1.5655,-1.6748,-1.735,-1.7215,-1.7074,-1.6768,-1.6257,-1.475,-1.3437,-1.2454,-1.1177,-1.0131,-0.9435,-0.9399,-0.934,-0.9194,-0.9274,0.0,0.0,0.0,0.0,0.0,0.0,0.0,0.0,-0.9772,-1.0546,-1.2199,0.0,-1.4584,-1.641,-1.7685,0.0,-2.38,-2.3797,-2.5122,-2.6956,-2.658,-2.6804,-2.7204,-2.6561,-2.5806,0.0,0.0,-2.3924,-2.3364,0.0,-2.2119,-2.2205,-2.1615,-2.1599,-2.1591,-2.0873,0.0,0.0,0.0,-1.9609,-1.9837,-2.1747,-2.1236,-2.1036,-2.2952,-2.3386,-2.3544,-2.3844,-2.4938,-2.5653,-2.5393,-2.6422,-2.7129,-2.6926,-2.698,-2.713,-2.7335,-2.7443,-2.7765,-2.8399,-2.826,-2.8203,-2.8296,-2.8381,-2.8411,-2.8411,-2.8785,-2.9005,-2.9005,-2.9005,-2.9005,-2.9005,-2.9005,-2.9005,-2.9005,-2.9005,-2.9005,-2.9005,-2.9005,-2.9225,-2.9592,-2.9592,-3.0308,-3.139,-3.1403,-3.1654,-3.1953,-3.1562,-3.1734,-3.2223,-1.0249,-1.1276,-1.2278,-1.2278,-1.2938,-1.3882,-1.5099,-1.5453,-1.6104,-1.7585,-1.9138,0.0,0.0,0.0,0.0,0.0,-1.6397,-1.509,0.0,0.0,-1.1401,-1.0236,-0.9928,-0.9785,-0.9819,-0.9547,0.0,0.0,0.0,0.0,0.0,-0.9134,-0.9905,0.0,0.0,0.0,0.0,0.0,0.0,-1.7462,0.0,-2.1537,-2.3437,-2.4242,-2.5599,-2.7083,-2.732,-2.7619,-2.7741,-2.6613,-2.6237,-2.6014,-2.4815,-2.4989,0.0,0.0,0.0,0.0,0.0,0.0,0.0,0.0,0.0,-2.2381,0.0,0.0,0.0,-2.2762,0.0,0.0,0.0,0.0,0.0,0.0,0.0,0.0,0.0,-2.4986,0.0,-2.6486,-2.6668,-2.6763,-2.6729,-2.677,-2.698,-2.7463,-2.6849,-2.6687,-2.717,-2.7434,-2.764,-2.7798,-2.8429,-2.884,-2.9005,-2.9005,-2.9005,-2.9005,-2.9005,-2.9005,-2.9005,-2.9005,-2.9005,-2.9005,-2.9005,-2.9005,-2.9005,-2.9005,-2.9372,-3.0026,-3.0687,-3.1017,-3.1146,-3.0993,-3.1066,-3.1273,-1.0171,-1.1195,-1.2213,-1.2213,-1.3636,-1.5125,-1.6171,-1.6247,-1.682,0.0,0.0,0.0,0.0,0.0,0.0,0.0,0.0,0.0,-1.7743,0.0,0.0,-1.2739,-1.1442,-1.1036,-1.1685,-1.0418,0.0,0.0,0.0,0.0,0.0,0.0,-0.9698,-1.0453,-1.1088,0.0,0.0,0.0,-1.7564,0.0,-2.122,-2.1577,0.0,-2.3972,-2.535,-2.6294,-2.7426,-2.7869,-2.7812,0.0,-2.7054,-2.685,0.0,-2.5815,-2.6176,-2.4753,0.0,0.0,0.0,0.0,0.0,0.0,-2.4367,0.0,0.0,0.0,-2.2508,-2.2232,0.0,0.0,0.0,0.0,0.0,0.0,0.0,0.0,-2.1022,-2.2196,-2.3452,-2.3872,-2.472,-2.5461,-2.6045,-2.5594,-2.5881,-2.7393,-2.5924,-2.5615,-2.7121,-2.6905,-2.7053,-2.778,-2.7879,-2.8282,-2.8987,-2.9005,-2.9005,-2.9005,-2.9005,-2.9005,-2.9005,-2.9005,-2.9005,-2.9005,-2.9005,-2.9005,-2.9005,-2.9005,-2.906,-2.9152,-2.9244,-2.9702,-3.0246,-2.9537,-2.9861,-3.0687,-1.0269,-1.155,-1.2748,-1.2288,-1.3395,-1.4843,-1.6284,-1.828,-1.9592,0.0,0.0,0.0,0.0,0.0,0.0,0.0,0.0,-2.0117,0.0,0.0,0.0,-1.4654,-1.3202,-1.2308,-1.2058,-1.1063,0.0,0.0,-0.9739,0.0,0.0,0.0,-1.1008,-1.2663,-1.3465,0.0,-1.8281,0.0,-1.9309,0.0,0.0,0.0,0.0,-2.4866,-2.6557,-2.7475,-2.8254,-2.8551,-2.8449,0.0,-2.7248,0.0,0.0,0.0,0.0,0.0,0.0,0.0,0.0,0.0,0.0,0.0,0.0,0.0,-2.314,0.0,-2.3097,0.0,0.0,0.0,0.0,0.0,0.0,0.0,-2.1504,0.0,0.0,0.0,-2.1769,0.0,0.0,-2.3489,-2.478,-2.4091,-2.428,-2.6085,-2.4372,-2.3999,-2.5714,-2.5866,-2.6054,-2.6403,-2.7321,-2.7952,-2.8301,-2.8767,-2.9005,-2.9005,-2.9005,-2.9005,-2.9005,-2.9005,-2.9005,-2.9005,-2.9005,-2.9005,-2.9005,-2.9005,-2.9005,-2.9005,-2.9005,-2.9207,-2.9464,-2.9115,-2.928,-2.9684,-1.0868,0.0,0.0,0.0,-1.3497,-1.4916,-1.677,-1.9511,-2.116,-2.0563,0.0,0.0,-2.2842,-2.3241,0.0,0.0,-2.364,-2.2558,0.0,0.0,-1.8264,-1.7075,-1.5408,0.0,0.0,-1.2365,0.0,0.0,-1.0072,0.0,0.0,0.0,-1.1874,-1.4029,0.0,-1.7402,-2.0076,0.0,0.0,-2.1799,-2.2829,-2.3464,-2.3986,-2.5991,-2.7509,-2.8602,-2.8905,-2.9005,-2.8877,-2.8062,-2.7402,-2.6998,-2.7365,-2.6825,-2.6127,0.0,0.0,0.0,-2.5159,0.0,0.0,0.0,0.0,0.0,0.0,0.0,0.0,0.0,0.0,0.0,0.0,0.0,0.0,0.0,0.0,-2.0158,0.0,-1.92,0.0,0.0,0.0,0.0,-2.3624,-2.2417,-2.2488,-2.4803,-2.2881,-2.2526,-2.4691,-2.5028,-2.5233,-2.5403,-2.6751,-2.7585,-2.7798,-2.8601,-2.9005,-2.9005,-2.9005,-2.9005,-2.9005,-2.9005,-2.9005,-2.9005,-2.9005,-2.9005,-2.9005,-2.9005,-2.9005,-2.9005,-2.9005,-2.9005,-2.9005,-2.9005,-2.9005,-2.904,-1.2151,-1.2928,0.0,0.0,0.0,-1.5964,-1.8106,-1.919,-2.0181,0.0,0.0,0.0,0.0,0.0,0.0,0.0,0.0,-2.5977,-2.4182,0.0,-2.2274,-2.0427,-1.8245,-1.7077,0.0,-1.4731,-1.2741,-1.1147,-1.1019,0.0,0.0,0.0,0.0,0.0,0.0,-1.7506,-1.9048,-2.068,-2.2687,-2.4779,-2.4878,-2.6461,-2.862,0.0,-2.7589,-2.8982,-2.8994,-2.9005,-2.8877,-2.8062,-2.778,-2.7622,-2.6888,-2.7145,0.0,0.0,0.0,0.0,0.0,-2.6539,0.0,-2.4345,0.0,0.0,0.0,0.0,-2.4008,0.0,0.0,0.0,0.0,0.0,-2.3201,-2.0731,0.0,0.0,0.0,0.0,0.0,0.0,0.0,0.0,0.0,-2.0573,-2.0515,-2.3898,-2.1617,-2.1445,-2.4634,-2.4637,-2.4791,-2.5384,-2.6209,-2.7016,-2.7787,-2.8601,-2.9005,-2.9005,-2.9005,-2.9005,-2.9005,-2.9005,-2.9005,-2.9005,-2.9005,-2.9005,-2.9005,-2.9005,-2.9005,-2.9005,-2.9005,-2.9005,-2.9005,-2.9005,-2.9005,-2.9005,0.0,0.0,0.0,0.0,0.0,-1.6097,-1.8241,-2.035,-2.2098,0.0,0.0,0.0,0.0,-2.7888,-2.8508,0.0,0.0,-2.804,-2.742,-2.5186,0.0,0.0,0.0,-1.9476,0.0,-1.7119,-1.508,-1.3386,-1.2821,0.0,0.0,0.0,0.0,0.0,0.0,-1.8889,0.0,0.0,0.0,0.0,0.0,-2.7233,-2.895,0.0,-2.8528,-2.9005,-2.9005,-2.9005,-2.8968,-2.8693,-2.8246,-2.7842,-2.8106,-2.7629,-2.7053,-2.731,-2.7445,-2.7407,-2.6927,-2.7609,-2.7867,-2.5414,-2.5252,-2.5096,-2.283,0.0,0.0,0.0,0.0,0.0,0.0,0.0,-2.2778,-2.1331,-2.0389,0.0,0.0,0.0,0.0,0.0,0.0,0.0,0.0,0.0,-2.0808,-2.3067,-2.1638,-2.1865,-2.4646,-2.4486,-2.4395,-2.4603,-2.5393,-2.619,-2.6998,-2.7805,-2.8473,-2.9005,-2.9189,-2.9257,-2.9267,-2.9397,-2.9456,-2.9465,-2.9322,-2.9257,-2.9246,-2.9067,-2.9005,-2.9005,-2.9005,-2.9005,-2.9005,-2.9005,-2.9005,-2.9044,-1.6324,0.0,0.0,0.0,0.0,0.0,-1.9109,0.0,0.0,0.0,-2.6004,0.0,-2.9597,0.0,-3.0178,0.0,-3.049,-2.9494,-2.862,-2.6906,0.0,-2.5411,-2.3489,0.0,0.0,0.0,-1.7584,-1.4997,-1.4436,-1.3611,0.0,0.0,0.0,0.0,0.0,0.0,-2.0165,0.0,-2.5004,0.0,0.0,-2.8069,0.0,0.0,-2.9005,-2.9005,-2.9005,-2.9005,-2.9005,-2.9005,-2.8656,-2.8319,-2.884,-2.829,-2.7556,-2.8081,-2.8154,-2.8026,-2.7706,-2.8354,-2.8558,-2.6261,-2.6023,-2.5729,-2.3415,-2.4105,-2.5007,0.0,0.0,0.0,0.0,0.0,-2.299,-2.21,-2.0566,0.0,0.0,-1.6756,0.0,0.0,0.0,0.0,0.0,0.0,-1.9542,-2.2086,-2.0978,-2.1381,-2.4118,-2.4295,-2.4266,-2.4199,-2.497,-2.565,-2.6172,-2.7255,-2.8062,-2.8576,-2.9148,-2.9402,-2.9412,-2.9616,-2.9705,-2.9696,-2.9561,-2.9474,-2.9392,-2.9203,-2.9078,-2.9005,-2.9005,-2.9005,-2.9017,-2.9112,-2.9192,-2.9304,0.0,0.0,0.0,0.0,-1.8255,0.0,0.0,0.0,-2.4754,0.0,-2.7048,-2.8945,-3.0844,-3.0346,-3.0646,-3.2502,-3.1916,-3.0497,-2.8202,-2.8675,0.0,0.0,-2.567,-2.4958,-2.3375,0.0,0.0,0.0,0.0,0.0,0.0,0.0,0.0,0.0,-1.8214,0.0,-1.9804,-2.3725,-2.5495,-2.587,-2.8099,-2.9005,-2.9005,-2.9005,-2.9005,-2.9005,-2.9005,-2.9005,-2.9005,-2.9005,-2.9017,-2.9028,-2.9005,-2.9017,-2.9028,-2.9005,-2.9334,-2.9518,-2.8688,-2.8791,-2.8722,-2.6961,-2.6491,-2.6002,-2.4176,-2.4955,-2.5911,-2.529,-2.5799,0.0,0.0,-2.5856,-2.3918,-2.2951,-2.137,0.0,0.0,0.0,0.0,0.0,0.0,0.0,0.0,0.0,-1.6968,-2.0813,-1.9635,0.0,0.0,-2.3973,-2.4327,-2.4199,-2.4934,-2.5356,-2.5393,-2.6917,-2.7725,-2.7816,-2.8872,-2.9385,-2.9414,-2.9644,-2.9739,-2.9739,-2.9722,-2.9607,-2.9424,-2.9412,-2.9246,-2.9028,-2.9005,-2.8998,-2.9055,-2.931,-2.9532,-2.9739,-1.8757,-1.9693,-2.0721,0.0,-2.1025,-2.1028,0.0,0.0,0.0,0.0,-2.913,-3.0912,-3.2848,-3.2857,-3.2938,-3.3445,-3.2761,0.0,0.0,0.0,0.0,-2.8998,-2.786,-2.7035,-2.6602,-2.4054,0.0,-2.1175,0.0,0.0,-1.5961,0.0,0.0,0.0,0.0,0.0,-1.8987,-2.3232,-2.5735,-2.7,-2.8419,-2.9005,-2.9005,-2.9005,-2.9005,-2.9005,-2.9005,-2.9005,-2.9005,-2.9005,-2.9134,-2.9257,-2.9055,-2.9134,-2.9257,-2.9055,-2.9235,-2.9447,-2.9388,-2.9562,-2.955,-2.8635,-2.7967,-2.7226,-2.6099,-2.6657,-2.7181,-2.6381,-2.736,-2.8057,-2.7115,-2.6409,-2.5274,0.0,0.0,0.0,0.0,0.0,0.0,0.0,0.0,0.0,0.0,-1.6965,-1.8037,-1.8445,-1.9024,-2.051,-2.3151,-2.2792,-2.3014,-2.4153,-2.4392,-2.4805,-2.5393,-2.5815,-2.6623,-2.7816,-2.8418,-2.9051,-2.9644,-3.0049,-3.0215,-3.0208,-3.0011,-2.9893,-2.9821,-2.9523,-2.9361,-2.9278,-2.9078,-2.9217,-2.9504,-2.9434,-2.9532,-2.9739,-2.0478,0.0,0.0,-2.3511,0.0,0.0,-2.4183,-2.5197,0.0,-2.8285,-3.0039,0.0,-3.2619,-3.3385,-3.3807,-3.3807,-3.3385,0.0,-3.2118,0.0,0.0,-3.0228,-2.9329,-2.8686,-2.8338,-2.585,0.0,-2.2483,0.0,0.0,-1.6346,0.0,0.0,0.0,0.0,-1.9247,0.0,-2.3635,-2.6146,-2.7399,-2.8534,-2.9005,0.0,-2.9005,-2.9005,-2.9017,-2.9134,-2.91,-2.9005,-2.9005,-2.9189,-2.9372,-2.9214,-2.9278,-2.9372,-2.9214,-2.9278,-2.9414,-2.9542,-2.9771,-2.9913,-2.9583,-2.9242,-2.8756,-2.789,-2.8068,-2.8299,-2.7794,-2.8165,-2.8396,-2.7794,-2.6774,-2.5192,0.0,0.0,0.0,0.0,0.0,0.0,0.0,-1.843,0.0,-1.414,-1.5853,-1.6927,-1.6396,-1.7678,-1.9212,-2.0926,-2.1844,-2.274,-2.3657,-2.4025,-2.442,-2.4879,-2.5317,-2.6159,-2.7417,-2.7855,-2.8681,-2.9826,-2.9826,-3.0038,-3.0398,-3.0248,-3.0122,-2.9984,-2.9765,-2.9616,-2.9523,-2.9357,-2.9523,-2.9813,-2.9705,-2.9807,-3.0022,-2.239,0.0,0.0,0.0,0.0,0.0,0.0,-2.7221,0.0,-2.9056,0.0,-3.2039,-3.2039,-3.3183,-3.3972,-3.3972,0.0,-3.3201,-3.1819,-3.2375,-3.2087,-3.0577,-3.0522,-3.0099,-2.9189,-2.7482,-2.5181,0.0,0.0,-1.8067,-1.5992,0.0,0.0,0.0,0.0,0.0,0.0,-2.4534,-2.6555,-2.7399,-2.8534,-2.9005,-2.9005,-2.9005,-2.9028,-2.9078,-2.932,-2.9246,-2.9055,-2.9089,-2.9259,-2.9465,-2.9444,-2.9434,-2.9434,-2.9412,-2.9382,-2.9361,-2.9392,-2.967,-2.9969,-2.9999,-3.0202,-3.0192,-2.9429,-2.928,-2.928,-2.928,-2.8698,-2.8415,-2.8992,-2.7024,-2.4538,0.0,0.0,0.0,0.0,0.0,0.0,0.0,0.0,0.0,-1.448,-1.484,-1.5174,-1.4882,-1.6088,-1.7254,-1.8207,-2.0951,-2.2675,-2.3033,-2.3814,-2.4256,-2.4275,-2.5151,-2.5983,-2.6794,-2.7168,-2.8226,-2.9842,-2.9339,-2.9583,-3.0404,-3.0404,-3.0267,-3.0061,-3.0013,-2.9885,-2.9705,-2.9739,-2.9845,-3.0006,-3.0035,-3.0202,-3.0404,0.0,0.0,0.0,0.0,0.0,-2.9507,-3.0332,-3.1653,-3.2619,-3.2842,-3.4367,-3.544,-3.544,-3.5041,-3.4784,-3.4784,-3.4192,0.0,0.0,0.0,0.0,-3.2216,-3.2179,-3.1482,-3.0026,-2.7769,-2.6007,0.0,-2.0427,-1.8096,-1.7638,0.0,0.0,0.0,0.0,0.0,-2.3205,-2.5231,0.0,-2.7399,-2.8534,-2.9005,-2.9005,-2.9005,-2.9145,-2.9341,-2.9382,-2.9372,-2.9361,-2.9523,-2.972,-2.9869,-2.9705,-2.9643,-2.9598,-2.9454,-2.9235,-2.9123,-2.9341,-2.957,-2.9788,-2.9962,-3.0202,-3.0365,-3.0212,-3.0173,-3.0173,-3.0173,-3.0058,-2.9794,-2.9204,-2.7024,-2.4942,-2.3817,0.0,0.0,0.0,0.0,0.0,0.0,0.0,-1.9684,0.0,-1.6486,-1.6276,-1.4776,0.0,-1.6857,-1.8985,-1.9646,-2.0965,-2.318,-2.4035,-2.4537,-2.4693,-2.4874,-2.5352,-2.6164,-2.6398,-2.7382,-2.9003,-2.907,-2.9583,-3.0404,-3.0404,-3.0367,-3.0311,-3.0089,-2.9885,-2.9722,-2.9885,-2.9969,-3.0021,-3.0254,-3.0361,-3.0404,0.0,0.0,0.0,0.0,0.0,0.0,0.0,-3.5018,-3.5734,-3.4027,-3.4504,-3.5,-3.5,-3.5404,-3.5665,-3.5665,-3.4912,-3.4417,-3.4417,-3.4027,-3.3623,-3.3238,-3.2821,-3.2234,-3.1445,-2.9078,-2.7255,-2.6025,-2.1987,-1.9363,-1.8078,-1.6475,0.0,0.0,0.0,-2.1188,0.0,0.0,-2.6731,-2.7399,-2.8534,-2.9005,-2.9005,-2.9005,-2.9178,-2.9404,-2.9523,-2.9616,-2.9713,-2.9705,-2.9829,-2.9984,-2.9893,-2.978,-2.9678,-2.9579,-2.9301,-2.904,-2.9167,-2.9355,-2.9598,-2.9788,-3.0018,-3.0241,-3.0367,-3.0404,-3.0404,-3.0404,-3.0404,-3.0,-2.8723,-2.7101,-2.5538,-2.4166,-2.3328,0.0,0.0,0.0,0.0,0.0,0.0,0.0,0.0,0.0,0.0,0.0,0.0,0.0,-1.7351,-1.8312,-1.997,-2.2442,-2.3368,-2.405,-2.4486,-2.4693,-2.5193,-2.5997,-2.5857,-2.6895,-2.8932,-2.8631,-2.9179,-3.0404,-3.0404,-3.0404,-3.0398,-3.026,-3.0155,-3.0066,-3.0169,-3.0209,-3.0215,-3.0355,-3.0404,-3.0373,0.0,-3.0852,0.0,0.0,-3.3788,-3.5279,-3.5279,-3.7224,-3.7771,-3.5183,-3.4835,-3.4835,-3.4835,-3.5862,-3.656,-3.656,-3.5771,-3.5279,-3.5279,-3.4523,-3.4064,-3.4064,-3.328,-3.2766,-3.2601,-3.0564,-2.8638,-2.6851,-2.3804,-2.1133,-1.8867,-1.7869,-1.7154,-1.6848,-1.9924,-2.2766,-2.5339,-2.6589,-2.7517,-2.8227,-2.896,-2.9262,-2.9244,-2.9078,-2.9192,-2.9474,-2.9634,-2.988,-3.0061,-2.9904,-2.9958,-3.0075,-3.0013,-2.9861,-2.9696,-2.9643,-2.9334,-2.9005,-2.9005,-2.9235,-2.9504,-2.9661,-2.9885,-3.0143,-3.0355,-3.0404,-3.0404,-3.0404,-3.025,-2.9615,-2.7928,-2.7063,-2.6065,-2.44,-2.4115,0.0,0.0,0.0,0.0,0.0,0.0,0.0,-1.6699,0.0,0.0,0.0,0.0,0.0,-1.5894,-1.746,-1.9428,-2.1826,-2.2797,-2.3563,-2.4175,-2.4666,-2.5219,-2.5844,-2.5491,-2.6538,-2.8819,-2.8184,-2.8813,-3.0404,-3.0404,-3.0404,-3.0404,-3.0404,-3.0404,-3.0404,-3.0404,-3.0404,-3.0404,-3.0404,-3.0404,-3.0361,0.0,0.0,0.0,0.0,0.0,-3.6174,-3.6174,-3.7606,-3.8597,-3.8285,-3.8248,-3.8248,-3.8248,-3.7716,-3.7382,-3.7382,-3.6652,-3.6174,-3.6174,-3.5371,-3.4894,-3.4894,-3.4105,-3.3348,-3.2619,-3.1659,-3.0038,0.0,0.0,-2.3116,-2.1427,-1.9829,-1.9418,-2.0162,-2.2721,-2.4812,-2.6533,-2.8113,-2.9635,-3.0956,-3.0344,-3.0099,-3.0008,-2.928,-2.9272,-2.967,-2.9696,-2.9992,-3.0361,-3.0343,-3.0349,-3.0317,-3.0075,-2.9861,-2.9661,-2.9474,-2.9225,-2.9005,-2.9005,-2.9334,-2.9678,-2.9696,-3.003,-3.0367,-3.0398,-3.0404,-3.0404,-3.0404,-2.9775,-2.8703,-2.7024,-2.6659,-2.6288,-2.5331,-2.4558,0.0,0.0,0.0,0.0,0.0,0.0,0.0,0.0,-1.5864,0.0,0.0,-1.4426,-1.5166,-1.6707,-1.7633,-1.9395,-2.2164,-2.3046,-2.3683,-2.411,-2.4878,-2.5287,-2.5364,-2.5312,-2.625,-2.8011,-2.7934,-2.8813,-3.0404,-3.0404,-3.0404,-3.0404,-3.0404,-3.0404,-3.0404,-3.0404,-3.0404,-3.0404,-3.0404,-3.0404,-3.0361,0.0,0.0,-3.4853,-3.5858,-3.6174,-3.6633,-3.7588,-3.8285,-3.8707,-3.8707,-3.8707,-3.8707,-3.8707,-3.8414,-3.8212,-3.8212,-3.7477,-3.7015,-3.7015,-3.6248,-3.5789,-3.5789,-3.4968,-3.4362,-3.405,-3.2779,-3.1403,0.0,-2.7053,-2.4814,-2.3226,-2.2061,-2.2208,-2.3511,-2.4979,-2.6528,-2.8106,-2.9244,-3.0375,-3.1378,-3.1048,-3.0907,-3.0889,-3.0558,-3.0753,-3.1204,-3.1204,-3.1492,-3.191,-3.191,-3.1231,-3.0355,-3.0082,-2.9861,-2.9661,-2.9464,-2.9203,-2.9005,-2.9005,-2.9249,-2.9561,-2.967,-2.9994,-3.0317,-3.0423,-3.0462,-3.0462,-3.0462,-2.9725,-2.8588,-2.6909,-2.6601,-2.6287,-2.528,-2.495,-2.4879,0.0,0.0,0.0,0.0,0.0,0.0,0.0,0.0,0.0,0.0,0.0,-1.3674,-1.5368,-1.687,-1.8589,-2.0618,-2.2622,-2.3701,-2.3744,-2.4664,-2.5111,-2.5116,-2.5234,-2.5942,-2.714,-2.7659,-2.8813,-3.0404,-3.0404,-3.0404,-3.0404,-3.0404,-3.0404,-3.0404,-3.0404,-3.0404,-3.0404,-3.0404,-3.0404,-3.0373,-3.7312,-3.6872,-3.6876,-3.8303,-3.7881,-3.7734,-3.8872,-3.8854,-3.8707,-3.8707,-3.8707,-3.8707,-3.8707,-3.8707,-3.8707,-3.8707,-3.8175,-3.786,-3.786,-3.7107,-3.6652,-3.6652,-3.5591,-3.5004,-3.5004,-3.3665,-3.2559,-3.1751,-2.9237,-2.731,-2.5952,-2.5134,-2.5383,-2.6494,-2.731,-2.8429,-2.9769,-3.0558,-3.1366,-3.2082,-3.1843,-3.1751,-3.1733,-3.1488,-3.1693,-3.2079,-3.2166,-3.245,-3.28,-3.2872,-3.2122,-3.1079,-3.0742,-3.0389,-3.0028,-2.9727,-2.9341,-2.9005,-2.9005,-2.9246,-2.9523,-2.9661,-2.9999,-3.033,-3.0461,-3.0524,-3.0385,-2.9872,-2.9226,-2.8242,-2.6524,-2.6212,-2.5974,-2.5201,-2.5208,-2.5259,0.0,-2.4302,0.0,0.0,-2.1681,-2.0376,-1.9166,-1.8051,0.0,0.0,0.0,-1.4584,-1.6251,-1.7211,-1.8658,-2.0778,-2.2765,-2.3768,-2.3689,-2.461,-2.5088,-2.5094,-2.5224,-2.5769,-2.664,-2.7755,-2.9044,-3.0404,-3.0404,-3.0404,-3.0404,-3.0404,-3.0404,-3.0404,-3.0404,-3.0404,-3.0404,-3.0404,-3.0404,-3.0404,-3.9698,-3.9845,-4.0102,-4.0912,-4.0396,-3.9845,-3.9879,-3.9203,-3.8707,-3.8707,-3.8707,-3.8707,-3.8707,-3.8707,-3.8707,-3.8707,-3.8689,-3.8689,-3.8689,-3.7933,-3.7492,-3.7492,-3.5899,-3.5004,-3.5004,-3.4197,-3.3385,-3.2583,-3.1751,-3.0925,-3.0118,-2.9299,-2.895,-2.8987,-2.9806,-3.0613,-3.1415,-3.2228,-3.3036,-3.3697,-3.2913,-3.2583,-3.2491,-3.1696,-3.1572,-3.1837,-3.2099,-3.2339,-3.2546,-3.2813,-3.2891,-3.2794,-3.2329,-3.1637,-3.0885,-3.0353,-2.9641,-2.9005,-2.9005,-2.9336,-2.9696,-2.9705,-3.0094,-3.0498,-3.0498,-3.054,-3.0115,-2.8381,-2.7971,-2.7371,-2.5635,-2.5327,-2.5308,-2.5303,-2.5303,-2.5308,-2.5303,-2.387,0.0,-2.2888,-2.061,-1.9258,-1.9826,-1.8383,0.0,0.0,0.0,-1.909,-2.0632,-1.9239,-2.0037,-2.3646,-2.3782,-2.3891,-2.4086,-2.4885,-2.5303,-2.5303,-2.5303,-2.5769,-2.6659,-2.8338,-2.9563,-3.0404,-3.0404,-3.0404,-3.0404,-3.0404,-3.0404,-3.0404,-3.0404,-3.0404,-3.0404,-3.0404,-3.0404,-3.0404,-4.0671,-4.0726,-4.0799,-4.1058,-4.0875,-4.0726,-4.0726,-4.049,-4.0325,-4.0325,-4.0325,-4.0139,-3.957,-3.9038,-3.8707,-3.8707,-3.8707,-3.8707,-3.8707,-3.8469,-3.8322,-3.8322,-3.7276,-3.6688,-3.6688,-3.533,-3.4491,-3.4234,-3.2339,-3.0993,-3.0191,-2.9953,-3.0118,-3.0668,-3.1476,-3.1977,-3.2284,-3.3091,-3.3568,-3.377,-3.3532,-3.3421,-3.3385,-3.3128,-3.3204,-3.3489,-3.3782,-3.4064,-3.4309,-3.4573,-3.4673,-3.4613,-3.4276,-3.3089,-3.1648,-3.0735,-3.0157,-2.9702,-2.9152,-2.9336,-2.9705,-2.9705,-3.0137,-3.0565,-3.0565,-3.0584,-3.0118,-2.8361,-2.7952,-2.7371,-2.5615,-2.5308,-2.5308,-2.5308,-2.5308,-2.5259,-2.5111,0.0,-2.3553,-2.3589,-2.2312,-2.1532,-2.1721,-2.0766,0.0,0.0,0.0,-1.886,-1.9339,-2.0576,-2.1545,-2.2147,-2.3898,-2.4586,-2.411,-2.4909,-2.5308,-2.5308,-2.5308,-2.6077,-2.7525,-2.8607,-2.9583,-3.0404,-3.0404,-3.0404,-3.0404,-3.0404,-3.0404,-3.0404,-3.0404,-3.0404,-3.0404,-3.0404,-3.0404,-3.0404,-4.2011,-4.2011,-4.2011,-4.2011,-4.1754,-4.1535,-4.1535,-4.1279,-4.1095,-4.1095,-4.1095,-4.0912,-4.0414,-3.9625,-3.9038,-3.8726,-3.8707,-3.8707,-3.8707,-3.8707,-3.8707,-3.8707,-3.7933,-3.7492,-3.7492,-3.6174,-3.5481,-3.5481,-3.366,-3.2339,-3.1549,-3.1549,-3.1825,-3.232,-3.2834,-3.3041,-3.3091,-3.3587,-3.3807,-3.3807,-3.3807,-3.3807,-3.3807,-3.3807,-3.3961,-3.4235,-3.4572,-3.4879,-3.5138,-3.5417,-3.55,-3.546,-3.5304,-3.4355,-3.3062,-3.1965,-3.1312,-3.079,-2.997,-3.002,-3.0219,-2.9888,-3.0219,-3.0611,-3.0641,-3.0625,-3.0118,-2.8361,-2.7952,-2.7371,-2.5615,-2.5308,-2.5308,-2.5308,-2.5308,-2.5259,-2.5141,-2.4394,-2.3849,0.0,0.0,-2.2546,-2.2496,-2.2446,-2.2545,-2.2842,0.0,-2.1182,-2.1177,-2.1799,-2.2374,-2.2853,-2.4457,-2.5058,-2.4567,-2.5066,-2.5335,-2.5335,-2.5335,-2.6241,-2.7915,-2.8415,-2.9294,-3.0404,-3.0404,-3.0404,-3.0404,-3.0404,-3.0404,-3.0404,-3.0404,-3.0404,-3.0404,-3.0404,-3.0404,-3.0404,-4.3515,-4.3515,-4.3515,-4.3515,-4.2873,-4.2378,-4.2378,-4.1754,-4.126,-4.126,-4.126,-4.1242,-4.1187,-4.0524,-3.9735,-3.8946,-3.8762,-3.8707,-3.8707,-3.8707,-3.8707,-3.8707,-3.7988,-3.7584,-3.7584,-3.6813,-3.6358,-3.6303,-3.5481,-3.4674,-3.388,-3.388,-3.3844,-3.3807,-3.3807,-3.3807,-3.3807,-3.3807,-3.3807,-3.3807,-3.3807,-3.3807,-3.3788,-3.3815,-3.3986,-3.4253,-3.4593,-3.4898,-3.5138,-3.5417,-3.55,-3.55,-3.55,-3.532,-3.4897,-3.3752,-3.2883,-3.2108,-3.1297,-3.1187,-3.1108,-3.0292,-3.0341,-3.0625,-3.0686,-3.0655,-3.0118,-2.8439,-2.7991,-2.739,-2.5692,-2.5346,-2.5308,-2.5308,-2.5308,-2.5279,-2.5264,-2.4457,-2.3869,-2.3857,-2.3135,-2.2594,-2.2495,-2.352,-2.4068,-2.384,-2.4686,-2.5221,-2.5212,-2.2916,-2.2738,-2.5226,-2.5308,-2.5293,-2.5317,-2.5371,-2.5398,-2.5398,-2.5515,-2.6406,-2.7895,-2.803,-2.8929,-3.0404,-3.0404,-3.0404,-3.0404,-3.0404,-3.0404,-3.0404,-3.0404,-3.0404,-3.0404,-3.0404,-3.0404,-3.0404,-4.3515,-4.3515,-4.3515,-4.3515,-4.3332,-4.3222,-4.3222,-4.3039,-4.2928,-4.2928,-4.2928,-4.269,-4.2084,-4.1846,-4.1405,-4.06,-3.9407,-3.8707,-3.8707,-3.8707,-3.8707,-3.8707,-3.8524,-3.8414,-3.8414,-3.7639,-3.6923,-3.6303,-3.6083,-3.555,-3.4729,-3.4729,-3.438,-3.3807,-3.3807,-3.3807,-3.3807,-3.3807,-3.3807,-3.3807,-3.3807,-3.3807,-3.3815,-3.4018,-3.4147,-3.4269,-3.4803,-3.5053,-3.5138,-3.5417,-3.55,-3.55,-3.55,-3.5453,-3.517,-3.4034,-3.3437,-3.294,-3.2137,-3.1613,-3.1241,-3.1051,-3.0785,-3.0625,-3.0686,-3.0655,-3.027,-2.9152,-2.8377,-2.7563,-2.6486,-2.575,-2.5308,-2.5308,-2.5308,-2.5217,-2.4942,-2.4718,-2.4502,-2.4346,-2.4155,-2.411,-2.4341,-2.4664,-2.4635,-2.4072,-2.4295,-2.4432,-2.4399,-2.3803,-2.4029,-2.5269,-2.5308,-2.5312,-2.5379,-2.5395,-2.5409,-2.5429,-2.6753,-2.7565,-2.7934,-2.9217,-3.0019,-3.0404,-3.0404,-3.0404,-3.0404,-3.0404,-3.0404,-3.0404,-3.0404,-3.0404,-3.0404,-3.0404,-3.0404,-3.0404,-4.3515,-4.3515,-4.3548,-4.3693,-4.3726,-4.3788,-4.3958,-4.3989,-4.3946,-4.3758,-4.3726,-4.3513,-4.2909,-4.2525,-4.2121,-4.1682,-4.0508,-3.9643,-3.9276,-3.9239,-3.9074,-3.8726,-3.8707,-3.8707,-3.8707,-3.8267,-3.7658,-3.685,-3.685,-3.6413,-3.5591,-3.5591,-3.5151,-3.4344,-3.4344,-3.4137,-3.3807,-3.3807,-3.3807,-3.3807,-3.3807,-3.3863,-3.4012,-3.4147,-3.4371,-3.4656,-3.4971,-3.5182,-3.5304,-3.5446,-3.55,-3.55,-3.55,-3.55,-3.539,-3.4767,-3.4461,-3.4181,-3.3339,-3.2875,-3.2452,-3.1719,-3.1047,-3.0561,-3.0609,-3.0581,-3.0285,-2.9342,-2.8487,-2.7621,-2.6755,-2.5885,-2.5308,-2.5308,-2.5308,-2.5238,-2.5043,-2.4955,-2.4823,-2.4662,-2.4631,-2.4704,-2.4891,-2.5002,-2.4951,-2.4716,-2.4694,-2.4698,-2.469,-2.469,-2.4898,-2.5333,-2.5352,-2.5387,-2.5444,-2.5485,-2.5488,-2.5453,-2.6414,-2.7229,-2.7934,-2.8832,-2.9673,-3.0404,-3.0404,-3.0404,-3.0404,-3.0404,-3.0404,-3.0404,-3.0404,-3.0404,-3.0404,-3.0404,-3.0404,-3.0404,-4.3582,-4.358,-4.3677,-4.4031,-4.4087,-4.4204,-4.454,-4.4593,-4.446,-4.4043,-4.4001,-4.3865,-4.3531,-4.2892,-4.2488,-4.2488,-4.1754,-4.0891,-3.9955,-3.979,-3.9405,-3.8726,-3.8707,-3.8707,-3.8707,-3.8707,-3.8377,-3.7676,-3.7676,-3.7272,-3.6468,-3.6468,-3.6028,-3.5206,-3.5206,-3.4821,-3.4174,-3.4174,-3.4127,-3.4052,-3.4052,-3.4148,-3.4288,-3.4315,-3.4656,-3.5105,-3.5157,-3.5304,-3.55,-3.55,-3.55,-3.55,-3.55,-3.55,-3.55,-3.55,-3.55,-3.5346,-3.4603,-3.4205,-3.3647,-3.2169,-3.1137,-3.0498,-3.0498,-3.0498,-3.0273,-2.9462,-2.8646,-2.7818,-2.6967,-2.6077,-2.5442,-2.5327,-2.5308,-2.5298,-2.5264,-2.5105,-2.4937,-2.4763,-2.4753,-2.4768,-2.4797,-2.4911,-2.5091,-2.5387,-2.535,-2.5354,-2.5408,-2.5415,-2.5415,-2.5421,-2.5431,-2.5447,-2.5505,-2.5572,-2.5588,-2.5491,-2.5625,-2.6394,-2.7717,-2.7972,-2.8852,-3.0212,-3.0346,-3.0404,-3.0404,-3.0404,-3.0404,-3.0404,-3.0404,-3.0404,-3.0404,-3.0404,-3.0404,-3.0404,-4.3865,-4.3924,-4.4046,-4.4447,-4.4514,-4.4527,-4.458,-4.4593,-4.446,-4.4043,-4.4001,-4.3865,-4.3531,-4.3404,-4.3296,-4.3296,-4.258,-4.1479,-3.9992,-3.9258,-3.8836,-3.8707,-3.8707,-3.8707,-3.8707,-3.8707,-3.8634,-3.8505,-3.8505,-3.8102,-3.7309,-3.7309,-3.6886,-3.6101,-3.6101,-3.6028,-3.5899,-3.5899,-3.5657,-3.5244,-3.5244,-3.4988,-3.4653,-3.4879,-3.5016,-3.5122,-3.5361,-3.546,-3.55,-3.55,-3.55,-3.55,-3.55,-3.55,-3.55,-3.55,-3.55,-3.5462,-3.5327,-3.4218,-3.289,-3.2014,-3.1137,-3.0498,-3.0498,-3.0498,-3.0448,-3.0246,-2.9506,-2.8665,-2.7857,-2.6986,-2.6154,-2.5423,-2.5308,-2.5229,-2.5077,-2.5022,-2.4891,-2.4583,-2.4553,-2.4607,-2.4782,-2.4828,-2.4995,-2.5375,-2.5447,-2.5463,-2.5476,-2.5476,-2.55,-2.5563,-2.5503,-2.5524,-2.5573,-2.5658,-2.561,-2.551,-2.624,-2.6678,-2.6851,-2.828,-2.9069,-2.9338,-3.0077,-3.0404,-3.0404,-3.0404,-3.0404,-3.0404,-3.0404,-3.0404,-3.0404,-3.0404,-3.0404,-3.0404,-4.4266,-4.4204,-4.4276,-4.4781,-4.4806,-4.4853,-4.5107,-4.4988,-4.4732,-4.4359,-4.4132,-4.3865,-4.3531,-4.3515,-4.3515,-4.3515,-4.2378,-4.135,-4.0598,-3.979,-3.9148,-3.8726,-3.8707,-3.8707,-3.8707,-3.8707,-3.8707,-3.8707,-3.8707,-3.8505,-3.8138,-3.8138,-3.7716,-3.696,-3.696,-3.6707,-3.6299,-3.6454,-3.6369,-3.6162,-3.6346,-3.6346,-3.6226,-3.587,-3.5848,-3.5921,-3.5607,-3.55,-3.55,-3.55,-3.55,-3.55,-3.55,-3.55,-3.55,-3.55,-3.55,-3.55,-3.55,-3.4231,-3.2814,-3.248,-3.1416,-3.0451,-3.0451,-3.0451,-3.043,-3.0416,-2.9717,-2.8992,-2.8607,-2.7486,-2.6621,-2.6697,-2.5904,-2.5422,-2.5806,-2.5369,-2.4917,-2.4693,-2.4662,-2.47,-2.479,-2.4891,-2.5106,-2.5431,-2.5473,-2.5524,-2.5554,-2.5554,-2.5564,-2.5601,-2.5604,-2.5611,-2.5659,-2.5658,-2.5599,-2.5491,-2.5873,-2.6238,-2.664,-2.739,-2.8261,-2.9127,-2.9525,-2.9967,-3.0404,-3.0404,-3.0404,-3.0404,-3.0404,-3.0404,-3.0404,-3.0404,-3.0404,-3.0404,-4.4644,-4.4548,-4.4587,-4.5118,-4.512,-4.5152,-4.5438,-4.5272,-4.4943,-4.4527,-4.419,-4.3865,-4.3531,-4.3515,-4.3515,-4.3515,-4.2029,-4.1095,-4.1095,-4.0175,-3.935,-3.8726,-3.8707,-3.8707,-3.8707,-3.8707,-3.8707,-3.8707,-3.8707,-3.8707,-3.8707,-3.8707,-3.8377,-3.7786,-3.7786,-3.7463,-3.6956,-3.7169,-3.7237,-3.7207,-3.7484,-3.7614,-3.7632,-3.6954,-3.6699,-3.6615,-3.6,-3.5654,-3.55,-3.55,-3.55,-3.55,-3.55,-3.55,-3.55,-3.55,-3.55,-3.55,-3.55,-3.4391,-3.3141,-3.2949,-3.1795,-3.0654,-3.0442,-3.0404,-3.0404,-3.0404,-2.9871,-2.9338,-2.9146,-2.8044,-2.7274,-2.7544,-2.6486,-2.5769,-2.6231,-2.559,-2.4998,-2.4869,-2.4849,-2.4849,-2.4849,-2.4998,-2.5204,-2.5481,-2.5505,-2.5554,-2.5629,-2.5611,-2.5611,-2.5611,-2.5662,-2.5703,-2.5703,-2.5658,-2.5572,-2.5491,-2.545,-2.5732,-2.6338,-2.653,-2.734,-2.8553,-2.8777,-2.9249,-2.9833,-2.9833,-2.9949,-3.0117,-3.0108,-3.0212,-3.0404,-3.0404,-3.0404,-3.0404,-4.5007,-4.5052,-4.514,-4.5504,-4.554,-4.5467,-4.518,-4.5126,-4.4842,-4.4132,-4.4031,-4.3865,-4.3531,-4.3515,-4.3515,-4.3515,-4.2029,-4.1095,-4.1095,-3.9662,-3.8762,-3.8707,-3.8707,-3.8707,-3.8707,-3.8707,-3.8707,-3.8707,-3.8707,-3.8707,-3.8707,-3.8707,-3.867,-3.8615,-3.8615,-3.8715,-3.8885,-3.8912,-3.8818,-3.8661,-3.868,-3.8397,-3.7966,-3.7889,-3.7397,-3.6692,-3.6635,-3.6135,-3.55,-3.55,-3.55,-3.55,-3.55,-3.55,-3.55,-3.55,-3.55,-3.55,-3.55,-3.4814,-3.3917,-3.3103,-3.2256,-3.1385,-3.0577,-3.0404,-3.0404,-3.0404,-3.0346,-3.0058,-2.9242,-2.8992,-2.8434,-2.6948,-2.6582,-2.6231,-2.55,-2.5336,-2.5208,-2.501,-2.4992,-2.4992,-2.4992,-2.5058,-2.5204,-2.5481,-2.5558,-2.561,-2.5683,-2.5683,-2.5683,-2.5683,-2.5703,-2.5703,-2.5703,-2.5703,-2.5633,-2.5491,-2.5486,-2.5485,-2.5515,-2.632,-2.6757,-2.6939,-2.7796,-2.817,-2.8184,-2.8184,-2.8629,-2.9273,-2.9228,-2.9698,-3.0404,-3.0404,-3.0404,-3.0404,-4.5342,-4.541,-4.5448,-4.5577,-4.5594,-4.5495,-4.514,-4.4919,-4.4587,-4.4058,-4.382,-4.3726,-4.3804,-4.382,-4.3912,-4.4169,-4.2486,-4.163,-4.2131,-4.0443,-3.9221,-3.8726,-3.8707,-3.8707,-3.8707,-3.8707,-3.8707,-3.8707,-3.8707,-3.8707,-3.8707,-3.8707,-3.8707,-3.8707,-3.8869,-3.8994,-3.9139,-3.9534,-3.968,-3.9633,-3.9789,-3.9725,-3.9496,-3.8988,-3.8604,-3.8238,-3.77,-3.6962,-3.6231,-3.6231,-3.5904,-3.55,-3.55,-3.55,-3.55,-3.55,-3.55,-3.55,-3.55,-3.4853,-3.3994,-3.3122,-3.2295,-3.1468,-3.0596,-3.0404,-3.0404,-3.0404,-3.0404,-3.0308,-2.9967,-2.9467,-2.9069,-2.8962,-2.8082,-2.7467,-2.7621,-2.6642,-2.5885,-2.5812,-2.5329,-2.5027,-2.5058,-2.5232,-2.5413,-2.5556,-2.5611,-2.5662,-2.5703,-2.5703,-2.5703,-2.5703,-2.5703,-2.5703,-2.5703,-2.566,-2.5607,-2.5559,-2.5529,-2.5498,-2.5471,-2.5798,-2.6259,-2.6777,-2.7134,-2.787,-2.8777,-2.8265,-2.8851,-3.0003,-2.9439,-2.9735,-3.0467,-3.0467,-3.0449,-3.0404,-4.554,-4.5594,-4.5594,-4.5594,-4.5594,-4.5448,-4.5,-4.4751,-4.4419,-4.3912,-4.3742,-4.374,-4.3971,-4.4102,-4.429,-4.4567,-4.2987,-4.2201,-4.276,-4.0979,-3.9643,-3.9093,-3.8836,-3.8707,-3.8707,-3.8707,-3.8707,-3.8707,-3.8707,-3.8707,-3.8707,-3.8707,-3.8707,-3.8704,-3.8971,-3.9165,-3.9289,-3.987,-4.0148,-4.0232,-4.0433,-4.0496,-4.0439,-3.99,-3.9515,-3.9215,-3.8656,-3.7872,-3.711,-3.7153,-3.6594,-3.5885,-3.5885,-3.5692,-3.55,-3.55,-3.55,-3.55,-3.55,-3.5064,-3.4391,-3.3526,-3.2699,-3.1852,-3.1,-3.0596,-3.0404,-3.0404,-3.0404,-3.0404,-3.0404,-2.991,-2.9602,-2.9948,-2.9025,-2.8376,-2.8684,-2.762,-2.6802,-2.6802,-2.6037,-2.5521,-2.5577,-2.5534,-2.5529,-2.5563,-2.5658,-2.5703,-2.5703,-2.5703,-2.5703,-2.5703,-2.5703,-2.5703,-2.5703,-2.5659,-2.563,-2.5601,-2.5554,-2.5539,-2.5539,-2.5539,-2.5866,-2.6424,-2.6441,-2.7102,-2.8097,-2.7549,-2.8311,-2.9776,-2.9166,-2.957,-3.0533,-3.0533,-3.0495,-3.0425,-4.5594,-4.5594,-4.5594,-4.5594,-4.5594,-4.5371,-4.4695,-4.4593,-4.4337,-4.3615,-4.3788,-4.4001,-4.3998,-4.4359,-4.4593,-4.4624,-4.3493,-4.2797,-4.2797,-4.0979,-3.9916,-3.9916,-3.9129,-3.8707,-3.8707,-3.8707,-3.8707,-3.8707,-3.8707,-3.8707,-3.8707,-3.8707,-3.8707,-3.8704,-3.8985,-3.9289,-3.9622,-3.9953,-4.0269,-4.0496,-4.0496,-4.0496,-4.0496,-4.0496,-4.0015,-3.9314,-3.9379,-3.8813,-3.8024,-3.8166,-3.7532,-3.6692,-3.6692,-3.6135,-3.55,-3.55,-3.55,-3.55,-3.55,-3.55,-3.5288,-3.441,-3.3545,-3.2699,-3.1891,-3.1019,-3.0404,-3.0404,-3.0404,-3.0404,-3.0404,-3.0404,-3.0115,-2.9261,-2.9107,-2.8838,-2.803,-2.7915,-2.7915,-2.7915,-2.714,-2.6621,-2.6601,-2.5957,-2.551,-2.551,-2.5631,-2.5703,-2.5703,-2.5703,-2.5703,-2.5703,-2.5703,-2.5703,-2.5703,-2.5703,-2.5661,-2.5602,-2.5602,-2.5602,-2.5602,-2.5602,-2.5602,-2.5603,-2.5662,-2.5661,-2.5602,-2.5602,-2.6635,-2.821,-2.8138,-2.9124,-3.0606,-3.0606,-3.0551,-3.0516,-4.5594,-4.5594,-4.5594,-4.5594,-4.5594,-4.5371,-4.4695,-4.4593,-4.4337,-4.3615,-4.3788,-4.4102,-4.4392,-4.4732,-4.5052,-4.5273,-4.4241,-4.3353,-4.2827,-4.1514,-4.0744,-4.0744,-3.9441,-3.8707,-3.8707,-3.8707,-3.8707,-3.8707,-3.8707,-3.8707,-3.8707,-3.8707,-3.8707,-3.8719,-3.9223,-3.9517,-3.9634,-4.0167,-4.0433,-4.0496,-4.0496,-4.0496,-4.0512,-4.0603,-4.0494,-4.0281,-4.0359,-3.9781,-3.8986,-3.9032,-3.7996,-3.6596,-3.6038,-3.5692,-3.55,-3.55,-3.55,-3.55,-3.55,-3.55,-3.5288,-3.441,-3.3545,-3.2699,-3.1891,-3.1019,-3.0404,-3.0404,-3.0404,-3.0404,-3.0404,-3.0404,-3.0308,-3.0038,-3.0,-2.9923,-2.9692,-2.9121,-2.8742,-2.8742,-2.8011,-2.7522,-2.7584,-2.7427,-2.7335,-2.7394,-2.6908,-2.6348,-2.5723,-2.5703,-2.5703,-2.5703,-2.5703,-2.5703,-2.5703,-2.5703,-2.5683,-2.5662,-2.5662,-2.5662,-2.5662,-2.5662,-2.5662,-2.5662,-2.5683,-2.6035,-2.6521,-2.5916,-2.7068,-2.9118,-2.8489,-2.9235,-3.0675,-3.0675,-3.0636,-3.0571,-4.5594,-4.5594,-4.5594,-4.5594,-4.5594,-4.5419,-4.4884,-4.48,-4.4593,-4.4004,-4.4237,-4.4535,-4.4769,-4.5096,-4.539,-4.5577,-4.4723,-4.3787,-4.286,-4.172,-4.0948,-4.0653,-3.9386,-3.8707,-3.8707,-3.8707,-3.8707,-3.8707,-3.8707,-3.8707,-3.8707,-3.8707,-3.8747,-3.8884,-3.9371,-3.9668,-3.9829,-4.0302,-4.0496,-4.0496,-4.0496,-4.0523,-4.0602,-4.0661,-4.0718,-4.0747,-4.0843,-4.0457,-3.9921,-3.9941,-3.8721,-3.7065,-3.6231,-3.575,-3.55,-3.55,-3.55,-3.55,-3.55,-3.55,-3.5386,-3.4879,-3.4077,-3.3199,-3.2352,-3.1525,-3.0827,-3.0462,-3.0417,-3.0439,-3.0396,-3.0417,-3.0439,-3.0396,-3.0404,-3.0404,-3.0404,-2.9948,-2.9602,-2.9602,-2.8871,-2.841,-2.8468,-2.8259,-2.813,-2.8229,-2.7791,-2.7285,-2.6758,-2.6406,-2.6211,-2.6211,-2.5879,-2.5703,-2.5703,-2.5703,-2.5703,-2.5703,-2.5703,-2.5703,-2.5703,-2.5703,-2.5703,-2.5703,-2.5703,-2.5996,-2.6445,-2.5918,-2.6836,-2.8555,-2.8379,-2.9119,-3.0302,-3.0654,-3.0711,-3.065,-4.5594,-4.5594,-4.5594,-4.5594,-4.5594,-4.5495,-4.514,-4.5096,-4.4977,-4.4631,-4.4896,-4.5096,-4.5096,-4.54,-4.5594,-4.5594,-4.5011,-4.418,-4.3019,-4.1819,-4.0795,-4.0029,-3.9166,-3.8707,-3.8707,-3.8707,-3.8707,-3.8707,-3.8707,-3.8707,-3.8707,-3.8719,-3.8869,-3.9125,-3.9474,-3.9808,-4.012,-4.0381,-4.0496,-4.0496,-4.0496,-4.0588,-4.0697,-4.0715,-4.0747,-4.0847,-4.0964,-4.0873,-4.0699,-4.0684,-3.9528,-3.795,-3.6966,-3.6178,-3.5596,-3.5479,-3.5486,-3.55,-3.55,-3.55,-3.5502,-3.5577,-3.494,-3.409,-3.3224,-3.2338,-3.1486,-3.0679,-3.0505,-3.0486,-3.0411,-3.0457,-3.0482,-3.0431,-3.039,-3.0404,-3.0404,-3.0404,-3.0404,-3.0404,-2.969,-2.9254,-2.9313,-2.8716,-2.8365,-2.8418,-2.8418,-2.8379,-2.8301,-2.7461,-2.6992,-2.6992,-2.6152,-2.5703,-2.5703,-2.5703,-2.5703,-2.5703,-2.5703,-2.5703,-2.5703,-2.5703,-2.5703,-2.5703,-2.5703,-2.5703,-2.5703,-2.5703,-2.6211,-2.707,-2.7871,-2.8769,-2.9707,-3.0488,-3.0758,-3.0743,-4.5594,-4.5594,-4.5594,-4.5594,-4.5594,-4.5495,-4.514,-4.5096,-4.4977,-4.4631,-4.4896,-4.5096,-4.5096,-4.54,-4.5594,-4.5594,-4.5232,-4.4773,-4.4237,-4.2492,-4.1307,-4.0855,-3.9478,-3.8707,-3.8707,-3.8707,-3.8707,-3.8707,-3.8707,-3.8707,-3.8707,-3.8923,-3.9049,-3.9139,-3.9712,-4.0022,-4.012,-4.0381,-4.0496,-4.0496,-4.0496,-4.0588,-4.0709,-4.0767,-4.0847,-4.0966,-4.1105,-4.099,-4.066,-3.9888,-3.935,-3.8716,-3.6938,-3.6401,-3.626,-3.543,-3.5346,-3.55,-3.55,-3.55,-3.5507,-3.5509,-3.5403,-3.5065,-3.4195,-3.2851,-3.1705,-3.1478,-3.093,-3.0494,-3.0486,-3.0481,-3.049,-3.0482,-3.0425,-3.0404,-3.0404,-3.0404,-3.0404,-3.0404,-3.0278,-3.0201,-3.0227,-3.0169,-2.9901,-2.9355,-2.9316,-2.9023,-2.834,-2.7461,-2.6992,-2.6992,-2.6152,-2.5703,-2.5703,-2.5703,-2.5703,-2.5703,-2.5703,-2.5703,-2.5703,-2.5703,-2.5703,-2.5703,-2.5703,-2.5703,-2.5703,-2.5703,-2.6211,-2.7012,-2.7207,-2.8223,-2.9629,-2.9805,-3.0293,-3.0858,-4.5594,-4.5594,-4.5594,-4.5594,-4.5594,-4.5531,-4.5381,-4.5332,-4.5292,-4.5107,-4.5232,-4.5332,-4.5332,-4.5495,-4.5594,-4.5594,-4.514,-4.4611,-4.402,-4.2356,-4.1111,-4.0543,-3.935,-3.8707,-3.8707,-3.8707,-3.8707,-3.8707,-3.8829,-3.888,-3.8913,-3.921,-3.9414,-3.9599,-3.9932,-4.0167,-4.0304,-4.0449,-4.0496,-4.0496,-4.0496,-4.0604,-4.0752,-4.0796,-4.092,-4.1104,-4.1171,-4.1025,-4.0706,-4.0087,-3.9503,-3.8889,-3.7829,-3.6954,-3.623,-3.5801,-3.5496,-3.5346,-3.5479,-3.55,-3.5501,-3.5547,-3.5605,-3.5402,-3.4458,-3.3596,-3.2755,-3.192,-3.1447,-3.1037,-3.0614,-3.0575,-3.0591,-3.0544,-3.0481,-3.0456,-3.0456,-3.0411,-3.0404,-3.0404,-3.0457,-3.0525,-3.0594,-3.0726,-3.064,-3.0254,-3.0215,-3.0019,-2.9551,-2.8711,-2.8047,-2.7637,-2.6777,-2.6113,-2.5703,-2.5703,-2.5703,-2.5703,-2.5703,-2.5703,-2.5703,-2.5703,-2.5703,-2.5703,-2.5703,-2.5703,-2.5703,-2.5703,-2.5977,-2.6426,-2.6836,-2.7559,-2.8418,-2.8828,-2.9277,-2.9668,-4.5594,-4.5594,-4.5594,-4.5594,-4.5594,-4.5594,-4.5594,-4.5594,-4.5594,-4.5594,-4.5594,-4.5594,-4.5594,-4.5594,-4.5594,-4.5594,-4.5033,-4.4354,-4.3567,-4.2062,-4.0861,-4.0139,-3.9203,-3.8707,-3.8707,-3.8732,-3.8777,-3.8777,-3.8985,-3.9139,-3.9186,-3.9541,-3.9829,-4.0101,-4.0148,-4.0285,-4.0496,-4.0496,-4.0496,-4.0496,-4.0496,-4.0616,-4.0797,-4.0797,-4.0962,-4.1191,-4.1191,-4.1025,-4.0768,-4.0584,-3.9857,-3.8985,-3.8794,-3.7628,-3.63,-3.6245,-3.5796,-3.5337,-3.547,-3.55,-3.5515,-3.5579,-3.5633,-3.5485,-3.4625,-3.4389,-3.3951,-3.2553,-3.208,-3.169,-3.0976,-3.0767,-3.0684,-3.0633,-3.0544,-3.0498,-3.0498,-3.0441,-3.0404,-3.0404,-3.0477,-3.0568,-3.0717,-3.0837,-3.0898,-3.0898,-3.0898,-3.0898,-3.0898,-3.0078,-2.9199,-2.832,-2.7441,-2.6582,-2.5703,-2.5703,-2.5703,-2.5703,-2.5703,-2.5703,-2.5703,-2.5703,-2.5703,-2.5703,-2.5703,-2.5703,-2.5703,-2.5703,-2.5703,-2.5762,-2.6504,-2.6875,-2.7109,-2.7988,-2.8301,-2.8301,-4.5594,-4.5594,-4.5594,-4.5594,-4.5594,-4.5594,-4.5594,-4.5594,-4.5594,-4.5594,-4.5594,-4.5594,-4.5594,-4.5594,-4.5594,-4.5594,-4.5253,-4.4851,-4.4449,-4.2614,-4.1337,-4.0963,-3.9515,-3.8707,-3.8707,-3.8937,-3.9049,-3.9049,-3.9085,-3.9238,-3.9541,-3.988,-4.0061,-4.011,-4.0347,-4.0465,-4.0496,-4.0496,-4.0496,-4.0496,-4.0496,-4.0616,-4.0797,-4.0797,-4.0962,-4.1191,-4.1191,-4.1025,-4.08,-4.0707,-4.0342,-3.9757,-3.8753,-3.8225,-3.7709,-3.6356,-3.6036,-3.6046,-3.5616,-3.55,-3.5507,-3.5515,-3.5606,-3.5659,-3.5446,-3.4966,-3.4473,-3.4195,-3.2991,-3.1957,-3.182,-3.1199,-3.0693,-3.0687,-3.0584,-3.0498,-3.0498,-3.0441,-3.0404,-3.0404,-3.0511,-3.0665,-3.0857,-3.0898,-3.0898,-3.0898,-3.0898,-3.0898,-3.0898,-3.0078,-2.9199,-2.832,-2.7441,-2.6582,-2.5703,-2.5703,-2.5703,-2.5703,-2.5703,-2.5703,-2.5703,-2.5703,-2.5703,-2.5703,-2.5703,-2.5703,-2.5703,-2.5703,-2.5703,-2.5703,-2.582,-2.6348,-2.7109,-2.7988,-2.8301,-2.8301,-4.5594,-4.5594,-4.5594,-4.5594,-4.5594,-4.5594,-4.5594,-4.5594,-4.5594,-4.5594,-4.5594,-4.5594,-4.5594,-4.5594,-4.5594,-4.5594,-4.4852,-4.422,-4.3901,-4.1986,-4.0733,-4.0448,-3.9331,-3.8707,-3.8707,-3.8961,-3.9186,-3.9377,-3.9576,-3.9724,-3.9891,-4.0176,-4.033,-4.033,-4.0449,-4.0496,-4.0496,-4.0496,-4.0496,-4.0496,-4.0496,-4.0597,-4.0742,-4.0796,-4.092,-4.1082,-4.1082,-4.0962,-4.0781,-4.071,-4.0307,-3.974,-3.9241,-3.8514,-3.7683,-3.6814,-3.6347,-3.6044,-3.5663,-3.5574,-3.5611,-3.5611,-3.5721,-3.5799,-3.5765,-3.5564,-3.5223,-3.4671,-3.3977,-3.3179,-3.2278,-3.1791,-3.1381,-3.0893,-3.0698,-3.0606,-3.0554,-3.0525,-3.054,-3.0558,-3.0628,-3.0729,-3.0879,-3.0898,-3.0898,-3.0898,-3.0898,-3.0878,-3.0793,-3.0487,-2.9901,-2.8995,-2.8632,-2.7793,-2.6445,-2.6426,-2.6172,-2.5703,-2.5703,-2.5703,-2.5703,-2.5703,-2.5703,-2.5703,-2.5703,-2.5703,-2.5703,-2.5703,-2.5703,-2.5703,-2.5703,-2.5937,-2.6328,-2.6719,-2.6855,-2.6855]},{"header":{"parameterUnit":"m.s-1","parameterCategory":1,"la1":30.6,"la2":28.766,"lo1":-90.7593,"lo2":-88.6598,"dy":0.0162,"dx":0.0183,"nx":116,"ny":114,"refTime":"2024-07-03T12:00:00:Z","depth":0,"parameterNumber":3,"parameterNumberName":"V-component_of_WINDS"},"data":[0.0,0.0,0.0,0.0,0.0,0.0,0.0,0.0,0.0,0.0,0.0,0.0,0.0,0.0,0.0,0.0,0.0,0.0,0.0,0.0,0.0,0.0,0.0,0.0,0.0,0.0,0.0,0.0,0.0,0.0,0.0,0.0,0.0,0.0,0.0,0.0,0.0,0.0,0.0,0.0,0.0,0.0,0.0,0.0,0.0,0.0,0.0,0.0,0.0,0.0,0.0,0.0,0.0,0.0,0.0,0.0,0.0,0.0,0.0,0.0,0.0,0.0,0.0,0.0,0.0,0.0,0.0,0.0,0.0,0.0,0.0,0.0,0.0,0.0,0.0,0.0,0.0,0.0,0.0,0.0,0.0,0.0,0.0,0.0,0.0,0.0,0.0,0.0,0.0,0.0,0.0,0.0,0.0,0.0,0.0,0.0,0.0,0.0,0.0,0.0,0.0,0.0,0.0,0.0,0.0,0.0,0.0,0.0,0.0,0.0,0.0,0.0,0.0,0.0,0.0,0.0,0.0,0.0,0.0,0.0,0.0,0.0,0.0,0.0,0.0,0.0,0.0,0.0,0.0,0.0,0.0,0.0,0.0,0.0,0.0,0.0,0.0,0.0,0.0,0.0,0.0,0.0,0.0,0.0,0.0,0.0,0.0,0.0,0.0,0.0,0.0,0.0,0.0,0.0,0.0,0.0,0.0,0.0,0.0,0.0,0.0,0.0,0.0,0.0,0.0,0.0,0.0,0.0,0.0,0.0,0.0,0.0,0.0,0.0,0.0,0.0,0.0,0.0,0.0,0.0,0.0,0.0,0.0,0.0,0.0,0.0,0.0,0.0,0.0,0.0,0.0,0.0,0.0,0.0,0.0,0.0,0.0,0.0,0.0,0.0,0.0,0.0,0.0,0.0,0.0,0.0,0.0,0.0,0.0,0.0,0.0,0.0,0.0,0.0,0.0,0.0,0.0,0.0,0.0,0.0,0.0,0.0,0.0,0.0,0.0,0.0,0.0,0.0,0.0,0.0,0.0,0.0,0.0,0.0,0.0,0.0,0.0,0.0,0.0,0.0,0.0,0.0,0.0,0.0,0.0,0.0,0.0,0.0,0.0,0.0,0.0,0.0,0.0,0.0,0.0,0.0,0.0,0.0,0.0,0.0,0.0,0.0,0.0,0.0,0.0,0.0,0.0,0.0,0.0,0.0,0.0,0.0,0.0,0.0,0.0,0.0,0.0,0.0,0.0,0.0,0.0,0.0,0.0,0.0,0.0,0.0,0.0,0.0,0.0,0.0,0.0,0.0,0.0,0.0,0.0,0.0,0.0,0.0,0.0,0.0,0.0,0.0,0.0,0.0,0.0,0.0,0.0,0.0,0.0,0.0,0.0,0.0,0.0,0.0,0.0,0.0,0.0,0.0,0.0,0.0,0.0,0.0,0.0,0.0,0.0,0.0,0.0,0.0,0.0,0.0,0.0,0.0,0.0,0.0,0.0,0.0,0.0,0.0,0.0,0.0,0.0,0.0,0.0,0.0,0.0,0.0,0.0,0.0,0.0,0.0,0.0,0.0,0.0,0.0,0.0,0.0,0.0,0.0,0.0,0.0,0.0,0.0,0.0,0.0,0.0,0.0,0.0,0.0,0.0,0.0,0.0,0.0,0.0,0.0,0.0,0.0,0.0,0.0,0.0,0.0,0.0,0.0,0.0,0.0,0.0,0.0,0.0,0.0,0.0,0.0,0.0,0.0,0.0,0.0,0.0,0.0,0.0,0.0,0.0,0.0,0.0,0.0,0.0,0.0,0.0,0.0,0.0,0.0,0.0,0.0,0.0,0.0,0.0,0.0,0.0,0.0,0.0,0.0,0.0,0.0,0.0,0.0,0.0,0.0,0.0,0.0,0.0,0.0,0.0,0.0,0.0,0.0,0.0,0.0,0.0,0.0,0.0,0.0,0.0,0.0,0.0,0.0,0.0,0.0,0.0,0.0,0.0,0.0,0.0,0.0,0.0,0.0,0.0,0.0,0.0,0.0,0.0,0.0,0.0,0.0,0.0,0.0,0.0,0.0,0.0,0.0,0.0,0.0,0.0,0.0,0.0,0.0,0.0,0.0,0.0,0.0,0.0,0.0,0.0,0.0,0.0,0.0,0.0,0.0,0.0,0.0,0.0,0.0,0.0,0.0,0.0,0.0,0.0,0.0,0.0,0.0,0.0,0.0,0.0,0.0,0.0,0.0,0.0,0.0,0.0,0.0,0.0,0.0,0.0,0.0,0.0,0.0,0.0,0.0,0.0,0.0,0.0,0.0,0.0,0.0,0.0,0.0,0.0,0.0,0.0,0.0,0.0,0.0,0.0,0.0,0.0,0.0,0.0,0.0,0.0,0.0,0.0,0.0,0.0,0.0,0.0,0.0,0.0,0.0,0.0,0.0,0.0,0.0,0.0,0.0,0.0,0.0,0.0,0.0,0.0,0.0,0.0,0.0,0.0,0.0,0.0,0.0,0.0,0.0,0.0,0.0,0.0,0.0,0.0,0.0,0.0,0.0,0.0,0.0,0.0,0.0,0.0,0.0,0.0,0.0,0.0,0.0,0.0,0.0,0.0,0.0,0.0,0.0,0.0,0.0,0.0,0.0,0.0,0.0,0.0,0.0,0.0,0.0,0.0,0.0,0.0,0.0,0.0,0.0,0.0,0.0,0.0,0.0,0.0,0.0,0.0,0.0,0.0,0.0,0.0,0.0,0.0,0.0,0.0,0.0,0.0,0.0,0.0,0.0,0.0,0.0,0.0,0.0,0.0,0.0,0.0,0.0,0.0,0.0,0.0,0.0,0.0,0.0,0.0,0.0,0.0,0.0,0.0,0.0,0.0,0.0,0.0,0.0,0.0,0.0,0.0,0.0,0.0,0.0,0.0,0.0,0.0,0.0,0.0,0.0,0.0,0.0,0.0,0.0,0.0,0.0,0.0,0.0,0.0,0.0,0.0,0.0,0.0,0.0,0.0,0.0,0.0,0.0,0.0,0.0,0.0,0.0,0.0,0.0,0.0,0.0,0.0,0.0,0.0,0.0,0.0,0.0,0.0,0.0,0.0,0.0,0.0,0.0,0.0,0.0,0.0,0.0,0.0,0.0,0.0,0.0,0.0,0.0,0.0,0.0,0.0,0.0,0.0,0.0,0.0,0.0,0.0,0.0,0.0,0.0,0.0,0.0,0.0,0.0,0.0,0.0,0.0,0.0,0.0,0.0,0.0,0.0,0.0,0.0,0.0,0.0,0.0,0.0,0.0,0.0,0.0,0.0,0.0,0.0,0.0,0.0,0.0,0.0,0.0,0.0,0.0,0.0,0.0,0.0,0.0,0.0,0.0,0.0,0.0,0.0,0.0,0.0,0.0,0.0,0.0,0.0,0.0,0.0,0.0,0.0,0.0,0.0,0.0,0.0,0.0,0.0,0.0,0.0,0.0,0.0,0.0,0.0,0.0,0.0,0.0,0.0,0.0,0.0,0.0,0.0,0.0,0.0,0.0,0.0,0.0,0.0,0.0,0.0,0.0,0.0,0.0,0.0,0.0,0.0,0.0,0.0,0.0,0.0,0.0,0.0,0.0,0.0,0.0,0.0,0.0,0.0,0.0,0.0,0.0,0.0,0.0,0.0,0.0,0.0,0.0,0.0,0.0,0.0,0.0,0.0,0.0,0.0,0.0,0.0,0.0,0.0,0.0,0.0,0.0,0.0,0.0,0.0,0.0,0.0,0.0,0.0,0.0,0.0,0.0,0.0,0.0,0.0,0.0,0.0,0.0,0.0,0.0,0.0,0.0,0.0,0.0,0.0,0.0,0.0,0.0,0.0,0.0,0.0,0.0,0.0,0.0,0.0,0.0,0.0,0.0,0.0,0.0,0.0,0.0,0.0,0.0,0.0,0.0,0.0,0.0,0.0,0.0,0.0,0.0,0.0,0.0,0.0,0.0,0.0,0.0,0.0,0.0,0.0,0.0,0.0,0.0,0.0,0.0,0.0,0.0,0.0,0.0,0.0,0.0,0.0,0.0,0.0,0.0,0.0,0.0,0.0,0.0,0.0,0.0,0.0,0.0,0.0,0.0,0.0,0.0,0.0,0.0,0.0,0.0,0.0,0.0,0.0,0.0,0.0,0.0,0.0,0.0,0.0,0.0,0.0,0.0,0.0,0.0,0.0,0.0,0.0,0.0,0.0,0.0,0.0,0.0,0.0,0.0,0.0,0.0,0.0,0.0,0.0,0.0,0.0,0.0,0.0,0.0,0.0,0.0,0.0,0.0,0.0,0.0,0.0,0.0,0.0,0.0,0.0,0.0,0.0,0.0,0.0,0.0,0.0,0.0,0.0,0.0,0.0,0.0,0.0,0.0,0.0,0.0,0.0,0.0,0.0,0.0,0.0,0.0,0.0,0.0,0.0,0.0,0.0,0.0,0.0,0.0,0.0,0.0,0.0,0.0,0.0,0.0,0.0,0.0,0.0,0.0,0.0,0.0,0.0,0.0,0.0,0.0,0.0,0.0,0.0,0.0,0.0,0.0,0.0,0.0,0.0,0.0,0.0,0.0,0.0,0.0,0.0,0.0,0.0,0.0,0.0,0.0,0.0,0.0,0.0,0.0,0.0,0.0,0.0,0.0,0.0,0.0,0.0,0.0,0.0,0.0,0.0,0.0,0.0,0.0,0.0,0.0,0.0,0.0,0.0,0.0,0.0,0.0,0.0,0.0,0.0,0.0,0.0,0.0,0.0,0.0,0.0,0.0,0.0,0.0,0.0,0.0,0.0,0.0,0.0,0.0,0.0,0.0,0.0,0.0,0.0,0.0,0.0,0.0,0.0,0.0,0.0,0.0,0.0,0.0,0.0,0.0,0.0,0.0,0.0,0.0,0.0,0.0,0.0,0.0,0.0,0.0,0.0,0.0,0.0,0.0,0.0,0.0,0.0,0.0,0.0,0.0,0.0,0.0,0.0,0.0,0.0,0.0,0.0,0.0,0.0,0.0,0.0,0.0,0.0,0.0,0.0,0.0,0.0,0.0,0.0,0.0,0.0,0.0,0.0,0.0,0.0,0.0,0.0,0.0,0.0,0.0,0.0,0.0,0.0,0.0,0.0,0.0,0.0,0.0,0.0,0.0,0.0,0.0,0.0,0.0,0.0,0.0,0.0,0.0,0.0,0.0,0.0,0.0,0.0,0.0,0.0,0.0,0.0,0.0,0.0,0.0,0.0,0.0,0.0,0.0,0.0,0.0,0.0,0.0,0.0,0.0,0.0,0.0,0.0,0.0,0.0,0.0,0.0,0.0,0.0,0.0,0.0,0.0,0.0,0.0,0.0,0.0,0.0,0.0,0.0,0.0,0.0,0.0,0.0,0.0,0.0,0.0,0.0,0.0,0.0,0.0,0.0,0.0,0.0,0.0,0.0,0.0,0.0,0.0,0.0,0.0,0.0,0.0,0.0,0.0,0.0,0.0,0.0,0.0,0.0,0.0,0.0,0.0,0.0,0.0,0.0,0.0,0.0,0.0,0.0,0.0,0.0,0.0,0.0,0.0,0.0,0.0,0.0,0.0,0.0,0.0,0.0,0.0,0.0,0.0,0.0,0.0,0.0,0.0,0.0,0.0,0.0,0.0,0.0,0.0,0.0,0.0,0.0,0.0,0.0,0.0,0.0,0.0,0.0,0.0,0.0,0.0,0.0,0.0,0.0,0.0,0.0,0.0,0.0,0.0,0.0,0.0,0.0,0.0,0.0,0.0,0.0,0.0,0.0,0.0,0.0,0.0,0.0,0.0,0.0,0.0,0.0,0.0,0.0,0.0,0.0,0.0,0.0,0.0,0.0,0.0,0.0,0.0,0.0,0.0,0.0,0.0,0.0,0.0,0.0,0.0,0.0,0.0,0.0,0.0,0.0,0.0,0.0,0.0,0.0,0.0,0.0,0.0,0.0,0.0,0.0,0.0,0.0,0.0,0.0,0.0,0.0,0.0,0.0,0.0,0.0,0.0,0.0,0.0,0.0,0.0,0.0,0.0,0.0,0.0,0.0,0.0,0.0,0.0,0.0,0.0,0.0,0.0,0.0,0.0,0.0,0.0,0.0,0.0,0.0,0.0,0.0,-0.7301,-0.6856,0.0,0.0,0.0,0.0,0.0,0.0,0.0,0.0,0.0,0.0,0.0,0.0,0.0,0.0,0.0,0.0,0.0,0.0,0.0,0.0,0.0,0.0,0.0,-0.365,-0.4042,-0.4456,-0.4486,-0.4547,-0.4686,0.0,0.0,0.0,0.0,0.0,-0.3506,-0.389,-0.442,-0.5083,-0.591,-0.7217,-0.8944,-0.8953,-0.88,-0.8509,0.0,0.0,0.0,0.0,0.0,0.0,0.0,0.0,0.0,0.0,0.0,0.0,0.0,0.0,0.0,0.0,0.0,0.0,0.0,0.0,0.0,0.0,0.0,0.0,0.0,0.0,0.0,0.0,0.0,0.0,0.0,0.0,0.0,0.0,0.0,0.0,0.0,0.0,0.0,0.0,0.0,0.0,0.0,0.0,0.0,0.0,0.0,0.0,0.0,0.0,0.0,0.0,0.0,0.0,0.0,0.0,0.0,0.0,0.0,0.0,0.0,0.0,0.0,0.0,0.0,0.0,0.0,0.0,0.0,0.0,-0.915,-0.8433,0.0,0.0,0.0,0.0,0.0,0.0,0.0,0.0,0.0,0.0,0.0,0.0,0.0,0.0,0.0,0.0,0.0,0.0,0.0,0.0,0.0,-0.2765,-0.3491,-0.4002,-0.4482,-0.4937,-0.4851,-0.4822,-0.4976,-0.4591,0.0,0.0,0.0,-0.3796,-0.358,-0.4185,-0.4965,-0.5899,-0.7503,-0.9239,-1.1045,-1.1765,-1.1513,-1.0446,-0.9909,0.0,0.0,0.0,0.0,0.0,0.0,0.0,0.0,0.0,0.0,0.0,0.0,0.0,0.0,0.0,0.0,0.0,0.0,0.0,0.0,0.0,0.0,0.0,0.0,0.0,0.0,0.0,0.0,0.0,0.0,0.0,0.0,0.0,0.0,0.0,0.0,0.0,0.0,0.0,0.0,0.0,0.0,0.0,0.0,0.0,0.0,0.0,0.0,0.0,0.0,0.0,0.0,0.0,0.0,0.0,0.0,0.0,0.0,0.0,0.0,0.0,0.0,0.0,-1.2442,-1.2821,-1.3074,-1.2876,-1.3064,-1.3451,-1.1145,-1.0301,-1.0514,-0.9485,0.0,0.0,0.0,0.0,0.0,0.0,0.0,0.0,0.0,0.0,0.0,0.0,0.0,0.0,0.0,0.0,0.0,0.0,0.0,-0.3097,-0.3772,-0.4114,-0.4781,-0.5982,-0.5452,-0.5343,-0.6045,-0.5181,0.0,0.0,-0.4017,-0.388,-0.3848,-0.4831,-0.604,-0.7497,-1.0979,-1.2829,-1.3134,-1.4097,-1.4442,-1.417,-1.1763,-1.0718,-1.0612,0.0,0.0,0.0,0.0,0.0,0.0,0.0,0.0,0.0,0.0,0.0,0.0,0.0,0.0,0.0,0.0,0.0,0.0,0.0,0.0,0.0,0.0,0.0,0.0,0.0,0.0,0.0,0.0,0.0,0.0,0.0,0.0,0.0,0.0,0.0,0.0,0.0,0.0,0.0,0.0,0.0,-0.9113,-1.0036,0.0,0.0,0.0,0.0,0.0,0.0,0.0,0.0,0.0,0.0,0.0,0.0,0.0,-1.4833,-1.4832,-1.5254,-1.5137,-1.443,-1.4785,-1.4582,-1.3868,-1.464,-1.4611,-1.3961,-1.4392,0.0,-1.2483,-1.194,0.0,0.0,0.0,0.0,0.0,0.0,0.0,0.0,0.0,0.0,0.0,0.0,0.0,0.0,0.0,0.0,0.0,0.0,0.0,0.0,0.0,-0.4925,-0.5603,-0.6605,-0.6574,-0.6448,-0.6308,-0.5899,-0.5314,-0.4563,-0.4406,-0.4404,-0.4519,-0.5635,-0.762,-1.0441,-1.3161,-1.4645,-1.492,-1.5705,-1.5792,-1.523,-1.4023,-1.2794,-1.1524,-1.0211,0.0,0.0,0.0,0.0,0.0,0.0,0.0,0.0,0.0,0.0,0.0,0.0,0.0,0.0,0.0,0.0,0.0,0.0,0.0,0.0,0.0,0.0,0.0,0.0,0.0,0.0,0.0,0.0,0.0,0.0,0.0,0.0,0.0,0.0,0.0,0.0,0.0,0.0,0.0,-0.8837,-1.0116,-1.0243,-1.0002,-0.951,0.0,0.0,0.0,0.0,0.0,0.0,0.0,0.0,0.0,-1.6503,-1.6643,-1.6669,-1.6649,-1.6607,-1.5971,-1.4792,-1.5179,-1.484,-1.3992,-1.4934,-1.512,-1.4778,-1.5704,-1.5586,-1.4627,-1.3656,-1.2798,-1.2031,0.0,0.0,0.0,0.0,-1.1455,-1.1553,0.0,0.0,0.0,0.0,0.0,0.0,0.0,0.0,0.0,0.0,0.0,0.0,-0.5112,-0.5642,-0.6342,-0.7371,-0.7472,-0.7283,-0.684,-0.6451,-0.5833,-0.4916,-0.4879,-0.4983,-0.5225,-0.7234,-0.9788,-1.2859,-1.4936,-1.6083,-1.6293,-1.6779,-1.6638,-1.5956,-1.5821,-1.4702,-1.2871,-1.1653,-1.0411,0.0,0.0,0.0,0.0,0.0,0.0,0.0,0.0,0.0,0.0,0.0,0.0,0.0,0.0,0.0,0.0,0.0,0.0,0.0,0.0,0.0,0.0,0.0,0.0,0.0,0.0,0.0,0.0,0.0,0.0,0.0,0.0,0.0,0.0,0.0,0.0,0.0,0.0,-1.034,-1.1074,-1.1178,-1.109,-1.0634,0.0,0.0,0.0,0.0,0.0,0.0,-1.5648,-1.676,-1.7709,-1.8487,-1.8271,-1.7982,-1.7636,-1.7582,-1.6672,-1.5011,-1.5546,-1.5226,-1.4262,-1.5188,-1.5617,-1.5692,-1.6621,-1.6807,-1.6339,-1.5117,-1.4348,-1.3936,-1.3266,-1.3242,-1.3535,-1.3535,-1.3535,-1.3613,0.0,0.0,0.0,0.0,0.0,0.0,0.0,0.0,0.0,0.0,0.0,-0.4384,-0.5706,-0.5941,-0.6727,-0.854,-0.7731,-0.7437,0.0,-0.6716,-0.5692,-0.5381,-0.536,-0.5514,-0.5852,-1.0097,-1.2806,-1.3825,-1.648,-1.7525,-1.705,-1.7203,-1.7261,-1.7179,-1.6676,-1.6103,-1.5361,-1.322,-1.2547,-1.2693,0.0,0.0,0.0,0.0,0.0,0.0,0.0,0.0,0.0,0.0,0.0,0.0,0.0,0.0,0.0,0.0,0.0,0.0,0.0,0.0,0.0,0.0,0.0,0.0,0.0,0.0,0.0,0.0,0.0,0.0,0.0,0.0,0.0,0.0,0.0,0.0,0.0,0.0,0.0,-1.4212,-1.3199,0.0,0.0,0.0,0.0,-1.3132,-1.4664,-1.6256,-1.7933,-1.9058,-1.9548,-1.9353,-1.9333,-1.8817,-1.7809,-1.8582,-1.7926,-1.5851,-1.6711,-1.6421,-1.5176,-1.6122,-1.6538,-1.6582,-1.7546,-1.7705,-1.7279,-1.6369,-1.5703,-1.5312,-1.5264,-1.5235,-1.5283,-1.5283,-1.5283,-1.5293,0.0,0.0,0.0,0.0074,-0.0371,-0.0791,-0.1008,-0.1884,-0.2662,-0.3054,-0.3981,-0.5063,-0.6284,-0.7052,-0.7986,-0.9217,-0.8948,-0.871,-0.8686,-0.7394,-0.671,-0.6875,-0.6669,-0.7588,-0.9767,-1.1934,-1.3881,-1.5568,-1.6798,-1.7325,-1.7217,-1.7268,-1.7105,-1.6774,-1.6595,-1.6387,-1.6132,-1.4626,-1.3697,-1.3048,-1.1374,-1.0092,0.0,0.0,0.0,0.0,0.0,0.0,0.0,0.0,0.0,0.0,0.0,0.0,0.0,0.0,0.0,0.0,0.0,0.0,0.0,0.0,0.0,0.0,0.0,0.0,0.0,0.0,0.0,0.0,0.0,0.0,0.0,0.0,0.0,0.0,0.0,0.0,0.0,-1.409,-1.3904,0.0,-1.2551,-1.2762,-1.3589,-1.5159,-1.6655,-1.8172,-1.9722,-2.1154,-2.1889,-2.1785,-2.1311,-2.0879,-2.05,-1.9644,-1.8544,-1.7207,-1.7506,-1.7074,-1.5996,-1.7006,-1.7461,-1.7497,-1.8426,-1.875,-1.8584,-1.8306,-1.7393,-1.6229,-1.6229,-1.6229,-1.6229,-1.6229,-1.6229,-1.6229,0.0959,0.0682,0.0,0.0168,-0.0351,-0.0803,-0.1005,-0.1982,-0.288,-0.3368,-0.435,-0.5574,-0.7077,-0.7897,-0.872,-0.9717,-0.9681,-0.9413,-0.8954,-0.8059,-0.7659,-0.7947,-0.8338,-0.9789,-1.245,-1.356,-1.4798,-1.6218,-1.6856,-1.711,-1.7034,-1.7034,-1.6837,-1.65,-1.65,-1.65,-1.645,-1.5731,-1.4902,-1.3955,-1.2885,-1.1867,-1.0881,0.0,0.0,0.0,0.0,0.0,0.0,0.0,0.0,0.0,0.0,0.0,0.0,0.0,0.0,0.0,0.0,0.0,0.0,0.0,0.0,0.0,0.0,0.0,0.0,0.0,0.0,0.0,0.0,0.0,0.0,0.0,0.0,0.0,0.0,0.0,-1.423,-1.4471,-1.453,-1.4316,-1.3792,-1.4375,-1.5292,-1.6503,-1.8265,-1.9667,-2.0538,-2.2219,-2.2875,-2.2281,-2.1767,-2.139,-2.1075,-2.0024,-1.8972,-1.7896,-1.8032,-1.7667,-1.6917,-1.758,-1.8082,-1.8424,-1.9022,-1.9287,-1.9287,-1.9287,-1.8623,-1.7545,-1.7399,-1.734,-1.7321,-1.7184,-1.7126,-1.7126,0.1075,0.0992,0.0715,0.0125,-0.0208,-0.0601,-0.1196,-0.2088,-0.3045,-0.3981,-0.4637,-0.586,-0.8056,-0.8379,-0.8895,-1.0097,-0.9818,-0.9435,-0.9072,-0.862,-0.844,-0.8577,-1.0325,-1.2004,-1.3544,-1.497,-1.5723,-1.5718,-1.6762,-1.7013,-1.65,-1.65,-1.65,-1.65,-1.65,-1.65,-1.65,-1.65,-1.6187,-1.563,-1.4576,-1.379,-1.3152,0.0,0.0,0.0,0.0,0.0,0.0,0.0,0.0,0.0,0.0,0.0,0.0,0.0,0.0,0.0,0.0,0.0,0.0,0.0,0.0,0.0,0.0,0.0,0.0,0.0,0.0,0.0,0.0,0.0,0.0,0.0,0.0,0.0,-1.4165,-1.4208,-1.4627,-1.5614,-1.5205,-1.501,-1.541,-1.5889,-1.6477,-1.7226,-1.9456,-2.0711,-2.0495,-2.2275,-2.2514,-2.0765,-2.0705,-2.0262,-1.9399,-1.9727,-1.9268,-1.7979,-1.839,-1.8372,-1.797,-1.797,-1.8499,-1.9326,-1.9326,-1.9326,-1.9326,-1.9326,-1.9326,-1.9277,-1.8792,-1.8617,-1.8568,-1.8159,-1.8037,-1.8027,0.1095,0.0992,0.0819,0.0553,0.0,-0.0535,-0.0948,-0.1971,-0.3045,-0.3981,-0.4878,-0.6179,-0.8153,-0.8655,-0.9222,-1.0199,-0.9585,-0.9395,-0.9902,-0.8611,-0.8609,-1.0377,-1.2292,-1.3873,-1.5065,-1.5486,-1.5894,-1.6274,-1.6583,-1.6637,-1.65,-1.65,-1.65,-1.65,-1.65,-1.65,-1.65,-1.65,-1.64,-1.6233,-1.555,-1.4934,-1.4299,0.0,0.0,0.0,0.0,0.0,0.0,0.0,0.0,0.0,0.0,0.0,0.0,0.0,0.0,0.0,0.0,0.0,0.0,0.0,0.0,0.0,0.0,0.0,0.0,0.0,0.0,0.0,0.0,0.0,0.0,0.0,-1.4438,-1.5283,-1.5381,-1.5616,-1.5891,-1.6168,-1.6187,-1.621,-1.6326,-1.7041,-1.7823,-1.8668,-1.991,-2.1214,-2.2445,-2.3423,-2.3732,-2.3236,-2.2896,-2.2239,-2.1261,-2.0685,-2.0207,-1.986,-1.9976,-1.9966,-1.986,-1.986,-2.0014,-2.0253,-2.0253,-2.0253,-2.0253,-2.0253,-2.0253,-2.0184,-1.9394,-1.9111,-1.9092,-1.8975,-1.874,-1.8383,0.1177,0.1186,0.1094,0.0762,0.0273,-0.0256,-0.0814,-0.1803,-0.2945,-0.4219,-0.5102,-0.6323,-0.8201,-0.861,-0.9014,-0.9687,-0.9453,-0.9379,-0.9684,-0.9503,-1.0279,-1.2341,-1.3928,-1.5159,-1.6032,-1.6045,-1.6195,-1.65,-1.65,-1.65,-1.65,-1.65,-1.65,-1.65,-1.6773,-1.6748,-1.6513,-1.6773,-1.6735,-1.6475,-1.617,-1.5856,-1.5467,-1.4601,-1.3633,-1.2679,-1.2135,-1.1547,-1.0922,-1.0389,0.0,0.0,0.0,0.0,0.0,0.0,0.0,0.0,0.0,0.0,0.0,0.0,0.0,0.0,0.0,0.0,0.0,0.0,0.0,0.0,0.0,0.0,0.0,0.0,-1.56,-1.6156,-1.6624,-1.6671,-1.6698,-1.6799,-1.691,-1.7139,-1.7457,-1.7944,-1.8547,-1.9259,-2.0311,-2.1197,-2.1859,-2.2784,-2.31,-2.2702,-2.2424,-2.2,-2.1413,-2.0857,-2.0605,-2.0605,-2.0605,-2.0605,-2.0605,-2.0605,-2.0605,-2.0605,-2.0605,-2.0605,-2.0605,-2.0605,-2.0605,-2.0537,0.0,0.0,0.0,0.0,-1.9131,-1.8877,0.1315,0.1475,0.1415,0.0829,0.054,0.0111,-0.077,-0.1614,-0.2765,-0.4453,-0.5148,-0.6189,-0.8015,-0.8229,-0.8438,-0.8897,-0.9257,-0.937,-0.9161,-1.0931,-1.2645,-1.4117,-1.5208,-1.6019,-1.6488,-1.65,-1.65,-1.65,-1.65,-1.65,-1.65,-1.65,-1.6538,-1.6613,-1.7149,-1.7137,-1.6735,-1.725,-1.7149,-1.6588,-1.6588,-1.655,-1.645,-1.5969,-1.5462,-1.4941,-1.445,-1.3627,-1.2693,-1.214,0.0,0.0,0.0,0.0,0.0,0.0,0.0,0.0,0.0,0.0,0.0,0.0,0.0,0.0,0.0,0.0,0.0,0.0,0.0,0.0,0.0,0.0,0.0,0.0,-1.6662,-1.6807,-1.7636,-1.7389,-1.7185,-1.7393,-1.7471,-1.7822,-1.8529,-1.8685,-1.8909,-1.9326,-2.0577,-2.097,-2.0169,0.0,0.0,0.0,0.0,-2.0761,-2.0605,-2.0703,-2.0732,-2.0683,-2.0683,-2.0683,-2.0674,-2.0625,-2.0605,-2.0605,-2.0605,-2.0605,-2.0605,-2.0605,-2.0605,-2.0566,-2.0137,-1.999,-1.9932,-1.9512,-1.9355,-1.9346,0.1538,0.1569,0.1445,0.0945,0.0607,0.0111,-0.077,-0.1455,-0.2361,-0.3733,-0.4428,-0.536,-0.6867,-0.7217,-0.7665,-0.8443,-0.8579,-0.9214,0.0,0.0,-1.3596,-1.4704,-1.5777,-1.6387,-1.65,-1.65,-1.65,-1.65,-1.65,-1.65,-1.65,-1.65,-1.6773,-1.7234,-1.736,-1.7564,-1.789,-1.8003,-1.7727,-1.7234,-1.7234,-1.6936,-1.6488,-1.6375,-1.6019,-1.5517,-1.5437,-1.5261,-1.4977,-1.4444,-1.4161,-1.3843,-1.2822,0.0,0.0,0.0,0.0,0.0,0.0,0.0,0.0,0.0,0.0,0.0,0.0,0.0,0.0,0.0,0.0,0.0,0.0,0.0,0.0,-1.639,-1.6994,-1.739,-1.7459,-1.7658,-1.7701,-1.7435,-1.7978,-1.8422,-1.8588,-1.9231,-1.9697,-1.9785,-2.0376,-2.0986,-2.1563,-2.1834,-2.1924,-2.1735,-2.2097,-2.1741,-2.0605,-2.131,-2.1455,-2.1064,-2.1064,0.0,-2.1054,-2.0732,-2.0605,-2.0605,-2.0605,-2.0605,-2.0605,-2.0605,-2.0605,-2.0595,-2.0507,-2.0478,-2.0429,-1.9951,-1.9795,-1.9746,0.1682,0.1561,0.133,0.0962,0.0624,0.0167,-0.0546,-0.1167,-0.1953,-0.3106,-0.3774,-0.4552,-0.5632,-0.5867,-0.6169,-0.6749,-0.763,0.0,0.0,-1.2548,-1.3939,-1.5234,-1.607,-1.65,-1.65,-1.65,-1.65,-1.65,-1.65,-1.65,-1.65,-1.681,-1.7099,-1.7423,-1.7953,-1.8204,-1.8229,-1.8481,-1.8141,-1.741,-1.741,-1.7036,-1.65,-1.65,-1.6325,-1.6107,-1.6107,-1.6107,-1.6019,-1.5467,-1.5299,-1.516,-1.4312,-1.3196,-1.2024,0.0,0.0,0.0,0.0,0.0,0.0,0.0,0.0,0.0,0.0,0.0,0.0,0.0,0.0,-1.5042,-1.5459,0.0,-1.7265,-1.7429,-1.7491,-1.7533,-1.766,-1.8057,-1.8242,-1.8037,-1.8344,-1.8773,-1.9202,-1.9621,-2.0,-2.0225,-2.0478,-2.0779,-2.126,-2.1482,-2.1604,-2.1604,-2.2049,-2.194,-2.1271,-2.167,-2.1777,-2.1562,-2.1562,-2.1445,-2.119,-2.123,-2.1026,-2.0615,-2.0801,-2.0771,-2.0605,-2.0605,-2.0605,-2.0605,-2.0605,-2.0605,-2.0576,-2.0322,-2.0244,-2.0215,0.1782,0.153,0.1219,0.0948,0.0624,0.0222,-0.0322,-0.0809,-0.1457,-0.2384,-0.2988,-0.3597,-0.4297,-0.443,-0.4722,0.0,0.0,0.0,0.0,-1.2689,-1.4076,-1.5785,-1.6283,-1.65,-1.65,-1.65,-1.65,-1.65,-1.65,-1.65,-1.65,-1.6999,-1.7348,-1.7576,-1.8468,-1.8707,-1.8543,-1.897,-1.8543,-1.7561,-1.7561,-1.7057,-1.6337,-1.6337,-1.6337,-1.6337,-1.6337,-1.6198,-1.5997,-1.5769,-1.5637,-1.5503,-1.5146,-1.4425,-1.3531,-1.2662,-1.1707,0.0,0.0,0.0,0.0,0.0,0.0,0.0,0.0,0.0,-1.44,-1.5538,-1.6788,-1.7598,-1.7315,-1.7862,-1.836,-1.8393,-1.7978,-1.7773,-1.8193,-1.851,-1.8724,-1.8724,-1.8802,-1.9114,-1.9844,-1.999,-2.0185,-2.0576,-2.0605,-2.0644,-2.0723,-2.1035,-2.1239,-2.1317,-2.1787,-2.1963,-2.1885,-2.2051,-2.209,-2.2012,-2.2012,-2.1826,-2.1453,-2.1758,-2.1535,-2.0879,-2.1113,-2.1025,-2.0723,-2.0635,-2.0605,-2.0605,-2.0605,-2.0605,-2.0605,-2.0605,-2.0605,-2.0605,0.1799,0.153,0.1219,0.0948,0.0624,0.0222,-0.0322,-0.0456,-0.0735,-0.1388,-0.1785,-0.2221,-0.2783,-0.311,-0.4067,-0.601,0.0,0.0,-1.2408,-1.3111,-1.429,-1.6307,-1.6463,-1.65,-1.65,-1.65,-1.65,-1.65,-1.65,-1.65,-1.65,-1.6563,-1.7127,-1.8116,-1.8242,-1.8794,-1.9623,-1.9698,-1.9095,-1.8116,-1.8116,-1.7142,-1.5698,-1.5698,-1.5698,-1.5698,-1.5698,-1.5128,-1.4498,-1.533,-1.5379,-1.5141,-1.5496,-1.5517,-1.5216,-1.4161,0.0,-1.2876,-1.2768,-1.318,-1.4096,-1.6176,-1.605,-1.5928,0.0,0.0,-1.7159,-1.8238,-1.8406,-1.8329,-1.8176,-1.8345,-1.8382,-1.8087,-1.8286,-1.8617,-1.9082,-1.918,-1.9219,-1.9219,-1.9551,-1.9805,-1.9902,-2.0264,-2.0546,-2.0595,-2.0605,-2.0781,-2.1103,-2.1171,-2.1375,-2.1807,-2.2217,-2.2266,-2.1894,-2.2627,-2.2769,-2.2441,-2.2441,-2.2412,-2.2353,-2.2031,-2.1836,-2.1719,-2.1346,-2.1161,-2.1093,-2.0772,-2.0605,-2.0605,-2.0605,-2.0605,-2.0605,-2.0605,-2.0605,-2.0605,0.1803,0.153,0.1219,0.0948,0.0624,0.0267,-0.0112,-0.0301,-0.0489,-0.0744,-0.1064,-0.1365,-0.1582,-0.2184,-0.3146,-0.455,-0.62,-0.8297,-1.0988,-1.2571,-1.4185,-1.5915,-1.6303,-1.65,-1.65,-1.65,-1.65,-1.65,-1.65,-1.65,-1.65,-1.6861,-1.7275,-1.7739,-1.8066,-1.8455,-1.8845,-1.8499,-1.7873,-1.713,-1.6777,-1.6021,-1.5085,-1.5085,-1.4688,-1.4205,-1.4604,-1.4467,0.0,0.0,-1.4855,-1.5028,-1.5144,-1.5204,-1.5148,-1.4702,-1.4381,0.0,-1.5325,-1.6315,0.0,0.0,-1.8749,-1.9186,-1.919,-1.8826,-1.8605,-1.8861,-1.9052,-1.9055,-1.852,-1.8913,-1.9109,0.0,-1.874,-1.9082,-1.9268,-1.9287,-1.9287,-1.9287,-1.9658,-1.9912,-1.9912,-2.0312,-2.0605,-2.0605,-2.081,-2.1035,-2.1181,-2.1668,-2.206,-2.2246,-2.2656,-2.275,-2.2617,-2.2916,-2.3013,-2.2838,-2.2838,-2.2711,-2.251,-2.2588,-2.248,-2.2227,-2.1797,-2.1611,-2.1582,-2.1133,-2.0957,-2.0928,-2.0703,-2.0605,-2.0605,-2.0605,-2.0605,-2.0605,0.1814,0.1607,0.133,0.0961,0.0701,0.0413,0.0056,-0.0168,-0.029,-0.029,-0.0502,-0.0715,-0.0881,-0.1614,-0.2512,-0.3578,-0.5396,-0.7487,-0.9855,-1.1878,-1.3716,-1.536,-1.5944,-1.6324,-1.65,-1.65,-1.65,-1.65,-1.65,-1.65,-1.65,-1.6948,-1.7247,-1.7423,-1.7802,-1.8066,-1.8157,-1.7557,-1.6956,-1.6337,-1.5737,-1.5088,-1.4445,-1.4445,-1.3694,-1.2728,-1.3377,-1.3445,0.0,0.0,-1.3724,-1.4337,-1.441,-1.4638,-1.4947,-1.5248,-1.5549,-1.6123,-1.7469,0.0,0.0,-1.9902,-2.0625,-2.1025,-2.0069,-1.9683,-1.9466,-1.9403,-1.9486,-1.9412,-1.8838,-1.9085,-1.9235,-1.885,-1.9082,-1.9365,-1.9609,-1.9541,-1.9414,-1.9297,-1.9658,-1.9873,-1.9756,-2.0244,-2.0605,-2.0605,-2.0986,-2.1249,-2.1406,-2.2109,-2.2568,-2.2643,-2.2935,-2.3091,-2.3091,-2.3091,-2.3091,-2.3091,-2.3091,-2.2935,-2.2695,-2.2955,-2.2925,-2.2656,-2.2236,-2.206,-2.2031,-2.1592,-2.1307,-2.1161,-2.0879,-2.0713,-2.0605,-2.0605,-2.0605,-2.0605,0.1847,0.1792,0.1604,0.1003,0.0892,0.068,0.009,-0.0011,-0.0011,-0.0011,-0.0022,-0.0247,-0.0838,-0.1446,-0.2424,-0.3953,-0.4919,-0.6742,-0.9801,-1.1227,-1.286,-1.4941,-1.5413,-1.5908,-1.65,-1.65,-1.65,-1.65,-1.65,-1.65,-1.65,-1.6513,-1.6848,-1.741,-1.7423,-1.7702,-1.8157,-1.7557,-1.6956,-1.6337,-1.5737,-1.4827,-1.3815,-1.3815,-1.2846,-1.1533,-1.2129,0.0,0.0,0.0,-1.1802,-1.2761,-1.3373,-1.4161,0.0,-1.6158,-1.7226,0.0,0.0,0.0,-2.0223,-2.2028,-2.1367,-2.037,-2.0831,-2.0358,-1.9921,-2.0445,-1.9879,-1.9311,-1.9278,-1.863,-1.8335,-1.9131,-1.9277,-1.9617,-2.0449,-2.0166,-1.9746,-1.9336,-1.9658,-1.9756,-1.9346,-2.0106,-2.0605,-2.0605,-2.0986,-2.1416,-2.1846,-2.2275,-2.2705,-2.3062,-2.3091,-2.3091,-2.3091,-2.3091,-2.3091,-2.3091,-2.3091,-2.3091,-2.3081,-2.3091,-2.3091,-2.3052,-2.2676,-2.249,-2.2461,-2.2041,-2.1621,-2.119,-2.1181,-2.0947,-2.0605,-2.0605,-2.0605,-2.0605,0.2084,0.1924,0.1615,0.1003,0.0903,0.0692,0.009,0.0,0.0,0.0,-0.0157,0.0,0.0,0.0,0.0,0.0,-0.4563,-0.5996,-0.7704,-0.9832,-1.1462,-1.245,-1.3842,-1.4711,-1.4906,-1.5564,-1.5908,-1.5908,-1.6303,-1.65,-1.65,-1.65,-1.66,-1.681,-1.681,-1.6678,-1.6431,-1.5835,-1.5231,-1.4629,-1.402,-1.3242,-1.2468,-1.2468,-1.1458,-0.999,0.0,0.0,0.0,0.0,-1.1036,0.0,-1.264,0.0,0.0,-1.6195,0.0,0.0,0.0,0.0,-2.1842,-2.2295,-2.1878,-2.128,-2.085,-2.009,-1.9286,-1.8608,-1.8228,-1.7951,-1.7618,-1.7816,-1.8193,-1.8724,-1.9336,-1.9902,-2.0517,-2.0195,-1.9863,-1.9717,-1.9824,0.0,0.0,0.0,0.0,-2.0605,-2.125,-2.1728,-2.1875,-2.2549,-2.2945,-2.3091,-2.3091,-2.3091,-2.3091,-2.3091,-2.3091,-2.3091,-2.3091,-2.3091,-2.3091,-2.3091,-2.3091,-2.3091,-2.2945,-2.2886,-2.2847,-2.2471,-2.2217,-2.2021,-2.1414,-2.1103,-2.0977,-2.0713,-2.0605,-2.0605,0.2204,0.1986,0.1637,0.1127,0.0961,0.0,0.0,0.0,0.0,0.0,0.0,0.0,0.0,0.0,0.0,0.0,0.0,-0.5139,-0.6274,-0.828,-0.9892,-1.0934,-1.2169,-1.3098,-1.361,-1.411,-1.4429,-1.4608,-1.4976,-1.5328,-1.5653,-1.5653,-1.5729,-1.5854,-1.5854,-1.5644,-1.5231,-1.4366,-1.3794,-1.3335,-1.2171,-1.1394,-1.0951,-1.0581,-0.9645,0.0,0.0,0.0,0.0,0.0,0.0,0.0,0.0,0.0,0.0,0.0,0.0,-2.0315,0.0,-2.2043,-2.2971,-2.3001,-2.2263,-2.1336,-2.0724,-1.9565,-1.8332,-1.7366,-1.7021,-1.6777,-1.6307,-1.6677,-1.7373,-1.8227,-1.8877,-1.9541,-2.0478,-2.0195,-1.9971,-2.0127,-2.0146,-2.0215,0.0,0.0,0.0,-2.0625,-2.1523,-2.2041,-2.1894,-2.2643,-2.3091,-2.3091,-2.3091,-2.3091,-2.3091,-2.3091,-2.3091,-2.3091,-2.3091,-2.3091,-2.3091,-2.3091,-2.3091,-2.3091,-2.3091,-2.3091,-2.3071,-2.2808,-2.2646,-2.2441,-2.1748,-2.1327,-2.1142,-2.0732,-2.0605,-2.0605,0.2204,0.1986,0.1692,0.0,0.0,0.0,0.0,0.0,0.0,0.0,0.0,0.0,0.0,0.0,0.0,0.0,0.0,0.0,-0.5506,0.0,0.0,-1.0247,-1.0405,-1.1087,-1.2475,-1.2157,-1.2176,-1.2628,-1.2686,-1.3128,-1.3934,-1.3956,-1.4171,-1.454,-1.454,-1.4528,-1.438,-1.3182,-1.2614,-1.2378,-1.0237,-0.9371,-0.9264,-0.8282,0.0,0.0,0.0,0.0,0.0,0.0,0.0,0.0,0.0,0.0,0.0,0.0,0.0,-2.2053,-2.3253,-2.3539,-2.3593,-2.4059,-2.2396,-2.0613,-2.0536,-1.8856,-1.7184,-1.6694,-1.6247,-1.5799,-1.5362,0.0,-1.5936,-1.7705,-1.8037,-1.8662,-2.037,-2.0225,-2.0137,0.0,0.0,0.0,0.0,0.0,0.0,-2.0732,0.0,-2.2334,-2.1934,-2.2652,-2.3091,-2.3091,-2.3091,-2.3091,-2.3091,-2.3091,-2.3091,-2.3091,-2.3091,-2.3091,-2.3091,-2.3091,-2.3091,-2.3091,-2.3091,-2.3091,-2.3091,-2.3091,-2.2867,-2.25,-2.208,-2.165,-2.1171,-2.0762,-2.0625,-2.0605,0.0,0.0,0.0,0.0,0.0,0.0,0.0,0.0,0.0,0.0,0.0,0.0,0.0,0.0,0.0,0.0,0.0,0.0,0.0,0.0,0.0,0.0,0.0,0.0,-0.856,-0.9515,0.0,0.0,0.0,-1.1505,-1.1713,-1.1916,-1.2067,-1.2173,-1.2435,-1.2037,-1.1174,-1.0858,-1.0134,-0.9144,0.0,-0.7716,-0.7427,0.0,0.0,0.0,0.0,0.0,0.0,0.0,0.0,0.0,0.0,0.0,-1.9377,0.0,0.0,-2.3003,-2.2272,-2.3347,-2.4321,-2.2871,-2.1855,-2.0851,-1.9447,-1.758,-1.5903,-1.5153,-1.4264,-1.3662,-1.3691,0.0,0.0,-1.7298,-1.834,0.0,-2.0458,-2.0752,0.0,-2.1045,0.0,-2.1592,-2.1709,-2.2109,0.0,0.0,-2.2148,-2.2471,-2.2353,-2.2808,-2.3091,-2.3091,-2.3091,-2.3091,-2.3091,-2.3091,-2.3091,-2.3091,-2.3091,-2.3091,-2.3091,-2.3091,-2.3091,-2.3091,-2.3091,-2.3091,-2.3091,-2.3091,-2.3033,-2.2896,-2.2519,-2.209,-2.167,-2.1221,-2.085,-2.0489,0.0,0.0,0.0,0.0,0.0,0.0,0.0,0.0,0.0,0.0,0.0,0.0,0.0,0.0,0.0,0.0,0.0,0.0,0.0,0.0,0.0,0.0,0.0,0.0,-0.6524,-0.7227,0.0,0.0,0.0,0.0,0.0,-0.9868,-1.0146,-1.0337,-1.0332,-0.9935,-0.9278,0.0,0.0,0.0,0.0,0.0,0.0,0.0,0.0,0.0,0.0,0.0,0.0,0.0,0.0,-1.7578,-1.8619,-1.9834,-2.0891,-2.1006,0.0,-2.34,-2.263,-2.3403,-2.3994,-2.2067,-2.1014,-2.0096,-1.867,-1.6668,-1.4845,-1.3864,-1.2895,0.0,-1.2095,0.0,0.0,0.0,0.0,0.0,-2.0107,-2.083,-2.1268,0.0,-2.1894,0.0,-2.2412,-2.2646,-2.2685,0.0,-2.2656,-2.2705,-2.2519,-2.2867,-2.3091,-2.3091,-2.3091,-2.3091,-2.3091,-2.3091,-2.3091,-2.3091,-2.3091,-2.3091,-2.3091,-2.3091,-2.3091,-2.3091,-2.3091,-2.3091,-2.3091,-2.3091,-2.3091,-2.3052,-2.2676,-2.2256,-2.1836,-2.1356,-2.066,-1.9795,0.0,0.0,0.0,0.0,0.0,0.0,0.0,0.0,0.0,0.0,0.0,0.0,0.0,0.0,0.0,0.0,0.0,0.0,0.0,0.0,0.0,0.0,0.0,0.0,0.0,0.0,0.0,0.0,0.0,0.0,0.0,0.0,0.0,0.0,0.0,0.0,0.0,0.0,0.0,0.0,0.0,0.0,0.0,0.0,0.0,0.0,0.0,0.0,0.0,0.0,-1.7598,-1.9719,-2.0731,-2.1569,-2.2374,-2.3252,-2.3427,-2.3366,-2.345,-2.3404,-2.301,-2.1429,-2.0212,-1.9088,-1.7885,-1.5809,-1.3784,-1.2599,0.0,-1.0947,-1.066,-1.1597,-1.304,-1.5042,0.0,-1.7978,-1.9678,-2.0635,-2.1356,-2.1836,-2.2305,-2.2744,-2.3062,-2.3091,-2.3091,-2.3091,-2.3091,-2.2935,-2.2617,-2.2896,-2.3091,-2.3091,-2.3091,-2.3091,-2.3091,-2.3091,-2.3091,-2.3091,-2.3091,-2.3091,-2.3091,-2.3091,-2.3091,-2.3091,-2.3091,-2.3091,-2.3091,-2.3091,-2.3091,-2.3062,-2.2744,-2.2305,-2.1836,-2.1455,-2.0429,-1.9195,0.0,0.0,0.0,0.0,0.0,0.0,0.0,0.0,0.0,0.0,0.0,0.0,0.0,0.0,0.0,0.0,0.0,0.0,0.0,0.0,0.0,0.0,0.0,0.0,0.0,0.0,0.0,0.0,0.0,0.0,0.0,0.0,0.0,0.0,0.0,0.0,0.0,0.0,0.0,0.0,0.0,0.0,0.0,0.0,0.0,0.0,0.0,0.0,0.0,0.0,-1.8799,-2.0773,-2.0716,-2.2592,-2.4535,-2.299,-2.2786,-2.3022,-2.2761,-2.2486,-2.1925,-2.0499,-2.0054,-1.9181,-1.6275,-1.4062,0.0,0.0,0.0,-0.8747,-0.9514,-1.0838,0.0,-1.4789,0.0,0.0,0.0,0.0,-2.1356,0.0,0.0,0.0,0.0,0.0,0.0,0.0,-2.3091,-2.3062,-2.2994,-2.3052,-2.3091,-2.3091,-2.3091,-2.3091,-2.3091,-2.3091,-2.3091,-2.3091,-2.3091,-2.3091,-2.3091,-2.3091,-2.3091,-2.3091,-2.3091,-2.3091,-2.3091,-2.3091,-2.3091,-2.3091,-2.3013,-2.2568,-2.1875,-2.1807,-2.1179,-2.0206,0.0,0.0,0.0,0.0,0.0,0.0,0.0,0.0,0.0,0.0,-0.2771,0.0,0.0,0.0,0.0,0.0,0.0,0.0,0.0,0.0,0.0,0.0,0.0,0.0,0.0,0.0,0.0,0.0,0.0,0.0,0.0,0.0,0.0,0.0,0.0,0.0,0.0,0.0,0.0,0.0,0.0,0.0,0.0,0.0,0.0,0.0,0.0,0.0,0.0,0.0,-1.7305,-1.9566,-2.1172,-2.2488,-2.3259,-2.2436,-2.1797,-2.14,-2.1475,-2.1388,-2.0997,-1.9884,-1.914,-1.7988,-1.5343,0.0,0.0,0.0,0.0,-0.8128,-0.8889,0.0,0.0,0.0,0.0,0.0,0.0,0.0,0.0,0.0,0.0,0.0,0.0,0.0,0.0,-2.3091,-2.3091,-2.3091,-2.3091,-2.3091,-2.3091,-2.3091,-2.3091,-2.3091,-2.3091,-2.3091,-2.3091,-2.3091,-2.3091,-2.3091,-2.3091,-2.3091,-2.3091,-2.3091,-2.3091,-2.3091,-2.3091,-2.3091,-2.3091,-2.3091,-2.3091,-2.2627,-2.1843,-2.1214,-2.0094,-1.8908,0.0,0.0,0.0,0.0,0.0,0.0,0.0,-0.2803,-0.3423,-0.4087,-0.3478,-0.2958,-0.2881,-0.1975,0.0,0.0,0.0,0.0,0.0,0.0,0.0,0.0,0.0,0.0,0.0,0.0,0.0,0.0,0.0,0.0,0.0,0.0,0.0,0.0,0.0,0.0,0.0,0.0,0.0,0.0,0.0,0.0,0.0,0.0,0.0,0.0,0.0,0.0,0.0,0.0,-1.5019,-1.7191,-2.0001,-2.1004,-2.1172,-2.1436,-2.0735,-2.0017,-2.0572,-2.0597,-2.028,-1.9599,-1.8321,-1.6703,-1.4577,-1.2437,0.0,0.0,0.0,-0.804,-0.8535,0.0,0.0,0.0,0.0,0.0,0.0,0.0,0.0,0.0,0.0,0.0,0.0,0.0,0.0,-2.3091,-2.3091,-2.3091,-2.3091,-2.3091,-2.3091,-2.3091,-2.3091,-2.3091,-2.3091,-2.3091,-2.3091,-2.3091,-2.3091,-2.3091,-2.3091,-2.3091,-2.3091,-2.3091,-2.3091,-2.3091,-2.3091,-2.3091,-2.3091,-2.3081,-2.3003,-2.2549,-2.1741,-2.05,-1.905,-1.7738,0.0,0.0,0.0,0.0,0.0,0.0,0.0,-0.3077,-0.3768,-0.4621,-0.3879,-0.3311,-0.3414,-0.2317,0.0,0.0,0.0,0.0,0.0,0.0,0.0,0.0,0.0,0.0,0.0,0.0,0.0,0.0,0.0,0.0,0.0,0.0,0.0,0.0,0.0,0.0,0.0,0.0,0.0,0.0,0.0,0.0,0.0,0.0,0.0,0.0,0.0,0.0,0.0,0.0,0.0,-1.3948,-1.4801,-1.7327,-1.9891,-1.9628,0.0,0.0,-2.093,-2.0568,-1.993,-1.9872,-1.8271,-1.6134,-1.3688,0.0,0.0,0.0,-0.7773,-0.7992,-0.8288,-0.9348,0.0,0.0,0.0,0.0,0.0,0.0,0.0,0.0,0.0,0.0,0.0,0.0,0.0,-2.3091,-2.3091,-2.3091,-2.3091,-2.3091,-2.3091,-2.3091,-2.3091,-2.3091,-2.3091,-2.3091,-2.3091,-2.3091,-2.3091,-2.3091,-2.3091,-2.3091,-2.3091,-2.3091,-2.3091,-2.3091,-2.3091,-2.3091,-2.3091,-2.3052,-2.2715,-2.2295,-2.1712,-2.0195,-1.9318,-1.8718,0.0,0.0,0.0,0.0,0.0,0.0,0.0,-0.3512,-0.4037,-0.4712,-0.399,-0.3241,-0.2765,-0.2261,0.0,0.0,0.0,0.0,0.0,0.0,0.0,0.0,0.0,0.0,0.0,0.0,0.0,0.0,0.0,0.0,0.0,0.0,0.0,0.0,0.0,0.0,0.0,0.0,0.0,0.0,0.0,0.0,0.0,0.0,0.0,0.0,0.0,0.0,0.0,0.0,0.0,0.0,-1.1716,-1.3122,0.0,0.0,-1.8138,-1.8753,-2.0288,-2.0321,-1.9902,-1.9902,-1.8096,-1.5741,-1.3494,0.0,0.0,-0.788,-0.7709,-0.8033,-0.8456,-0.9401,-1.0517,0.0,-1.2527,-1.3627,0.0,0.0,0.0,0.0,0.0,0.0,0.0,0.0,0.0,-2.3091,-2.3091,-2.3091,-2.3091,-2.3091,-2.3091,-2.3091,-2.3091,-2.3091,-2.3091,-2.3091,-2.3091,-2.3091,-2.3091,-2.3091,-2.3091,-2.3091,-2.3091,-2.3091,-2.3091,-2.3091,-2.3091,-2.3091,-2.2945,-2.2701,-2.2578,-2.21,-2.1262,-1.9359,-1.8346,-1.7819,0.0,0.0,0.0,0.0,0.0,0.0,-0.3289,-0.3783,-0.4155,-0.4599,-0.3878,-0.3033,-0.229,-0.209,-0.1928,-0.1669,0.0,0.0,0.0,0.0,0.0,0.0,0.0,0.0,0.0,0.0,0.0,0.0,0.0,0.0,0.0,0.0,0.0,0.0,0.0,0.0,0.0,0.0,0.0,0.0,0.0,0.0,0.0,0.0,0.0,0.0,0.0,0.0,0.0,0.0,0.0,0.0,0.0,0.0,0.0,0.0,-1.6635,-1.7655,-1.9131,-1.9587,-1.9626,-1.9395,-1.7499,-1.5186,0.0,0.0,-0.9473,-0.7938,-0.79,-0.8296,-0.8837,-0.9602,-1.0484,-1.1443,-1.1943,-1.2808,-1.4541,0.0,0.0,0.0,0.0,0.0,0.0,0.0,-2.296,-2.258,-2.2906,-2.295,-2.2589,-2.2916,-2.3091,-2.3091,-2.3091,-2.2916,-2.2589,-2.2906,-2.2906,-2.258,-2.2916,-2.3091,-2.3091,-2.3091,-2.3091,-2.3091,-2.3091,-2.3091,-2.3081,-2.2955,-2.2783,-2.249,-2.2236,-2.1726,-2.093,-1.8631,-1.7557,-1.709,0.0,0.0,0.0,0.0,0.0,0.0,0.0,-0.3788,-0.4073,-0.4272,-0.3494,-0.272,-0.2249,-0.1843,-0.1529,-0.1321,0.0,0.0,0.0,0.0,0.0,0.0,0.0,0.0,0.0,0.0,0.0,0.0,0.0,0.0,0.0,0.0,0.0,0.0,0.0,0.0,0.0,0.0,0.0,0.0,0.0,0.0,0.0,0.0,0.0,0.0,0.0,0.0,0.0,0.0,0.0,0.0,0.0,0.0,0.0,0.0,-1.5288,-1.7224,-1.7384,-1.8253,-1.8925,-1.819,-1.6392,-1.4312,0.0,-1.0868,-0.9511,-0.8173,-0.8324,-0.8857,-0.9399,-0.9922,-1.0586,-1.1469,-1.1943,-1.2808,-1.4541,0.0,0.0,0.0,0.0,0.0,0.0,0.0,-2.2589,-2.1426,-2.2448,0.0,-2.1382,-2.2448,-2.3091,-2.3091,-2.3091,-2.2536,-2.1337,-2.2492,-2.2492,-2.1337,-2.2536,-2.3091,-2.3091,-2.3091,-2.3091,-2.3091,-2.3091,-2.3091,-2.3062,-2.2685,-2.2519,-2.2422,-2.1541,-2.12,-2.0891,-1.8256,-1.7302,-1.6968,0.0,0.0,0.0,0.0,0.0,0.0,0.0,-0.343,-0.3389,-0.341,-0.255,-0.1785,-0.1355,-0.1112,-0.0999,-0.1019,0.0,0.0,0.0,0.0,0.0,0.0,0.0,0.0,0.0,0.0,0.0,0.0,0.0,0.0,0.0,0.0,0.0,0.0,0.0,0.0,0.0,0.0,0.0,0.0,0.0,0.0,0.0,0.0,0.0,0.0,0.0,0.0,0.0,0.0,0.0,0.0,0.0,0.0,0.0,-1.0109,-1.3109,0.0,-1.6565,-1.6922,-1.6915,-1.6345,-1.5052,-1.3491,-1.192,-1.1018,-1.0118,-0.8729,-0.8878,-0.9299,-0.9459,-0.9942,-1.0782,-1.225,-1.2612,0.0,0.0,0.0,0.0,0.0,0.0,0.0,0.0,0.0,-2.295,-2.2536,-2.2862,-2.295,-2.2536,-2.2906,-2.2721,-2.1898,-2.1845,-2.1302,-2.0079,-2.1257,-2.1658,-2.1293,-2.2536,-2.3091,-2.3091,-2.3091,-2.3091,-2.3091,-2.3091,-2.3091,-2.3062,-2.2685,-2.2344,-2.2031,-2.1414,-2.1045,-2.0516,-1.8152,-1.7302,-1.709,0.0,0.0,0.0,0.0,0.0,0.0,0.0,-0.3131,-0.3003,-0.273,-0.1865,-0.1096,-0.0609,-0.0486,-0.0509,-0.0689,0.0,0.0,0.0,0.0,0.0,0.0,0.0,0.0,0.0,0.0,0.0,0.0,0.0,0.0,0.0,0.0,0.0,0.0,0.0,0.0,0.0,0.0,0.0,0.0,0.0,0.0,-0.404,0.0,0.0,0.0,0.0,0.0,0.0,0.0,0.0,0.0,0.0,0.0,0.0,0.0,-1.0482,-1.2713,0.0,-1.4771,-1.4785,-1.4002,-1.3266,-1.2374,-1.1118,-1.0525,-0.9995,-0.9159,-0.9099,-0.9319,-0.9725,-1.0213,-1.0948,-1.2201,-1.2553,0.0,0.0,0.0,0.0,0.0,0.0,0.0,0.0,-2.2906,-2.3091,-2.3091,-2.3091,-2.3091,-2.3091,-2.2677,-2.1854,-2.0666,-2.1069,-2.0486,-1.8818,-2.0486,-2.1069,-2.0621,-2.2315,-2.3091,-2.3091,-2.3091,-2.3091,-2.3091,-2.3091,-2.3091,0.0,-2.251,-2.2119,-2.1826,-2.1221,-2.0564,-1.9766,-1.798,-1.7302,-1.7139,0.0,0.0,0.0,0.0,0.0,0.0,0.0,0.0,0.0,0.0,-0.1397,-0.0639,-0.0062,0.0012,0.0,0.0,0.0,0.0,0.0,0.0,0.0,0.0,0.0,0.0,0.0,0.0,0.0,-0.9108,-1.027,-1.1165,-1.175,0.0,0.0,0.0,0.0,0.0,0.0,0.0,0.0,0.0,0.0,-0.3102,0.0,0.0,0.0,0.0,0.0,0.0,0.0,0.0,0.0,0.0,0.0,0.0,0.0,0.0,0.0,0.0,0.0,-1.1921,-1.2497,-1.1281,-1.1157,-1.1048,-1.008,-0.9646,0.0,-0.954,-0.9159,-0.9116,-1.0116,-1.0624,-1.1052,-1.153,0.0,0.0,0.0,0.0,0.0,0.0,0.0,0.0,-2.1934,-2.2643,-2.3091,-2.3091,-2.3003,-2.296,-2.296,-2.1845,-2.0621,-1.9397,-2.044,-1.9943,-1.7598,-1.9943,-2.0621,-1.9542,-2.1952,-2.3091,-2.3091,-2.3091,-2.3091,-2.3091,-2.3091,-2.3081,-2.2984,-2.2217,-2.1865,-2.1758,-2.0859,-1.9883,-1.8877,-1.7698,-1.7253,-1.705,0.0,0.0,0.0,0.0,0.0,0.0,0.0,0.0,0.0,0.0,0.0,-0.0382,-0.0035,0.0181,0.0,0.0,0.0,0.0,0.0,0.0,0.0,0.0,0.0,0.0,0.0,0.0,0.0,-0.9108,-1.0704,-1.173,-1.2232,-1.2159,0.0,0.0,0.0,0.0,0.0,0.0,0.0,0.0,-0.215,-0.2662,0.0,0.0,0.0,0.0,-0.6351,-0.5875,0.0,0.0,0.0,0.0,0.0,0.0,0.0,0.0,-0.679,-0.7107,-0.7832,0.0,-0.973,-0.9071,-0.9663,-1.0257,0.0,-1.0077,-1.0454,0.0,0.0,-1.0011,-1.0315,-1.0655,-1.1095,0.0,0.0,0.0,0.0,0.0,0.0,0.0,0.0,0.0,-2.2789,-2.2984,-2.3091,-2.3091,-2.2262,-2.1702,-2.1702,-2.0576,-1.936,-1.8141,-1.8411,-1.7816,-1.6251,-1.8672,-1.9761,-1.9542,-2.1952,-2.3091,-2.3091,-2.3091,-2.3091,-2.3091,-2.3091,-2.2916,-2.2617,-2.21,-2.1689,-2.1247,-1.9883,-1.9244,-1.8877,-1.7698,-1.6764,-1.615,0.0,0.0,0.0,0.0,0.0,0.0,0.0,0.0,0.0,0.0,0.0,0.0,0.0,0.0,0.0,0.0,0.0,0.0,0.0,0.0,0.0,0.0,0.0,0.0,0.0,0.0,0.0,0.0,0.0,-1.2699,0.0,0.0,0.0,0.0,0.0,0.0,0.0,0.0,0.0,0.0,-0.1981,0.0,0.0,0.0,0.0,0.0,-0.6351,-0.5813,0.0,-0.4429,-0.4156,-0.4037,0.0,0.0,0.0,0.0,-0.5956,-0.5993,-0.6166,-0.731,-0.8309,-0.7792,-0.8647,-0.958,-0.9361,0.0,0.0,0.0,0.0,0.0,-1.0143,0.0,0.0,0.0,0.0,0.0,0.0,0.0,0.0,0.0,0.0,-2.2643,0.0,-2.1829,-2.1923,-2.148,-2.074,-2.027,-2.027,-1.9106,-1.8092,-1.7319,-1.6742,-1.6248,-1.5778,-1.7716,-1.8948,-1.9542,-2.14,-2.2262,-2.2306,-2.2669,-2.2529,-2.2023,-2.238,-2.2432,-2.2146,-2.1244,-2.0715,-2.0308,-1.8829,-1.79,-1.7407,-1.6797,-1.6191,-1.5779,0.0,0.0,0.0,0.0,0.0,0.0,0.0,0.0,0.0,0.0,0.0,0.0,0.0,0.0,0.0,0.0,0.0,0.0,0.0,0.0,0.0,0.0,0.0,0.0,0.0,0.0,0.0,0.0,0.0,0.0,0.0,0.0,-1.2657,0.0,0.0,0.0,0.0,0.0,0.0,0.0,-0.1996,0.0,0.0,0.0,0.0,0.0,0.0,0.0,0.0,-0.473,-0.4473,-0.4248,-0.4602,0.0,0.0,0.0,0.0,0.0,-0.5407,-0.6576,-0.7648,-0.7196,-0.8159,-0.9221,-0.9329,0.0,0.0,0.0,0.0,0.0,0.0,0.0,0.0,0.0,0.0,0.0,0.0,0.0,0.0,0.0,0.0,0.0,-1.9557,-2.007,-2.0237,-1.9442,-1.8962,-1.8745,-1.8745,-1.7535,-1.6743,-1.6514,-1.5524,-1.5197,-1.5691,-1.694,-1.8072,-1.9097,-2.0303,-2.0891,-2.0926,-2.1768,-2.1608,-2.065,-2.1511,-2.1846,-2.1675,-2.0231,-1.9539,-1.9335,-1.7694,-1.6519,-1.5696,-1.5696,-1.5621,-1.5455,0.0,0.0,0.0,0.0,0.0,0.0,0.0,0.0,0.0,0.0,0.0,0.0,0.0,0.0,0.0,0.0,0.0,0.0,0.0,0.0,0.0,0.0,0.0,0.0,0.0,0.0,0.0,0.0,0.0,0.0,-1.4242,-1.3934,-1.1868,0.0,0.0,0.0,0.0,0.0,0.0,-0.1455,0.0,0.0,0.0,0.0,0.0,0.0,0.0,0.0,0.0,-0.5302,-0.5151,-0.5103,-0.5166,0.0,0.0,0.0,0.0,0.0,-0.592,-0.6591,-0.719,-0.7452,-0.8561,-0.977,-1.0405,0.0,0.0,0.0,0.0,0.0,0.0,0.0,0.0,0.0,0.0,0.0,0.0,0.0,0.0,0.0,0.0,-1.9143,-1.8754,-1.8877,-1.8912,-1.8746,-1.7739,-1.7146,-1.7146,-1.5981,-1.5311,-1.527,-1.5091,-1.5055,-1.5142,-1.6313,-1.7046,-1.7223,-1.8442,-1.9005,-1.9049,-2.0068,-2.0473,-2.0337,-2.1428,-2.168,-2.1207,-2.007,-1.9385,-1.8878,-1.678,-1.582,-1.5696,-1.5696,-1.5137,-1.4334,0.0,0.0,0.0,0.0,0.0,0.0,0.0,0.0,0.0,0.0,0.0,0.0,0.0,0.0,0.0,0.0,0.0,0.0,0.0,0.0,0.0,0.0,0.0,0.0,0.0,0.0,0.0,0.0,0.0,-1.3496,-1.46,-1.2836,-1.0656,-0.8119,0.0,0.0,0.0,0.0,0.0,-0.2115,0.0,0.0,0.0,0.0,0.0,0.0,0.0,0.0,0.0,0.0,-0.5293,-0.5293,-0.5293,0.0,0.0,0.0,0.0,0.0,-0.5645,-0.6454,-0.7406,-0.8214,-0.9363,-1.0486,-1.1187,0.0,0.0,0.0,0.0,0.0,0.0,0.0,0.0,0.0,0.0,0.0,0.0,0.0,0.0,0.0,0.0,-1.807,-1.6778,-1.7074,-1.7173,-1.6675,-1.5965,-1.5566,-1.5566,-1.5018,-1.4649,-1.4539,-1.4489,-1.4489,-1.4489,-1.5074,-1.5821,-1.6807,-1.7367,-1.7932,-1.8536,-1.9435,-1.9846,-1.9837,-2.0766,-2.1094,-2.079,-1.9719,-1.8789,-1.79,-1.6314,-1.5338,-1.4852,-1.4852,-1.4531,-1.4088,0.0,0.0,0.0,0.0,0.0,0.0,0.0,0.0,0.0,0.0,0.0,0.0,0.0,0.0,0.0,0.0,0.0,0.0,0.0,0.0,0.0,0.0,0.0,0.0,0.0,0.0,-0.8722,-1.0719,-1.224,-1.3389,-1.4108,-1.1389,-0.9286,0.0,0.0,0.0,0.0,0.0,-0.2511,-0.2801,0.0,0.0,0.0,0.0,0.0,0.0,0.0,0.0,0.0,0.0,0.0,0.0,0.0,0.0,0.0,-0.5293,-0.5293,-0.5327,-0.5467,-0.6442,-0.7714,-0.8996,-1.0112,-1.1156,-1.2115,0.0,0.0,0.0,0.0,0.0,0.0,0.0,0.0,0.0,0.0,0.0,0.0,0.0,-1.6423,-1.4625,-1.6266,-1.6804,-1.497,-1.5382,-1.5512,-1.4825,-1.4549,-1.4422,-1.4422,-1.4422,-1.4315,-1.4095,-1.4088,-1.4088,-1.4088,-1.4088,-1.4808,-1.6154,-1.6154,-1.6754,-1.7811,-1.8661,-1.9154,-1.934,-2.0222,-2.0605,-2.0489,-1.9155,-1.8109,-1.718,-1.5827,-1.4817,-1.4088,-1.4088,-1.4088,-1.4088,0.0,0.0,0.0,0.0,0.0,0.0,0.0,0.0,0.0,0.0,0.0,0.0,0.0,0.0,0.0,0.0,0.0,0.0,0.0,0.0,0.0,0.0,0.0,0.0,0.0,-0.7687,-0.9266,-1.0796,-1.2278,-1.2453,-1.1347,-0.9754,-0.7794,-0.5599,0.0,0.0,0.0,0.0,0.0,-0.302,-0.4477,0.0,0.0,0.0,0.0,0.0,0.0,0.0,0.0,0.0,0.0,0.0,0.0,0.0,-0.5293,-0.5293,-0.5293,-0.5414,-0.5981,-0.6753,-0.781,-0.9498,-1.0562,0.0,-1.3515,-1.399,0.0,0.0,0.0,0.0,0.0,0.0,0.0,0.0,0.0,0.0,0.0,0.0,-1.4326,-1.4164,-1.4304,-1.4353,-1.4191,-1.4213,-1.4249,-1.4148,-1.4128,-1.4122,-1.4122,-1.4122,-1.4108,-1.4088,-1.4088,-1.4088,-1.4088,-1.4088,-1.4151,-1.4269,-1.4269,-1.4839,-1.5937,-1.6976,-1.8023,-1.9082,-2.0137,-2.0605,-2.044,-1.831,-1.7383,-1.7098,-1.5019,-1.4173,-1.4088,-1.4088,-1.4088,-1.4088,0.0,0.0,0.0,0.0,0.0,0.0,0.0,0.0,0.0,0.0,0.0,0.0,0.0,0.0,0.0,0.0,0.0,0.0,0.0,0.0,0.0,0.0,0.0,-0.4964,-0.6147,-0.7808,-0.9403,-1.0924,-1.1786,-1.1519,-1.0206,-0.9143,0.0,0.0,0.0,0.0,0.0,0.0,0.0,-0.404,-0.4913,-0.541,0.0,0.0,0.0,0.0,0.0,0.0,0.0,0.0,-0.4807,-0.486,-0.519,-0.5293,-0.5293,-0.5293,-0.5293,-0.5347,-0.5584,-0.7017,-0.862,-0.9274,0.0,0.0,0.0,0.0,0.0,0.0,0.0,0.0,0.0,0.0,0.0,0.0,0.0,0.0,-1.4154,-1.4088,-1.4088,-1.4088,-1.4088,-1.4088,-1.4088,-1.4088,-1.4088,-1.4088,-1.4088,-1.4088,-1.4088,-1.4088,-1.4088,-1.4088,-1.4088,-1.4088,-1.4088,-1.4088,-1.4088,-1.4088,-1.4088,-1.5026,-1.6723,-1.7131,-1.7908,-1.9036,-1.9441,-1.9599,-1.9481,-1.7948,-1.6927,-1.6157,-1.4699,-1.4088,-1.4088,-1.4088,-1.4088,-1.4088,0.0,0.0,0.0,0.0,0.0,0.0,0.0,0.0,0.0,0.0,0.0,0.0,0.0,0.0,0.0,0.0,0.0,0.0,0.0,0.0,0.0,0.0,0.0,-0.4908,-0.5918,-0.7467,-0.8958,-1.0393,-1.0713,-1.0285,-0.9107,0.0,0.0,0.0,0.0,0.0,0.0,0.0,0.0,0.0,-0.552,-0.5702,0.0,0.0,0.0,0.0,0.0,0.0,0.0,0.0,-0.4525,-0.4707,-0.4937,-0.5157,-0.5293,-0.5293,-0.5427,-0.5591,-0.5591,-0.7327,-0.923,0.0,0.0,0.0,0.0,0.0,0.0,0.0,0.0,0.0,0.0,0.0,0.0,0.0,0.0,-1.4621,-1.4168,-1.4088,-1.4088,-1.4088,-1.4088,-1.4088,-1.4088,-1.4088,-1.4088,-1.4088,-1.4088,-1.4088,-1.4088,-1.4088,-1.4088,-1.4088,-1.4088,-1.4088,-1.4088,-1.4088,-1.4292,-1.4615,-1.425,-1.5068,-1.6805,-1.6805,-1.7415,-1.847,-1.847,-1.847,-1.839,-1.7253,-1.6157,-1.5137,-1.437,-1.4088,-1.4088,-1.4088,-1.4088,-1.4088,0.0,0.0,0.0,0.0,0.0,0.0,0.0,0.0,0.0,0.0,0.0,0.0,0.0,0.0,0.0,0.0,0.0,0.0,0.0,0.0,0.0,0.0,0.0,-0.4561,-0.5566,-0.6706,-0.788,-0.9084,-0.9084,-0.8674,-0.7881,-0.7348,0.0,0.0,0.0,0.0,0.0,0.0,0.0,0.0,-0.6384,-0.605,-0.544,0.0,0.0,0.0,0.0,0.0,0.0,0.0,-0.3899,-0.4396,-0.4388,-0.481,-0.5284,-0.5293,-0.5715,-0.6196,-0.6214,-0.7734,0.0,0.0,0.0,0.0,0.0,0.0,0.0,0.0,0.0,0.0,0.0,0.0,0.0,-1.312,-1.3413,-1.3706,-1.4048,-1.4088,-1.4088,-1.4088,-1.4088,-1.4088,-1.4088,-1.4088,-1.4088,-1.4088,-1.4088,-1.4088,-1.4088,-1.4088,-1.4088,-1.4088,-1.4088,-1.4088,-1.4088,-1.4088,-1.4608,-1.5655,-1.4615,-1.465,-1.5696,-1.5696,-1.6273,-1.7302,-1.7302,-1.7302,-1.7212,-1.615,-1.5054,-1.4088,-1.4088,-1.4088,-1.4088,-1.4088,-1.4088,-1.4088,0.0,0.0,0.0,0.0,0.0,0.0,0.0,0.0,0.0,0.0,0.0,0.0,0.0,0.0,0.0,0.0,0.0,0.0,0.0,0.0,0.0,0.0,0.0,0.0,0.0,0.0,-0.6774,-0.7841,-0.7746,-0.7471,0.0,0.0,0.0,-0.7799,0.0,0.0,0.0,0.0,0.0,0.0,-0.6468,-0.6193,-0.5743,0.0,0.0,0.0,0.0,0.0,0.0,0.0,0.0,0.0,-0.3877,-0.4225,-0.4554,-0.4746,-0.5228,-0.5873,-0.6684,-0.8379,0.0,0.0,0.0,0.0,0.0,0.0,0.0,0.0,0.0,0.0,0.0,0.0,0.0,-1.3413,-1.3547,-1.3706,-1.4048,-1.4088,-1.4088,-1.4088,-1.4088,-1.4088,-1.4088,-1.4088,-1.4088,-1.4088,-1.4088,-1.4088,-1.4088,-1.4088,-1.4088,-1.4088,-1.4088,-1.4088,-1.4088,-1.4088,-1.425,-1.4573,-1.425,-1.465,-1.5696,-1.5696,-1.5861,-1.6191,-1.6191,-1.6191,-1.6108,-1.5019,-1.437,-1.4088,-1.4088,-1.4088,-1.4088,-1.4088,-1.4088,-1.4088,0.0,0.0,0.0,0.0,0.0,0.0,0.0,0.0,0.0,0.0,0.0,-0.0679,0.0,0.0,0.0,0.0,0.0,0.0,0.0,0.0,0.0,0.0,0.0,0.0,0.0,-0.5116,-0.5777,0.0,0.0,0.0,0.0,0.0,0.0,-0.8731,0.0,-0.8503,0.0,0.0,0.0,0.0,-0.6594,-0.6293,-0.5932,0.0,0.0,0.0,0.0,0.0,0.0,0.0,0.0,0.0,-0.3435,0.0,-0.4215,-0.4734,-0.5384,-0.6155,-0.7192,0.0,0.0,0.0,0.0,0.0,0.0,0.0,0.0,0.0,0.0,0.0,0.0,-1.3347,0.0,-1.3573,-1.37,-1.3881,-1.4062,-1.4088,-1.4088,-1.4088,-1.4088,-1.4088,-1.4088,-1.4088,-1.4041,-1.3921,-1.3908,-1.3861,-1.3748,-1.3741,-1.3741,-1.3741,-1.3854,-1.3854,-1.3741,-1.3968,-1.4028,-1.3915,-1.4035,-1.4454,-1.5054,-1.5054,-1.5054,-1.5054,-1.5054,-1.5054,-1.5012,-1.437,-1.4088,-1.4088,-1.4088,-1.4088,-1.4088,-1.4088,-1.4088,-1.4068,0.0,0.0,0.1297,0.1131,0.0,0.0,0.0,0.0,0.0,0.0,-0.0156,-0.087,0.0,0.0,0.0,-0.1748,0.0,0.0,0.0,0.0,0.0,0.0,0.0,0.0,0.0,0.0,0.0,0.0,0.0,0.0,0.0,0.0,-0.8301,-0.9422,0.0,-0.8776,0.0,0.0,0.0,0.0,-0.6717,-0.6313,-0.5992,-0.5536,0.0,0.0,0.0,0.0,0.0,0.0,0.0,0.0,-0.3069,-0.3469,-0.4078,-0.492,-0.5824,-0.6746,0.0,0.0,0.0,0.0,0.0,0.0,0.0,0.0,0.0,0.0,0.0,0.0,-1.364,-1.3646,-1.3646,-1.3646,-1.3908,-1.4075,-1.4048,-1.4048,-1.4035,-1.4008,-1.4008,-1.4008,-1.4008,-1.4008,-1.3895,-1.3586,-1.356,-1.3447,-1.3227,-1.3213,-1.3213,-1.3213,-1.3427,-1.344,-1.3213,-1.3741,-1.3868,-1.3567,-1.3874,-1.4008,-1.4008,-1.4035,-1.4048,-1.4048,-1.4048,-1.4062,-1.4088,-1.4088,-1.4088,-1.4088,-1.4088,-1.4075,-1.4048,-1.4048,-1.4028,-1.3968,0.0,0.0,0.1566,0.117,0.0,0.0,0.0,0.0,0.0646,0.0245,-0.0211,-0.069,-0.1163,-0.133,0.0,-0.1408,-0.1216,0.0,0.0,0.0,0.0,0.0,0.0,0.0,0.0,0.0,0.0,0.0,0.0,0.0,0.0,0.0,0.0,-0.9728,0.0,-0.9479,0.0,0.0,0.0,-0.6896,-0.6555,-0.6071,-0.5515,-0.5198,-0.447,0.0,0.0,0.0,0.0,0.0,0.0,0.0,-0.2855,-0.3106,-0.3398,-0.3956,-0.5077,-0.6416,0.0,0.0,0.0,0.0,0.0,0.0,0.0,0.0,0.0,0.0,0.0,0.0,-1.3948,-1.3988,-1.3988,-1.3988,-1.4048,-1.4008,-1.3733,-1.37,-1.3613,-1.3427,-1.34,-1.34,-1.34,-1.34,-1.3373,-1.3307,-1.3307,-1.3273,-1.3213,-1.3213,-1.3213,-1.3213,-1.3273,-1.3273,-1.3213,-1.3333,-1.3367,-1.3307,-1.3367,-1.34,-1.3407,-1.3593,-1.37,-1.37,-1.37,-1.3874,-1.4088,-1.4088,-1.4088,-1.4088,-1.4088,-1.3941,-1.37,-1.37,-1.3553,-1.3387,0.0,0.0,0.0,0.0,0.0,0.0,0.0,0.0,0.0329,0.021,-0.0401,-0.0903,-0.1083,-0.1103,0.0,0.0,-0.0622,-0.0578,0.0,0.0,0.0,0.0,0.0,0.0,0.0,0.0,0.0,0.0,0.0,0.0,0.0,0.0,0.0,-1.0573,0.0,-1.022,0.0,0.0,0.0,-0.6626,-0.6264,-0.5829,-0.5365,-0.5104,-0.4375,-0.346,-0.3194,0.0,0.0,0.0,0.0,0.0,0.0,0.0,-0.3404,-0.4003,-0.498,-0.6172,0.0,0.0,0.0,0.0,0.0,0.0,0.0,0.0,0.0,0.0,0.0,0.0,-1.3641,-1.3667,-1.3667,-1.3667,-1.3667,-1.3614,-1.3413,-1.34,-1.334,-1.3227,-1.3213,-1.3213,-1.3213,-1.3213,-1.3153,-1.3038,-1.3025,-1.2926,-1.2779,-1.2772,-1.2772,-1.2772,-1.2913,-1.2919,-1.2779,-1.3066,-1.3133,-1.3025,-1.314,-1.3133,-1.3038,-1.33,-1.34,-1.34,-1.34,-1.352,-1.3667,-1.3667,-1.3667,-1.3667,-1.3667,-1.3574,-1.34,-1.34,-1.33,-1.3186,0.0,0.0,0.0,0.0,0.0,0.0,0.0,0.0,0.0,0.0154,-0.069,-0.1219,-0.0994,-0.0877,-0.0686,0.0,0.0,0.0,-0.0311,0.0,0.0,0.0,0.0,0.0,0.0,0.0,0.0,0.0,0.0,0.0,0.0,0.0,0.0,-1.1629,0.0,0.0,0.0,0.0,-0.6991,-0.6293,-0.5803,-0.5454,-0.518,-0.4906,-0.4229,-0.34,-0.3177,-0.2783,-0.2426,-0.2921,0.0,0.0,0.0,0.0,-0.3655,-0.4305,-0.5043,-0.5901,0.0,0.0,0.0,0.0,0.0,0.0,0.0,0.0,0.0,0.0,0.0,-1.3146,-1.32,-1.3213,-1.3213,-1.3213,-1.3213,-1.3193,-1.314,-1.3133,-1.3113,-1.306,-1.3053,-1.3053,-1.3053,-1.3053,-1.2946,-1.273,-1.2703,-1.2596,-1.2318,-1.2305,-1.2305,-1.2305,-1.2583,-1.2589,-1.2305,-1.2806,-1.2926,-1.271,-1.2933,-1.2919,-1.2717,-1.2939,-1.308,-1.3133,-1.3133,-1.316,-1.3213,-1.3213,-1.3213,-1.3213,-1.3213,-1.318,-1.3133,-1.3133,-1.31,-1.3019,0.0,0.0,0.0,0.0,0.0,0.0,0.0,0.0,0.0,0.0,-0.1061,-0.1285,-0.1252,-0.0779,-0.0356,-0.0078,0.0456,0.0545,0.0,0.0,0.0,0.0,0.0,0.0,0.0,0.0,0.0,0.0,0.0,0.0,0.0,0.0,0.0,-1.2485,0.0,0.0,0.0,0.0,-0.651,-0.5585,-0.5057,-0.469,-0.4413,-0.4143,-0.3674,-0.3147,-0.3112,-0.3046,-0.3067,-0.366,-0.3732,0.0,0.0,0.0,0.0,-0.3998,-0.4693,0.0,0.0,0.0,0.0,0.0,0.0,0.0,0.0,0.0,0.0,0.0,0.0,-1.2924,-1.316,-1.3213,-1.3213,-1.3213,-1.3213,-1.312,-1.2884,-1.2844,-1.275,-1.2452,-1.2425,-1.2425,-1.2425,-1.2425,-1.2405,-1.2365,-1.2365,-1.2345,-1.2305,-1.2305,-1.2305,-1.2305,-1.2338,-1.2345,-1.2305,-1.2385,-1.2405,-1.2365,-1.2405,-1.2398,-1.2365,-1.2405,-1.2565,-1.2844,-1.2844,-1.2998,-1.3213,-1.3213,-1.3213,-1.3213,-1.3213,-1.3046,-1.2844,-1.2844,-1.2683,-1.2418,0.0,0.0,0.0,0.0,0.0,0.0,0.0,0.0,0.0,0.0,0.0,-0.1505,-0.1325,-0.0631,0.0011,0.0468,0.0881,0.0,0.0,0.0,0.0,0.0,0.0,0.0,0.0,0.0,0.0,0.0,0.0,0.0,0.0,-1.154,-1.2387,0.0,0.0,0.0,0.0,0.0,0.0,-0.5551,-0.4786,-0.46,-0.4736,-0.413,-0.3871,-0.3766,-0.327,-0.3004,-0.2946,-0.344,-0.3725,-0.3879,-0.3893,0.0,0.0,0.0,0.0,0.0,0.0,0.0,0.0,0.0,0.0,0.0,0.0,0.0,0.0,0.0,-1.2405,-1.2576,-1.2679,-1.2705,-1.2705,-1.2705,-1.2705,-1.2652,-1.2556,-1.2536,-1.2489,-1.2318,-1.2305,-1.2305,-1.2305,-1.2305,-1.2305,-1.2305,-1.2305,-1.2305,-1.2305,-1.2305,-1.2305,-1.2305,-1.2305,-1.2305,-1.2305,-1.2305,-1.2305,-1.2305,-1.2305,-1.2305,-1.2305,-1.2305,-1.2371,-1.2536,-1.2536,-1.2579,-1.2705,-1.2705,-1.2705,-1.2705,-1.2705,-1.2619,-1.2536,-1.2536,-1.2412,-1.2305,0.0,0.0,0.0,0.0,0.0,0.0,0.0,0.0,0.0,0.0,0.0,-0.1645,-0.1242,0.0,0.0,0.0,0.1036,0.0,0.0,0.0,0.0,0.0,0.0,0.0,0.0,0.0,0.0,0.0,0.0,0.0,-1.2851,-1.2608,-1.3649,0.0,-1.4331,0.0,0.0,0.0,0.0,-0.5736,-0.4962,-0.4922,-0.5254,-0.4702,-0.4644,-0.4753,-0.3948,0.0,0.0,0.0,0.0,0.0,0.0,0.0,0.0,0.0,0.0,0.0,0.0,0.0,0.0,0.0,0.0,0.0,0.0,0.0,0.0,0.0,-1.2078,-1.2078,-1.2078,-1.2198,-1.2305,-1.2305,-1.2305,-1.2305,-1.2305,-1.2305,-1.2305,-1.2305,-1.2305,-1.2305,-1.2305,-1.2305,-1.2305,-1.2305,-1.2305,-1.2305,-1.2305,-1.2305,-1.2305,-1.2305,-1.2305,-1.2305,-1.2305,-1.2305,-1.2305,-1.2305,-1.2305,-1.2305,-1.2305,-1.2305,-1.2305,-1.2305,-1.2305,-1.2305,-1.2305,-1.2305,-1.2305,-1.2305,-1.2305,-1.2305,-1.2305,-1.2305,-1.2305,-1.2305,0.0,0.0,0.0,0.0,0.0,0.0,0.0,0.0,0.0,0.0,0.0,-0.1579,-0.0981,-0.0366,0.0111,0.04,0.0732,0.0,0.0,0.0,0.0,0.0,0.0,0.0,0.0,0.0,0.0,0.0,0.0,0.0,-1.3005,-1.3615,-1.4769,-1.6262,-1.4174,-1.1611,-0.8812,0.0,0.0,-0.6059,-0.5747,-0.5653,-0.5708,-0.5975,-0.6082,-0.6023,-0.5404,0.0,0.0,0.0,0.0,0.0,0.0,0.0,0.0,0.0,0.0,0.0,0.0,0.0,0.0,0.0,0.0,0.0,0.0,0.0,0.0,0.0,-1.1435,-1.1435,-1.1435,-1.1924,-1.2305,-1.2305,-1.2305,-1.2305,-1.2305,-1.2305,-1.2305,-1.2305,-1.2305,-1.2305,-1.2305,-1.2305,-1.2305,-1.2305,-1.2305,-1.2305,-1.2305,-1.2305,-1.2305,-1.2305,-1.2305,-1.2305,-1.2305,-1.2305,-1.2305,-1.2305,-1.2305,-1.2305,-1.2305,-1.2305,-1.2305,-1.2305,-1.2305,-1.2305,-1.2305,-1.2305,-1.2305,-1.2305,-1.2305,-1.2305,-1.2305,-1.2305,-1.2305,-1.2305,0.0,0.0,0.0,0.0,0.0,0.0,0.0,0.0,0.0,0.0,0.0,0.0,0.0,-0.094,-0.0453,-0.0145,-0.0352,0.0,0.0,0.0,0.0,0.0,0.0,0.0,0.0,0.0,0.0,0.0,0.0,-0.8888,-1.0946,-1.1161,-1.1778,-1.2745,-1.2961,-1.199,-1.004,-0.7887,0.0,0.0,-0.5842,-0.6033,0.0,-0.6753,-0.7188,-0.7632,0.0,0.0,0.0,0.0,0.0,0.0,-0.5435,-0.4802,-0.4074,-0.3774,0.0,0.0,0.0,0.0,0.0,0.0,0.0,0.0,0.0,0.0,0.0,-1.1089,-1.1296,-1.1389,-1.1389,-1.175,-1.2024,-1.2024,-1.2178,-1.2305,-1.2305,-1.2305,-1.2305,-1.2305,-1.2305,-1.2305,-1.2305,-1.2305,-1.2225,-1.2074,-1.2024,-1.1937,-1.1715,-1.1702,-1.1702,-1.1702,-1.1702,-1.183,-1.206,-1.2204,-1.2305,-1.2305,-1.2305,-1.2305,-1.2305,-1.2305,-1.2305,-1.2305,-1.2305,-1.2305,-1.2305,-1.2305,-1.2305,-1.2305,-1.2305,-1.2305,-1.2305,-1.2305,-1.2305,-1.2305,0.0,0.0,0.0,0.0646,0.0,0.0994,0.0479,0.01,-0.0497,-0.1502,0.0,0.0,0.0,0.0,-0.0808,-0.0588,-0.12,0.0,0.0,0.0,0.0,0.0,0.0,0.0,0.0,0.0,0.0,0.0,0.0,0.0,0.0,-0.9616,-1.0046,-1.0692,-1.1126,-1.0877,0.0,0.0,0.0,-0.6811,0.0,0.0,-0.751,0.0,-0.8576,0.0,0.0,0.0,0.0,0.0,0.0,0.0,0.0,-0.5102,-0.393,-0.3601,-0.3929,0.0,0.0,0.0,0.0,0.0,0.0,0.0,0.0,0.0,0.0,-1.0159,-1.0588,-1.0817,-1.0269,-1.0712,-1.129,-1.1668,-1.1884,-1.2004,-1.2004,-1.2004,-1.2004,-1.2004,-1.2004,-1.2004,-1.2004,-1.2004,-1.1924,-1.1737,-1.1724,-1.163,-1.1402,-1.1389,-1.1389,-1.1389,-1.1389,-1.1523,-1.1717,-1.1911,-1.2058,-1.2158,-1.2158,-1.2158,-1.2164,-1.2258,-1.2245,-1.2164,-1.2258,-1.2305,-1.2305,-1.2305,-1.2305,-1.2305,-1.2305,-1.2305,-1.2305,-1.2305,-1.2305,-1.2305,-0.03,-0.02,0.0056,0.0334,0.0657,0.0758,0.04,-0.0089,-0.0635,-0.1252,0.0,0.0,0.0,0.0,0.0,-0.0942,-0.1723,-0.2348,-0.2686,0.0,0.0,0.0,0.0,0.0,0.0,0.0,0.0,0.0,0.0,0.0,0.0,0.0,-0.9919,-1.0398,-0.8714,-0.8131,-0.8415,0.0,-0.797,-0.7859,0.0,-0.7818,-0.8461,0.0,0.0,0.0,-1.049,-1.0392,0.0,-0.939,0.0,0.0,0.0,-0.5465,-0.3965,-0.3632,-0.3963,0.0,0.0,0.0,0.0,0.0,0.0,0.0,0.0,0.0,0.0,-0.8575,-0.9368,-0.9559,-0.801,-0.878,-1.0004,-1.1132,-1.1341,-1.1354,-1.1389,-1.1389,-1.1389,-1.1389,-1.1389,-1.1389,-1.1389,-1.1389,-1.1389,-1.1382,-1.1375,-1.1375,-1.1369,-1.1369,-1.1369,-1.1369,-1.1375,-1.1375,-1.1375,-1.1389,-1.157,-1.1893,-1.1893,-1.1893,-1.1899,-1.2144,-1.2124,-1.1906,-1.2151,-1.2278,-1.2291,-1.2298,-1.2305,-1.2305,-1.2305,-1.2305,-1.2305,-1.2305,-1.2305,-1.2305,-0.0334,-0.0533,-0.0554,-0.0234,0.0055,0.0,-0.0714,-0.0795,-0.1051,0.0,0.0,0.0,-0.1683,-0.1678,-0.1769,-0.1973,-0.2211,-0.2533,-0.2961,-0.3556,-0.4045,-0.4398,0.0,0.0,0.0,0.0,0.0,0.0,0.0,0.0,0.0,0.0,0.0,0.0,-0.7007,-0.6883,-0.7024,-0.657,0.0,0.0,-0.7284,-0.7627,0.0,0.0,0.0,0.0,0.0,-1.2601,-1.2431,0.0,-1.0719,-0.8981,0.0,0.0,0.0,-0.4469,-0.4729,0.0,-0.4762,0.0,0.0,0.0,0.0,0.0,0.0,0.0,0.0,-0.8637,-0.8742,-0.8642,-0.8409,-0.8226,-0.846,-0.9498,-1.0101,-1.0695,-1.132,-1.1389,-1.1389,-1.1389,-1.1389,-1.1389,-1.1389,-1.1389,-1.1302,-1.1129,-1.1109,-1.1022,-1.0847,-1.0827,-1.0827,-1.0827,-1.1002,-1.1109,-1.1109,-1.1289,-1.147,-1.155,-1.155,-1.155,-1.155,-1.163,-1.1623,-1.155,-1.1637,-1.179,-1.204,-1.2218,-1.2305,-1.2305,-1.2305,-1.2305,-1.2305,-1.2305,-1.2305,-1.2305,-0.069,-0.0935,-0.1054,-0.0993,-0.0858,-0.1049,-0.1953,-0.1933,-0.2103,0.0,0.0,0.0,-0.2282,-0.2423,-0.2475,-0.2327,-0.2373,-0.2572,-0.2988,-0.3363,-0.3785,-0.4283,-0.4745,-0.5098,0.0,0.0,0.0,0.0,0.0,0.0,0.0,0.0,0.0,0.0,-0.5903,-0.6044,-0.6428,-0.5943,0.0,0.0,-0.7921,0.0,0.0,-1.0948,-1.1774,0.0,0.0,0.0,-1.3704,-1.3486,-1.2009,0.0,0.0,-0.5985,-0.5475,-0.5115,-0.5317,0.0,0.0,0.0,0.0,0.0,0.0,0.0,0.0,-0.7366,0.0,0.0,-0.7872,-0.7773,-0.7094,-0.6973,-0.716,-0.774,-0.8196,-0.9095,-1.0824,-1.1062,-1.1062,-1.1062,-1.1062,-1.1062,-1.1062,-1.1062,-1.0995,-1.0854,-1.0516,-1.0212,-1.0085,-1.0396,-1.0593,-1.0593,-1.0754,-1.0847,-1.0847,-1.0982,-1.1129,-1.1243,-1.1243,-1.1243,-1.1249,-1.1335,-1.1329,-1.1249,-1.1335,-1.1523,-1.1697,-1.187,-1.2078,-1.2305,-1.2305,-1.2305,-1.2305,-1.2305,-1.2305,-1.2305,0.0,-0.1429,-0.159,-0.1893,-0.2003,-0.2361,-0.3283,-0.3299,-0.3464,0.0,-0.389,-0.3476,-0.3152,-0.3246,-0.3071,-0.2435,-0.2378,-0.2532,-0.2892,-0.3034,-0.3465,-0.4264,-0.4303,-0.4537,-0.5049,0.0,0.0,0.0,0.0,0.0,0.0,0.0,0.0,0.0,-0.5283,-0.5545,-0.6271,-0.6094,0.0,-0.7222,-0.8791,-0.9793,0.0,0.0,-1.2923,-1.3195,-1.4389,-1.4561,-1.4214,-1.3994,-1.2483,0.0,0.0,-0.6787,-0.6573,-0.5689,-0.5856,0.0,-0.6109,-0.6363,0.0,0.0,-0.678,0.0,-0.7526,-0.7188,-0.6559,0.0,-0.6886,-0.6887,-0.5088,-0.5413,-0.5986,-0.6096,-0.616,-0.7159,-0.9994,-1.0304,-1.0329,-1.0492,-1.043,-1.0412,-1.0539,-1.0546,-1.0528,-1.046,-0.9722,-0.9306,-0.9306,-1.0142,-1.0593,-1.0593,-1.0593,-1.0593,-1.0593,-1.0593,-1.072,-1.0949,-1.0949,-1.0949,-1.0955,-1.1209,-1.1189,-1.0962,-1.1216,-1.1349,-1.1342,-1.1342,-1.1724,-1.2251,-1.2218,-1.2225,-1.2251,-1.2218,-1.2151,-1.2104,-0.1579,-0.2265,-0.2772,-0.2834,-0.3293,-0.391,-0.4691,-0.4294,-0.4258,-0.5265,-0.4713,-0.4291,-0.4494,-0.3875,-0.347,-0.3483,-0.2724,-0.2471,-0.3025,-0.3087,-0.3456,-0.4264,-0.4303,-0.4446,-0.4765,-0.4567,0.0,0.0,0.0,0.0,0.0,0.0,0.0,0.0,-0.5137,-0.5277,-0.5673,-0.6842,0.0,-0.7654,-0.7679,0.0,-0.9867,-1.0979,-1.194,-1.2863,-1.4289,-1.4951,-1.4936,-1.3389,-1.2178,-1.0975,0.0,0.0,-0.7445,-0.648,-0.668,-0.694,-0.554,-0.6223,-0.71,-0.6133,0.0,0.0,-0.6847,-0.6894,-0.6855,0.0,-0.6121,-0.5617,-0.5119,-0.4709,-0.4696,-0.5513,-0.5873,-0.6735,-0.8717,-0.849,-0.855,-0.9735,-0.9337,-0.9299,-1.0119,-1.02,-1.0016,-0.9576,-0.9402,-0.9306,-0.9306,-1.0142,-1.0593,-1.0593,-1.0593,-1.0593,-1.0593,-1.0593,-1.062,-1.0673,-1.0673,-1.0673,-1.068,-1.0734,-1.0727,-1.068,-1.0734,-1.0894,-1.1076,-1.1076,-1.1423,-1.1966,-1.169,-1.1744,-1.196,-1.1683,-1.1237,-1.0773,-0.1772,-0.2607,-0.3298,-0.3298,-0.3999,-0.4913,-0.5982,-0.5605,-0.5598,-0.6706,-0.6618,-0.6123,-0.5284,-0.5343,-0.5007,-0.3903,-0.3219,-0.2917,-0.3091,-0.3034,-0.3329,-0.4066,-0.4099,-0.4232,-0.4496,-0.4374,0.0,0.0,0.0,0.0,0.0,0.0,0.0,0.0,-0.521,-0.5373,-0.5819,0.0,-0.7471,-0.7696,-0.8914,0.0,-1.1257,-1.2191,-1.2904,-1.3476,-1.4245,-1.4364,-1.3936,-1.2315,-1.1523,0.0,0.0,-0.8678,-0.8388,0.0,-0.7751,-0.7918,-0.6919,-0.7279,-0.7778,-0.7111,0.0,0.0,0.0,-0.7113,-0.6879,-0.6493,-0.5864,-0.5245,-0.4748,-0.4361,-0.4257,-0.477,-0.5074,-0.5658,-0.6804,-0.7265,-0.7779,-0.8522,-0.8281,-0.8392,-0.9279,-0.9016,-0.8522,-0.7809,-0.8505,-0.8757,-0.8315,-0.96,-1.0341,-1.0341,-1.0512,-1.0593,-1.0593,-1.0593,-1.0593,-1.0593,-1.0593,-1.0593,-1.0593,-1.0593,-1.0593,-1.0593,-1.0593,-1.0673,-1.0807,-1.0807,-1.1069,-1.1464,-1.143,-1.1482,-1.163,-1.1449,-1.1199,-1.086,-0.1934,-0.2811,-0.3593,-0.3593,-0.4597,-0.5785,-0.6901,-0.6779,-0.6898,-0.7898,-0.8297,0.0,0.0,0.0,0.0,0.0,-0.4069,-0.3658,0.0,0.0,-0.3391,-0.4123,-0.3999,-0.404,-0.4308,-0.4151,0.0,0.0,0.0,0.0,0.0,-0.4616,-0.4952,0.0,0.0,0.0,0.0,0.0,0.0,-0.8027,0.0,-1.1663,-1.2038,-1.3026,-1.3468,-1.3614,-1.3883,-1.3545,-1.2789,-1.1434,-1.0968,-1.0742,-0.9309,-0.9064,0.0,0.0,0.0,0.0,0.0,0.0,0.0,0.0,0.0,-0.8063,0.0,0.0,0.0,-0.65,0.0,0.0,0.0,0.0,0.0,0.0,0.0,0.0,0.0,-0.6028,0.0,-0.7252,-0.7177,-0.7422,-0.8236,-0.7613,-0.6915,-0.6246,-0.7478,-0.7968,-0.7344,-0.9046,-1.006,-1.0083,-1.0347,-1.0533,-1.0593,-1.0593,-1.0593,-1.0593,-1.0593,-1.0593,-1.0593,-1.0593,-1.0593,-1.0593,-1.0593,-1.0593,-1.0593,-1.0593,-1.0727,-1.0929,-1.1169,-1.1289,-1.1336,-1.1242,-1.1154,-1.0921,-0.222,-0.3118,-0.3939,-0.3939,-0.5561,-0.6893,-0.699,-0.7255,-0.7599,0.0,0.0,0.0,0.0,0.0,0.0,0.0,0.0,0.0,-0.5361,0.0,0.0,-0.5018,-0.4364,-0.4112,-0.4383,-0.3638,0.0,0.0,0.0,0.0,0.0,0.0,-0.4665,-0.5254,-0.5468,0.0,0.0,0.0,-0.8543,0.0,-1.058,-1.0292,0.0,-1.0454,-1.1056,-1.1433,-1.268,-1.307,-1.2821,0.0,-1.1241,-1.1019,0.0,-0.9364,-0.9398,-0.8132,0.0,0.0,0.0,0.0,0.0,0.0,-0.7276,0.0,0.0,0.0,-0.7998,-0.717,0.0,0.0,0.0,0.0,0.0,0.0,0.0,0.0,-0.3825,-0.4139,-0.4931,-0.6369,-0.6049,-0.6142,-0.7162,-0.65,-0.6064,-0.6198,-0.6704,-0.7104,-0.7299,-0.884,-0.9846,-1.0077,-1.0147,-1.0294,-1.0586,-1.0593,-1.0593,-1.0593,-1.0593,-1.0593,-1.0593,-1.0593,-1.0593,-1.0593,-1.0593,-1.0593,-1.0593,-1.0593,-1.0613,-1.0646,-1.068,-1.0847,-1.1009,-1.0787,-1.0282,-0.9712,-0.223,-0.3298,-0.4188,-0.4022,-0.5531,-0.6804,-0.6975,-0.8258,-0.9006,0.0,0.0,0.0,0.0,0.0,0.0,0.0,0.0,-0.6079,0.0,0.0,0.0,-0.5479,-0.4611,-0.4208,-0.4389,-0.3621,0.0,0.0,-0.333,0.0,0.0,0.0,-0.4758,-0.5506,-0.5768,0.0,-0.7201,0.0,-0.8296,0.0,0.0,0.0,0.0,-1.0748,-1.1513,-1.1451,-1.1559,-1.1608,-1.1494,0.0,-1.0494,0.0,0.0,0.0,0.0,0.0,0.0,0.0,0.0,0.0,0.0,0.0,0.0,0.0,-0.7407,0.0,-0.8207,0.0,0.0,0.0,0.0,0.0,0.0,0.0,-0.3792,0.0,0.0,0.0,-0.4084,0.0,0.0,-0.4752,-0.5352,-0.5396,-0.5355,-0.5218,-0.5992,-0.6571,-0.689,-0.8498,-0.9451,-0.9577,-0.991,-1.0174,-1.0301,-1.0506,-1.0593,-1.0593,-1.0593,-1.0593,-1.0593,-1.0593,-1.0593,-1.0593,-1.0593,-1.0593,-1.0593,-1.0593,-1.0593,-1.0593,-1.0593,-1.0667,-1.076,-1.0633,-1.0405,-1.0076,-0.2672,0.0,0.0,0.0,-0.5436,-0.6739,-0.7423,-0.8995,-0.9895,-0.9371,0.0,0.0,-1.1265,-1.1023,0.0,0.0,-0.8429,-0.7493,0.0,0.0,-0.6045,-0.6194,-0.51,0.0,0.0,-0.378,0.0,0.0,-0.3444,0.0,0.0,0.0,-0.4813,-0.5579,0.0,-0.6767,-0.7706,0.0,0.0,-0.834,-0.9137,-0.9125,-0.8849,-1.0899,-1.1571,-1.1375,-1.0807,-1.0593,-1.0546,-1.0214,-0.9973,-0.9826,-0.996,-0.973,-0.9477,0.0,0.0,0.0,-0.7692,0.0,0.0,0.0,0.0,0.0,0.0,0.0,0.0,0.0,0.0,0.0,0.0,0.0,0.0,0.0,0.0,-0.3554,0.0,-0.3364,0.0,0.0,0.0,0.0,-0.4139,-0.4434,-0.4575,-0.4429,-0.5256,-0.6036,-0.6558,-0.7981,-0.8904,-0.9183,-0.9704,-1.004,-1.0083,-1.0445,-1.0593,-1.0593,-1.0593,-1.0593,-1.0593,-1.0593,-1.0593,-1.0593,-1.0593,-1.0593,-1.0593,-1.0593,-1.0593,-1.0593,-1.0593,-1.0593,-1.0593,-1.0593,-1.0593,-1.0498,-0.3875,-0.3875,0.0,0.0,0.0,-0.7024,-0.8588,-0.9127,-0.9816,0.0,0.0,0.0,0.0,0.0,0.0,0.0,0.0,-0.8598,-0.8712,0.0,-0.7291,-0.7435,-0.6039,-0.5201,0.0,-0.4033,-0.331,-0.2922,-0.3303,0.0,0.0,0.0,0.0,0.0,0.0,-0.714,-0.811,-0.8513,-0.9281,-1.0201,-1.0115,-1.0257,-1.0452,0.0,-1.0144,-1.0656,-1.0624,-1.0593,-1.0546,-1.0214,-1.0077,-1.0053,-0.9786,-0.988,0.0,0.0,0.0,0.0,0.0,-0.7204,0.0,-0.5509,0.0,0.0,0.0,0.0,-0.8502,0.0,0.0,0.0,0.0,0.0,-0.4065,-0.3679,0.0,0.0,0.0,0.0,0.0,0.0,0.0,0.0,0.0,-0.3674,-0.3664,-0.416,-0.4546,-0.5297,-0.6543,-0.7327,-0.8205,-0.9176,-0.9539,-0.9833,-1.0114,-1.0445,-1.0593,-1.0593,-1.0593,-1.0593,-1.0593,-1.0593,-1.0593,-1.0593,-1.0593,-1.0593,-1.0593,-1.0593,-1.0593,-1.0593,-1.0593,-1.0593,-1.0593,-1.0593,-1.0593,-1.0593,0.0,0.0,0.0,0.0,0.0,-0.6916,-0.853,-1.0091,-1.1138,0.0,0.0,0.0,0.0,-1.2271,-1.1918,0.0,0.0,-0.9929,-0.998,-0.8919,0.0,0.0,0.0,-0.6422,0.0,-0.5459,-0.4718,-0.4495,-0.4399,0.0,0.0,0.0,0.0,0.0,0.0,-0.7417,0.0,0.0,0.0,0.0,0.0,-1.0148,-1.0573,0.0,-1.0419,-1.0593,-1.0593,-1.0593,-1.0579,-1.0479,-1.0281,-1.0134,-1.0265,-1.009,-0.9846,-0.994,-0.895,-0.773,-0.7341,-0.6565,-0.567,-0.4882,-0.5569,-0.6315,-0.5798,0.0,0.0,0.0,0.0,0.0,0.0,0.0,-0.3991,-0.3761,-0.3595,0.0,0.0,0.0,0.0,0.0,0.0,0.0,0.0,0.0,-0.3692,-0.4041,-0.4995,-0.5859,-0.6575,-0.775,-0.8579,-0.8924,-0.9211,-0.9532,-0.9826,-1.012,-1.0399,-1.0593,-1.0015,-0.9754,-0.9722,-0.9128,-0.8865,-0.8903,-0.9492,-0.9754,-0.9786,-1.0364,-1.0593,-1.0593,-1.0593,-1.0593,-1.0593,-1.0593,-1.0593,-1.0428,-0.5442,0.0,0.0,0.0,0.0,0.0,-0.8885,0.0,0.0,0.0,-1.2578,0.0,-1.2946,0.0,-1.2116,0.0,-1.1476,-1.0735,-1.0452,-0.9793,0.0,-0.9217,-0.8031,0.0,0.0,0.0,-0.5798,-0.5219,-0.5165,-0.492,0.0,0.0,0.0,0.0,0.0,0.0,-0.8873,0.0,-0.9692,0.0,0.0,-1.0251,0.0,0.0,-1.0593,-1.0593,-1.0593,-1.0593,-1.0593,-1.0593,-1.0466,-1.0307,-1.0533,-1.0332,-1.0064,-1.0221,-0.8978,-0.7542,-0.7456,-0.6286,-0.5068,-0.4926,-0.5324,-0.5675,-0.546,-0.6094,-0.6584,0.0,0.0,0.0,0.0,0.0,-0.4028,-0.3897,-0.3603,0.0,0.0,-0.2936,0.0,0.0,0.0,0.0,0.0,0.0,-0.3556,-0.4193,-0.4988,-0.5854,-0.6802,-0.7835,-0.8533,-0.8778,-0.9058,-0.9304,-0.9526,-0.992,-1.0214,-1.0401,-0.9647,-0.9306,-0.9274,-0.8388,-0.7994,-0.8027,-0.8581,-0.9011,-0.9338,-0.9913,-1.0333,-1.0593,-1.0593,-1.0593,-1.0561,-1.0238,-0.9945,-0.9486,0.0,0.0,0.0,0.0,-0.7214,0.0,0.0,0.0,-1.1477,0.0,-1.2612,-1.2585,-1.2501,-1.2222,-1.1995,-1.195,-1.1617,-1.1062,-1.023,-1.0472,0.0,0.0,-0.8776,-0.826,-0.7821,0.0,0.0,0.0,0.0,0.0,0.0,0.0,0.0,0.0,-0.6607,0.0,-0.9473,-0.9316,-1.0204,-1.1619,-1.0892,-1.0593,-1.0593,-1.0593,-1.0593,-1.0593,-1.0593,-1.0593,-1.0593,-1.0593,-1.0561,-1.053,-1.0593,-1.0561,-1.053,-1.0593,-0.939,-0.8013,-0.7788,-0.6482,-0.5258,-0.5516,-0.557,-0.5616,-0.5888,-0.6396,-0.652,-0.5491,-0.5631,0.0,0.0,-0.453,-0.4164,-0.4021,-0.3768,0.0,0.0,0.0,0.0,0.0,0.0,0.0,0.0,0.0,-0.3298,-0.4567,-0.4556,0.0,0.0,-0.7559,-0.8051,-0.8778,-0.9044,-0.9198,-0.9211,-0.9764,-1.0057,-1.009,-0.9486,-0.923,-0.9204,-0.8291,-0.7864,-0.7864,-0.7929,-0.842,-0.9172,-0.9274,-0.9786,-1.053,-1.0593,-1.0555,-1.0396,-0.9594,-0.8748,-0.7864,-0.6711,-0.7168,-0.7542,0.0,-0.8282,-0.8845,0.0,0.0,0.0,0.0,-1.2252,-1.2489,-1.2363,-1.2285,-1.2233,-1.2214,-1.1924,0.0,0.0,0.0,0.0,-1.0555,-0.9968,-0.9607,-0.9485,-0.8547,0.0,-0.755,0.0,0.0,-0.5829,0.0,0.0,0.0,0.0,0.0,-0.9235,-0.9802,-1.0496,-1.1218,-1.0767,-1.0593,-1.0593,-1.0593,-1.0593,-1.0593,-1.0593,-1.0593,-1.0593,-1.0593,-1.0174,-0.9754,-1.0396,-1.0174,-0.9754,-1.0396,-0.9817,-0.8828,-0.8116,-0.7131,-0.6113,-0.5404,-0.5152,-0.5077,-0.5044,-0.5242,-0.5314,-0.4919,-0.5102,-0.52,-0.4812,-0.4657,-0.4457,0.0,0.0,0.0,0.0,0.0,0.0,0.0,0.0,0.0,0.0,-0.3413,-0.3916,-0.4152,-0.5142,-0.6197,-0.7244,-0.7654,-0.815,-0.8791,-0.8878,-0.8998,-0.9211,-0.9364,-0.9657,-1.009,-0.8654,-0.8091,-0.8291,-0.6765,-0.6079,-0.6112,-0.6756,-0.7177,-0.747,-0.878,-0.9434,-0.969,-1.0333,-0.9811,-0.8705,-0.9139,-0.8748,-0.7864,-0.7352,0.0,0.0,-0.8557,0.0,0.0,-0.9955,-1.0469,0.0,-1.1536,-1.1833,0.0,-1.1913,-1.2151,-1.2305,-1.2305,-1.2151,0.0,-1.169,0.0,0.0,-1.1002,-1.0675,-1.0441,-1.0314,-0.944,0.0,-0.8183,0.0,0.0,-0.597,0.0,0.0,0.0,0.0,-0.7679,0.0,-1.0002,-1.073,-1.107,-1.0739,-1.0593,0.0,-1.0593,-1.0593,-1.0561,-1.0174,-1.0269,-1.0593,-1.0593,-1.0015,-0.9402,-0.9881,-0.969,-0.9402,-0.9881,-0.969,-0.9204,-0.8716,-0.7665,-0.6563,-0.5952,-0.5453,-0.507,-0.4918,-0.4918,-0.4958,-0.4901,-0.4935,-0.4975,-0.4901,-0.4721,-0.447,0.0,0.0,0.0,0.0,0.0,0.0,0.0,-0.3229,0.0,-0.2797,-0.3388,-0.3869,-0.3993,-0.5237,-0.6289,-0.6951,-0.7708,-0.8277,-0.8611,-0.8744,-0.8858,-0.9024,-0.8841,-0.8975,-0.934,-0.7725,-0.7118,-0.7367,-0.5933,-0.533,-0.5428,-0.5914,-0.6334,-0.6785,-0.7767,-0.8388,-0.878,-0.9256,-0.864,-0.7502,-0.7994,-0.7605,-0.6793,-0.8094,0.0,0.0,0.0,0.0,0.0,0.0,-1.0347,0.0,-1.1555,0.0,-1.1622,-1.1622,-1.2078,-1.2365,-1.2365,0.0,-1.2084,-1.1542,-1.1784,-1.1718,-1.1129,-1.1109,-1.0955,-1.066,-1.0037,-0.9165,0.0,0.0,-0.6553,-0.5801,0.0,0.0,0.0,0.0,0.0,0.0,-1.0131,-1.0864,-1.107,-1.0739,-1.0593,-1.0593,-1.0593,-1.053,-1.0333,-0.9562,-0.9786,-1.0396,-1.0301,-0.9684,-0.8973,-0.9107,-0.9139,-0.9139,-0.9274,-0.937,-0.9434,-0.9338,-0.8124,-0.685,-0.6719,-0.6042,-0.5358,-0.5189,-0.513,-0.513,-0.513,-0.506,-0.4978,-0.5079,-0.4765,-0.4354,0.0,0.0,0.0,0.0,0.0,0.0,0.0,0.0,0.0,-0.3177,-0.3358,-0.3643,-0.4075,-0.5092,-0.5983,-0.6627,-0.7651,-0.8225,-0.827,-0.8521,-0.8619,-0.8507,-0.8172,-0.8068,-0.8224,-0.6805,-0.6322,-0.6616,-0.557,-0.5216,-0.5395,-0.5395,-0.5815,-0.6527,-0.6654,-0.7209,-0.7994,-0.7864,-0.7372,-0.6687,-0.6556,-0.6042,-0.5395,0.0,0.0,0.0,0.0,0.0,-1.0813,-1.1228,-1.1599,-1.1913,-1.2157,-1.2593,-1.2899,-1.2899,-1.2797,-1.2703,-1.2703,-1.2445,0.0,0.0,0.0,0.0,-1.1765,-1.1752,-1.1497,-1.0929,-1.0107,-0.9466,0.0,-0.7435,-0.6587,-0.642,0.0,0.0,0.0,0.0,0.0,-0.9612,-1.0387,0.0,-1.107,-1.0739,-1.0593,-1.0593,-1.0593,-1.0142,-0.9498,-0.937,-0.9402,-0.9434,-0.871,-0.7859,-0.7274,-0.7994,-0.8221,-0.8382,-0.9075,-0.9817,-1.0206,-0.9498,-0.8549,-0.76,-0.6883,-0.6042,-0.5388,-0.5361,-0.5354,-0.5354,-0.5354,-0.5334,-0.5254,-0.5117,-0.4765,-0.4426,-0.4173,0.0,0.0,0.0,0.0,0.0,0.0,0.0,-0.3648,0.0,-0.4034,-0.4456,-0.4641,0.0,-0.6052,-0.6886,-0.7126,-0.7321,-0.7476,-0.7751,-0.7589,-0.6993,-0.6927,-0.7031,-0.7317,-0.6338,-0.607,-0.643,-0.5519,-0.5216,-0.5395,-0.5395,-0.5491,-0.5686,-0.6396,-0.7209,-0.7929,-0.7209,-0.685,-0.6621,-0.5881,-0.5524,-0.5395,0.0,0.0,0.0,0.0,0.0,0.0,0.0,-1.2746,-1.3006,-1.2385,-1.2559,-1.2739,-1.2739,-1.2886,-1.3025,-1.3025,-1.275,-1.2569,-1.2569,-1.2385,-1.2238,-1.2098,-1.1986,-1.1772,-1.1484,-1.062,-0.992,-0.9472,-0.8003,-0.7047,-0.658,-0.6017,0.0,0.0,0.0,-0.8186,0.0,0.0,-1.053,-1.107,-1.0739,-1.0593,-1.0593,-1.0593,-1.0047,-0.9236,-0.878,-0.8318,-0.7962,-0.7994,-0.7437,-0.6785,-0.7177,-0.7632,-0.8091,-0.8517,-0.9556,-1.0498,-1.0079,-0.9326,-0.8452,-0.76,-0.6724,-0.5947,-0.5491,-0.5395,-0.5395,-0.5395,-0.5395,-0.5324,-0.5032,-0.4779,-0.4647,-0.4752,-0.435,0.0,0.0,0.0,0.0,0.0,0.0,0.0,0.0,0.0,0.0,0.0,0.0,0.0,-0.6294,-0.6328,-0.6731,-0.7591,-0.7593,-0.7641,-0.775,-0.6993,-0.6721,-0.6966,-0.5732,-0.535,-0.5722,-0.521,-0.5145,-0.5395,-0.5395,-0.5395,-0.5428,-0.5848,-0.6272,-0.6597,-0.6207,-0.6009,-0.5976,-0.5557,-0.5395,-0.5458,0.0,-1.1229,0.0,0.0,-1.2298,-1.2884,-1.2884,-1.3594,-1.3748,-1.2806,-1.2679,-1.2679,-1.2679,-1.3053,-1.3307,-1.3307,-1.3019,-1.2884,-1.2884,-1.2565,-1.2398,-1.2398,-1.2154,-1.1966,-1.1906,-1.1162,-1.0459,-0.9773,-0.8664,-0.7666,-0.6867,-0.6526,-0.6265,-0.6132,-0.7276,-0.8654,-1.0173,-0.9974,-1.0391,-1.1155,-1.0828,-1.0687,-1.068,-1.062,-0.9945,-0.8941,-0.8253,-0.7312,-0.6527,-0.7214,-0.6985,-0.6461,-0.6654,-0.7307,-0.8027,-0.8221,-0.939,-1.0593,-1.0593,-0.9817,-0.8844,-0.8156,-0.7209,-0.6235,-0.5557,-0.5395,-0.5395,-0.5395,-0.5368,-0.5255,-0.4925,-0.4772,-0.4802,-0.5075,-0.4606,0.0,0.0,0.0,0.0,0.0,0.0,0.0,-0.4067,0.0,0.0,0.0,0.0,0.0,-0.5785,-0.5863,-0.6383,-0.7462,-0.7325,-0.743,-0.7826,-0.6725,-0.6229,-0.6384,-0.5099,-0.4709,-0.5049,-0.4938,-0.5081,-0.5395,-0.5395,-0.5395,-0.5395,-0.5395,-0.5395,-0.5395,-0.5395,-0.5395,-0.5395,-0.5395,-0.5395,-0.5524,0.0,0.0,0.0,0.0,0.0,-1.3166,-1.3166,-1.3687,-1.4048,-1.3935,-1.3921,-1.3921,-1.3921,-1.3728,-1.356,-1.356,-1.334,-1.3166,-1.3166,-1.2918,-1.2744,-1.2744,-1.2455,-1.2138,-1.1913,-1.1523,-1.0896,0.0,0.0,-0.8385,-0.7772,-0.7193,-0.7068,-0.7363,-0.827,-0.9092,-0.9789,-1.0302,-1.086,-1.1344,-1.1082,-1.0955,-1.0922,-1.0693,-0.9582,-0.8124,-0.8027,-0.6924,-0.5524,-0.5624,-0.5591,-0.5653,-0.6461,-0.7307,-0.8156,-0.8941,-0.9849,-1.0593,-1.0593,-0.939,-0.8091,-0.8027,-0.6761,-0.5491,-0.5428,-0.5395,-0.5395,-0.5395,-0.525,-0.5029,-0.4765,-0.4701,-0.4665,-0.4581,-0.4358,0.0,0.0,0.0,0.0,0.0,0.0,0.0,0.0,-0.4029,0.0,0.0,-0.5251,-0.5558,-0.6122,-0.6374,-0.6419,-0.6173,-0.6283,-0.5768,-0.4632,-0.4667,-0.4715,-0.4729,-0.4577,-0.4658,-0.4908,-0.4894,-0.5081,-0.5395,-0.5395,-0.5395,-0.5395,-0.5395,-0.5395,-0.5395,-0.5395,-0.5395,-0.5395,-0.5395,-0.5395,-0.5524,0.0,0.0,-1.2685,-1.3007,-1.3166,-1.3333,-1.3681,-1.3935,-1.4088,-1.4088,-1.4088,-1.4088,-1.4088,-1.3981,-1.3908,-1.3908,-1.3641,-1.3427,-1.3427,-1.3193,-1.3026,-1.3026,-1.277,-1.2549,-1.2435,-1.1931,-1.143,0.0,-0.9846,-0.9031,-0.8425,-0.8029,-0.8083,-0.8557,-0.9092,-0.9688,-1.0265,-1.068,-1.1056,-1.1382,-1.1262,-1.1249,-1.1243,-1.1122,-0.9955,-0.8361,-0.8361,-0.7198,-0.5627,-0.5627,-0.5542,-0.5557,-0.6429,-0.7307,-0.8156,-0.9043,-0.9913,-1.0593,-1.0593,-0.9716,-0.8651,-0.8124,-0.665,-0.5209,-0.4683,-0.4553,-0.4553,-0.4553,-0.4841,-0.5009,-0.4745,-0.4691,-0.4783,-0.5057,-0.4709,-0.4555,0.0,0.0,0.0,0.0,0.0,0.0,0.0,0.0,0.0,0.0,0.0,-0.5198,-0.5631,-0.5339,-0.5462,-0.6107,-0.5824,-0.5608,-0.5509,-0.5242,-0.5109,-0.5081,-0.4677,-0.4604,-0.4785,-0.4877,-0.5081,-0.5395,-0.5395,-0.5395,-0.5395,-0.5395,-0.5395,-0.5395,-0.5395,-0.5395,-0.5395,-0.5395,-0.5395,-0.5458,-1.3581,-1.342,-1.3467,-1.3941,-1.3788,-1.3734,-1.4148,-1.4142,-1.4088,-1.4088,-1.4088,-1.4088,-1.4088,-1.4088,-1.4088,-1.4088,-1.3895,-1.3733,-1.3733,-1.346,-1.334,-1.334,-1.2998,-1.2784,-1.2784,-1.2295,-1.185,-1.1557,-1.0641,-0.994,-0.9446,-0.9179,-0.9239,-0.961,-0.994,-1.0347,-1.0835,-1.1122,-1.1416,-1.1677,-1.159,-1.1557,-1.155,-1.1422,-1.0412,-0.9009,-0.8694,-0.7566,-0.619,-0.5907,-0.5664,-0.5725,-0.6886,-0.7612,-0.8292,-0.9444,-1.0174,-1.0593,-1.0593,-0.9786,-0.878,-0.8156,-0.6445,-0.477,-0.4146,-0.3816,-0.3664,-0.3833,-0.4498,-0.4948,-0.4677,-0.4651,-0.4755,-0.5156,-0.4814,-0.4653,0.0,-0.4231,0.0,0.0,-0.3047,-0.3318,-0.4052,-0.4209,0.0,0.0,0.0,-0.5039,-0.5596,-0.4955,-0.4999,-0.5909,-0.5492,-0.5405,-0.5742,-0.54,-0.5218,-0.5191,-0.4732,-0.4573,-0.4697,-0.4894,-0.5121,-0.5395,-0.5395,-0.5395,-0.5395,-0.5395,-0.5395,-0.5395,-0.5395,-0.5395,-0.5395,-0.5395,-0.5395,-0.5395,-1.4449,-1.4502,-1.4596,-1.4941,-1.4703,-1.4502,-1.4466,-1.4269,-1.4088,-1.4088,-1.4088,-1.4088,-1.4088,-1.4088,-1.4088,-1.4088,-1.4082,-1.4082,-1.4082,-1.376,-1.36,-1.36,-1.3066,-1.2784,-1.2784,-1.2489,-1.2151,-1.1899,-1.1557,-1.1256,-1.0962,-1.07,-1.0573,-1.0586,-1.0848,-1.1142,-1.1395,-1.173,-1.2024,-1.2265,-1.202,-1.1899,-1.1866,-1.1536,-1.0833,-0.9962,-0.8939,-0.8026,-0.7141,-0.6119,-0.58,-0.6115,-0.7986,-0.8403,-0.8565,-1.0414,-1.0788,-1.0593,-1.0593,-0.932,-0.8027,-0.7994,-0.5986,-0.4015,-0.4015,-0.3345,-0.29,-0.3485,-0.4305,-0.4826,-0.4549,-0.4494,-0.4491,-0.4519,-0.4519,-0.4491,-0.4519,-0.4209,0.0,-0.3166,-0.3218,-0.3591,-0.4327,-0.416,0.0,0.0,0.0,-0.5272,-0.6332,-0.5813,-0.5439,-0.5324,-0.5164,-0.4834,-0.422,-0.4416,-0.4519,-0.4519,-0.4519,-0.4573,-0.4701,-0.4965,-0.5213,-0.5395,-0.5395,-0.5395,-0.5395,-0.5395,-0.5395,-0.5395,-0.5395,-0.5395,-0.5395,-0.5395,-0.5395,-0.5395,-1.4803,-1.4823,-1.485,-1.4995,-1.4928,-1.4823,-1.4823,-1.4787,-1.4727,-1.4727,-1.4727,-1.4609,-1.4402,-1.4208,-1.4088,-1.4088,-1.4088,-1.4088,-1.4088,-1.4001,-1.3948,-1.3948,-1.3567,-1.3353,-1.3353,-1.2859,-1.2596,-1.2502,-1.177,-1.1242,-1.0989,-1.0902,-1.0962,-1.1162,-1.1456,-1.1678,-1.175,-1.2044,-1.2218,-1.2291,-1.2204,-1.2164,-1.2151,-1.2058,-1.1433,-1.0439,-0.9448,-0.8454,-0.7488,-0.6486,-0.6153,-0.6376,-0.7638,-0.825,-0.8665,-0.9691,-1.0384,-1.0847,-1.0646,-0.932,-0.7994,-0.7994,-0.5552,-0.3111,-0.3111,-0.2911,-0.2867,-0.3482,-0.4302,-0.4826,-0.4545,-0.4491,-0.4491,-0.4491,-0.4491,-0.4653,-0.5109,0.0,-0.4206,-0.4,-0.3934,-0.3966,-0.4124,-0.4225,0.0,0.0,0.0,-0.4768,-0.5024,-0.4987,-0.4875,-0.4682,-0.4699,-0.4529,-0.4197,-0.4392,-0.4491,-0.4491,-0.4491,-0.4627,-0.4853,-0.5012,-0.5216,-0.5395,-0.5395,-0.5395,-0.5395,-0.5395,-0.5395,-0.5395,-0.5395,-0.5395,-0.5395,-0.5395,-0.5395,-0.5395,-1.5291,-1.5291,-1.5291,-1.5291,-1.5197,-1.5169,-1.5169,-1.5075,-1.5008,-1.5008,-1.5008,-1.4941,-1.471,-1.4422,-1.4208,-1.4095,-1.4088,-1.4088,-1.4088,-1.4088,-1.4088,-1.4088,-1.376,-1.36,-1.36,-1.3166,-1.2958,-1.2958,-1.2251,-1.177,-1.1483,-1.1483,-1.1583,-1.1764,-1.1951,-1.2067,-1.2044,-1.2225,-1.2305,-1.2305,-1.2305,-1.2305,-1.2305,-1.2305,-1.1694,-1.0671,-0.9669,-0.8656,-0.7629,-0.6644,-0.63,-0.6412,-0.7022,-0.7734,-0.8435,-0.9053,-0.961,-0.9967,-0.9774,-0.8679,-0.7569,-0.7521,-0.5091,-0.2611,-0.2243,-0.2444,-0.2867,-0.3482,-0.4302,-0.4826,-0.4545,-0.4491,-0.4491,-0.4491,-0.4491,-0.4653,-0.5058,-0.4908,-0.4744,0.0,0.0,-0.4587,-0.473,-0.449,-0.4689,-0.5589,0.0,-0.4526,-0.4453,-0.4534,-0.4552,-0.4442,-0.4478,-0.4447,-0.4304,-0.4167,-0.4098,-0.4098,-0.4098,-0.4362,-0.4891,-0.4978,-0.5165,-0.5395,-0.5395,-0.5395,-0.5395,-0.5395,-0.5395,-0.5395,-0.5395,-0.5395,-0.5395,-0.5395,-0.5395,-0.5395,-1.5784,-1.5784,-1.5784,-1.5784,-1.5605,-1.5424,-1.5424,-1.5197,-1.5068,-1.5068,-1.5068,-1.5062,-1.5042,-1.475,-1.4462,-1.4175,-1.4108,-1.4088,-1.4088,-1.4088,-1.4088,-1.4088,-1.378,-1.3633,-1.3633,-1.3353,-1.3233,-1.3213,-1.2958,-1.2663,-1.2331,-1.2331,-1.2318,-1.2305,-1.2305,-1.2305,-1.2305,-1.2305,-1.2305,-1.2305,-1.2305,-1.2305,-1.2298,-1.2224,-1.162,-1.0677,-0.9593,-0.858,-0.7629,-0.6644,-0.63,-0.63,-0.63,-0.6945,-0.7816,-0.8494,-0.8581,-0.8379,-0.824,-0.7559,-0.6861,-0.675,-0.4704,-0.2444,-0.1507,-0.2043,-0.2867,-0.3492,-0.4308,-0.483,-0.4559,-0.4498,-0.4491,-0.4491,-0.4491,-0.4543,-0.4625,-0.5087,-0.5401,-0.5453,-0.5368,-0.545,-0.5922,-0.4892,-0.4434,-0.4986,-0.4631,-0.4419,-0.4474,-0.4428,-0.442,-0.4505,-0.4491,-0.446,-0.4436,-0.3735,-0.34,-0.34,-0.3416,-0.3946,-0.4887,-0.4911,-0.5101,-0.5395,-0.5395,-0.5395,-0.5395,-0.5395,-0.5395,-0.5395,-0.5395,-0.5395,-0.5395,-0.5395,-0.5395,-0.5395,-1.5784,-1.5784,-1.5784,-1.5784,-1.5772,-1.5732,-1.5732,-1.5665,-1.5625,-1.5625,-1.5625,-1.5538,-1.5317,-1.5231,-1.507,-1.4827,-1.4392,-1.4088,-1.4088,-1.4088,-1.4088,-1.4088,-1.4021,-1.3981,-1.3981,-1.3653,-1.3393,-1.3213,-1.3133,-1.2939,-1.2683,-1.2683,-1.2556,-1.2305,-1.2305,-1.2305,-1.2305,-1.2305,-1.2305,-1.2305,-1.2305,-1.2305,-1.2224,-1.1465,-1.1013,-1.0559,-0.8799,-0.8012,-0.7629,-0.6644,-0.63,-0.63,-0.63,-0.6451,-0.6796,-0.7467,-0.8143,-0.8672,-0.8423,-0.7626,-0.689,-0.6848,-0.4773,-0.2444,-0.1507,-0.2043,-0.2915,-0.3612,-0.4368,-0.486,-0.467,-0.4569,-0.4491,-0.4491,-0.4491,-0.4873,-0.5959,-0.622,-0.6508,-0.7068,-0.7098,-0.6686,-0.5703,-0.485,-0.4371,-0.4407,-0.3794,-0.3679,-0.4247,-0.4251,-0.4318,-0.4484,-0.4491,-0.4236,-0.368,-0.3428,-0.3317,-0.332,-0.3582,-0.412,-0.4894,-0.5152,-0.5327,-0.5395,-0.5395,-0.5395,-0.5395,-0.5395,-0.5395,-0.5395,-0.5395,-0.5395,-0.5395,-0.5395,-0.5395,-0.5395,-1.5784,-1.5784,-1.5635,-1.5045,-1.4949,-1.4704,-1.4124,-1.4028,-1.4226,-1.4854,-1.4949,-1.5089,-1.5565,-1.5478,-1.5331,-1.5223,-1.4794,-1.4429,-1.4295,-1.4282,-1.4222,-1.4095,-1.4088,-1.4088,-1.4088,-1.3928,-1.366,-1.3367,-1.3367,-1.3253,-1.2998,-1.2998,-1.2837,-1.2543,-1.2543,-1.2425,-1.2305,-1.2305,-1.2305,-1.2305,-1.2305,-1.2033,-1.1545,-1.1013,-1.0222,-0.9286,-0.8194,-0.7518,-0.7022,-0.649,-0.63,-0.63,-0.63,-0.63,-0.636,-0.6719,-0.7246,-0.7617,-0.7353,-0.6913,-0.6345,-0.5807,-0.4467,-0.3145,-0.2644,-0.2945,-0.3517,-0.4254,-0.4671,-0.487,-0.4718,-0.4593,-0.4491,-0.4491,-0.4491,-0.4763,-0.5523,-0.5905,-0.6362,-0.7101,-0.7208,-0.688,-0.6091,-0.5343,-0.4596,-0.3887,-0.3773,-0.3746,-0.38,-0.38,-0.386,-0.3984,-0.3987,-0.3624,-0.2871,-0.2482,-0.2454,-0.2788,-0.298,-0.3706,-0.4894,-0.5084,-0.5266,-0.5395,-0.5395,-0.5395,-0.5395,-0.5395,-0.5395,-0.5395,-0.5395,-0.5395,-0.5395,-0.5395,-0.5395,-0.5395,-1.554,-1.5486,-1.5092,-1.383,-1.3584,-1.3199,-1.2091,-1.1896,-1.2382,-1.3728,-1.3926,-1.4411,-1.5683,-1.5611,-1.5464,-1.5464,-1.5197,-1.4883,-1.4543,-1.4482,-1.4342,-1.4095,-1.4088,-1.4088,-1.4088,-1.4088,-1.3968,-1.3666,-1.3666,-1.352,-1.3273,-1.3273,-1.3113,-1.2857,-1.2857,-1.2717,-1.2438,-1.2438,-1.2337,-1.2142,-1.2142,-1.1509,-1.0565,-1.0409,-0.9286,-0.7783,-0.7633,-0.7022,-0.63,-0.63,-0.63,-0.63,-0.63,-0.63,-0.63,-0.63,-0.63,-0.6272,-0.6101,-0.5993,-0.5668,-0.4485,-0.4099,-0.4015,-0.4015,-0.4015,-0.4221,-0.4996,-0.5019,-0.4874,-0.4755,-0.4627,-0.4515,-0.4494,-0.4491,-0.4546,-0.4625,-0.5136,-0.5814,-0.6664,-0.6777,-0.6723,-0.6615,-0.5923,-0.4906,-0.3483,-0.3873,-0.3846,-0.3176,-0.3121,-0.3121,-0.3065,-0.3151,-0.2843,-0.2035,-0.1312,-0.1369,-0.2202,-0.2242,-0.3153,-0.4887,-0.4901,-0.5087,-0.5361,-0.5385,-0.5395,-0.5395,-0.5395,-0.5395,-0.5395,-0.5395,-0.5395,-0.5395,-0.5395,-0.5395,-0.5395,-1.4411,-1.4166,-1.3782,-1.2431,-1.2188,-1.2139,-1.1945,-1.1896,-1.2382,-1.3728,-1.3926,-1.4411,-1.5683,-1.5744,-1.5758,-1.5758,-1.5498,-1.5097,-1.4556,-1.4289,-1.4135,-1.4088,-1.4088,-1.4088,-1.4088,-1.4088,-1.4062,-1.4015,-1.4015,-1.3868,-1.3533,-1.3533,-1.338,-1.314,-1.314,-1.3113,-1.3066,-1.3066,-1.2408,-1.1366,-1.1366,-1.0614,-0.9448,-0.8575,-0.8084,-0.7706,-0.6834,-0.6412,-0.63,-0.63,-0.63,-0.63,-0.63,-0.63,-0.63,-0.63,-0.63,-0.6293,-0.6269,-0.6034,-0.5578,-0.4464,-0.4099,-0.4015,-0.4015,-0.4015,-0.4245,-0.5163,-0.5203,-0.5022,-0.4881,-0.4758,-0.4641,-0.4511,-0.4491,-0.4704,-0.5273,-0.5433,-0.6005,-0.7369,-0.7536,-0.7289,-0.6669,-0.5932,-0.4887,-0.3425,-0.2843,-0.2508,-0.2369,-0.2369,-0.2091,-0.148,-0.2063,-0.2037,-0.1284,-0.0532,-0.0866,-0.2204,-0.2382,-0.3246,-0.4735,-0.4955,-0.5093,-0.514,-0.5337,-0.5395,-0.5395,-0.5395,-0.5395,-0.5395,-0.5395,-0.5395,-0.5395,-0.5395,-0.5395,-0.5395,-1.306,-1.3199,-1.2958,-1.1165,-1.1068,-1.0872,-0.9948,-1.0386,-1.1361,-1.2668,-1.344,-1.4411,-1.5683,-1.5784,-1.5784,-1.5784,-1.5424,-1.505,-1.4776,-1.4482,-1.4249,-1.4095,-1.4088,-1.4088,-1.4088,-1.4088,-1.4088,-1.4088,-1.4088,-1.4015,-1.3881,-1.3881,-1.3728,-1.3407,-1.3407,-1.336,-1.3167,-1.2552,-1.1949,-1.1315,-1.0637,-0.9696,-0.8655,-0.8117,-0.7579,-0.7023,-0.6479,-0.63,-0.63,-0.63,-0.63,-0.63,-0.63,-0.63,-0.63,-0.63,-0.63,-0.63,-0.63,-0.6074,-0.5675,-0.5181,-0.4906,-0.4755,-0.4755,-0.4755,-0.4888,-0.5329,-0.524,-0.5079,-0.5012,-0.4847,-0.4694,-0.4707,-0.4597,-0.4626,-0.5016,-0.5306,-0.5896,-0.6993,-0.7101,-0.6966,-0.6642,-0.5575,-0.4286,-0.2813,-0.2397,-0.2037,-0.1619,-0.1619,-0.1452,-0.1118,-0.1034,-0.0838,-0.0504,-0.056,-0.1146,-0.2202,-0.2719,-0.36,-0.4697,-0.483,-0.4951,-0.5103,-0.5206,-0.5284,-0.5395,-0.5395,-0.5395,-0.5395,-0.5395,-0.5395,-0.5395,-0.5395,-0.5395,-0.5395,-1.1702,-1.1989,-1.1843,-0.9899,-0.9797,-0.9649,-0.8627,-0.9365,-1.0583,-1.2139,-1.3247,-1.4411,-1.5683,-1.5784,-1.5784,-1.5784,-1.5297,-1.5008,-1.5008,-1.4623,-1.4322,-1.4095,-1.4088,-1.4088,-1.4088,-1.4088,-1.4088,-1.4088,-1.4088,-1.4088,-1.4088,-1.4088,-1.3968,-1.3706,-1.3706,-1.3451,-1.2951,-1.2077,-1.134,-1.0757,-0.9825,-0.8814,-0.7827,-0.7729,-0.7217,-0.6497,-0.6388,-0.6327,-0.63,-0.63,-0.63,-0.63,-0.63,-0.63,-0.63,-0.63,-0.63,-0.63,-0.63,-0.6064,-0.5844,-0.581,-0.5606,-0.544,-0.5402,-0.5395,-0.5395,-0.5395,-0.5267,-0.514,-0.5106,-0.4945,-0.4809,-0.4857,-0.467,-0.4573,-0.4655,-0.5003,-0.5542,-0.6258,-0.634,-0.634,-0.634,-0.5171,-0.3795,-0.2313,-0.2035,-0.1619,-0.0895,-0.0838,-0.0838,-0.0838,-0.0308,0.0,0.0,-0.056,-0.1312,-0.2202,-0.2815,-0.3559,-0.4378,-0.441,-0.4544,-0.4746,-0.459,-0.4731,-0.5026,-0.5026,-0.5045,-0.5107,-0.5275,-0.5361,-0.5395,-0.5395,-0.5395,-0.5395,-1.0391,-1.0194,-0.9801,-0.8382,-0.8184,-0.8581,-0.9706,-0.9953,-1.0921,-1.344,-1.383,-1.4411,-1.5683,-1.5784,-1.5784,-1.5784,-1.5297,-1.5008,-1.5008,-1.4436,-1.4108,-1.4088,-1.4088,-1.4088,-1.4088,-1.4088,-1.4088,-1.4088,-1.4088,-1.4088,-1.4088,-1.4088,-1.4075,-1.4055,-1.4055,-1.3425,-1.2354,-1.2269,-1.0948,-0.8881,-0.8797,-0.7987,-0.6823,-0.6809,-0.6678,-0.6511,-0.6501,-0.6412,-0.63,-0.63,-0.63,-0.63,-0.63,-0.63,-0.63,-0.63,-0.63,-0.63,-0.63,-0.6139,-0.5942,-0.5837,-0.5688,-0.5569,-0.5426,-0.5395,-0.5395,-0.5395,-0.5385,-0.5334,-0.5123,-0.5079,-0.4982,-0.4752,-0.4687,-0.4655,-0.4525,-0.4553,-0.4814,-0.5487,-0.5569,-0.5569,-0.5569,-0.4871,-0.3795,-0.2313,-0.1563,-0.0866,-0.0112,-0.0084,-0.0084,-0.0084,-0.0028,0.0,0.0,-0.0056,-0.0783,-0.2202,-0.2258,-0.2679,-0.3416,-0.3582,-0.3701,-0.3666,-0.3106,-0.3272,-0.393,-0.393,-0.3992,-0.4179,-0.4858,-0.5237,-0.5395,-0.5395,-0.5395,-0.5395,-0.9019,-0.8775,-0.8577,-0.8088,-0.7988,-0.8432,-0.9801,-1.0681,-1.1843,-1.368,-1.4609,-1.4949,-1.4657,-1.4609,-1.4268,-1.3451,-1.36,-1.3828,-1.3995,-1.4222,-1.4275,-1.4095,-1.4088,-1.4088,-1.4088,-1.4088,-1.4088,-1.4088,-1.4088,-1.4088,-1.4088,-1.4088,-1.4088,-1.4088,-1.3336,-1.2717,-1.22,-1.0778,-0.9664,-0.8741,-0.8005,-0.7407,-0.692,-0.6875,-0.6807,-0.6742,-0.6647,-0.6559,-0.6429,-0.6429,-0.6371,-0.63,-0.63,-0.63,-0.63,-0.63,-0.63,-0.63,-0.63,-0.6146,-0.5956,-0.584,-0.5694,-0.5549,-0.5429,-0.5395,-0.5395,-0.5395,-0.5395,-0.5378,-0.5284,-0.5196,-0.5093,-0.5139,-0.4952,-0.4843,-0.487,-0.5118,-0.5414,-0.5663,-0.5586,-0.532,-0.4871,-0.3743,-0.2615,-0.1591,-0.0838,-0.0308,-0.0028,0.0,0.0,0.0,0.0,0.0,0.0,-0.0448,-0.095,-0.1535,-0.1981,-0.2343,-0.2621,-0.2683,-0.2789,-0.2903,-0.2672,-0.2776,-0.312,-0.3127,-0.316,-0.322,-0.3517,-0.3981,-0.4519,-0.4519,-0.4891,-0.5395,-0.8184,-0.7988,-0.7988,-0.7988,-0.7988,-0.8577,-1.0337,-1.1365,-1.2528,-1.4268,-1.4902,-1.4848,-1.4022,-1.3536,-1.2909,-1.1994,-1.2631,-1.3205,-1.338,-1.411,-1.4429,-1.4229,-1.4135,-1.4088,-1.4088,-1.4088,-1.4088,-1.4088,-1.4088,-1.4088,-1.4088,-1.4088,-1.4088,-1.4039,-1.2851,-1.2114,-1.1638,-0.971,-0.8671,-0.8277,-0.7448,-0.7095,-0.7085,-0.6991,-0.6923,-0.6826,-0.6382,-0.6338,-0.6502,-0.6134,-0.6165,-0.6368,-0.6368,-0.6334,-0.63,-0.63,-0.63,-0.63,-0.63,-0.6183,-0.6064,-0.5911,-0.5766,-0.5616,-0.5501,-0.5429,-0.5395,-0.5395,-0.5395,-0.5395,-0.5395,-0.5274,-0.522,-0.5281,-0.5118,-0.4972,-0.5026,-0.5306,-0.5514,-0.5514,-0.5356,-0.5048,-0.4539,-0.3107,-0.1981,-0.148,-0.056,0.0,0.0,0.0,0.0,0.0,0.0,0.0,0.0,-0.0504,-0.0867,-0.1118,-0.1619,-0.1842,-0.1842,-0.1842,-0.1922,-0.2051,-0.182,-0.1895,-0.2211,-0.2198,-0.2228,-0.2278,-0.2552,-0.3043,-0.358,-0.358,-0.4184,-0.4921,-0.7988,-0.7988,-0.7988,-0.7988,-0.7988,-0.8871,-1.1507,-1.1896,-1.2818,-1.5445,-1.4704,-1.3926,-1.3872,-1.2668,-1.1896,-1.1853,-1.278,-1.3391,-1.3391,-1.411,-1.4479,-1.4479,-1.4242,-1.4088,-1.4088,-1.4088,-1.4088,-1.4088,-1.4088,-1.4088,-1.4088,-1.4088,-1.4088,-1.4039,-1.2808,-1.1638,-1.0524,-0.9362,-0.8193,-0.7095,-0.7095,-0.7095,-0.7095,-0.7095,-0.7011,-0.6711,-0.5534,-0.5757,-0.6491,-0.5321,-0.5609,-0.6511,-0.6511,-0.6412,-0.63,-0.63,-0.63,-0.63,-0.63,-0.63,-0.6262,-0.6067,-0.5915,-0.5766,-0.5623,-0.5504,-0.5395,-0.5395,-0.5395,-0.5395,-0.5395,-0.5395,-0.5344,-0.5127,-0.51,-0.5052,-0.4911,-0.4891,-0.4891,-0.4891,-0.4785,-0.4694,-0.4691,-0.3187,-0.2204,-0.2204,-0.0839,0.0,0.0,0.0,0.0,0.0,0.0,0.0,0.0,0.0,-0.0364,-0.109,-0.109,-0.109,-0.109,-0.109,-0.109,-0.1062,-0.0308,-0.042,-0.109,-0.109,-0.1163,-0.1355,-0.2184,-0.258,-0.2678,-0.2678,-0.3245,-0.3882,-0.7988,-0.7988,-0.7988,-0.7988,-0.7988,-0.8871,-1.1507,-1.1896,-1.2818,-1.5445,-1.4704,-1.3536,-1.2624,-1.1361,-1.0194,-0.9262,-1.0062,-1.1465,-1.3298,-1.4294,-1.483,-1.483,-1.4355,-1.4088,-1.4088,-1.4088,-1.4088,-1.4088,-1.4088,-1.4088,-1.4088,-1.4088,-1.4088,-1.3997,-1.1992,-1.0913,-1.0481,-0.8492,-0.7448,-0.7095,-0.7095,-0.7095,-0.7007,-0.6204,-0.5871,-0.5706,-0.4465,-0.4708,-0.5522,-0.5182,-0.5679,-0.6494,-0.6395,-0.6334,-0.63,-0.63,-0.63,-0.63,-0.63,-0.63,-0.6262,-0.6067,-0.5915,-0.5766,-0.5623,-0.5504,-0.5395,-0.5395,-0.5395,-0.5395,-0.5395,-0.5395,-0.5378,-0.533,-0.5324,-0.531,-0.5269,-0.5135,-0.5036,-0.5036,-0.4908,-0.4637,-0.4122,-0.3064,-0.2181,-0.1615,-0.0587,0.0,0.0,0.0,0.0,0.0,0.0,0.0,0.0,0.0,-0.0112,-0.0336,-0.0336,-0.0336,-0.0336,-0.0336,-0.0336,-0.0308,-0.0084,-0.0114,-0.0318,-0.0339,-0.0354,-0.0413,-0.0653,-0.1149,-0.1708,-0.1708,-0.231,-0.3045,-0.7988,-0.7988,-0.7988,-0.7988,-0.7988,-0.8726,-1.0828,-1.117,-1.1896,-1.398,-1.3156,-1.2037,-1.1214,-0.9998,-0.8874,-0.8088,-0.9506,-1.1273,-1.3257,-1.4416,-1.4955,-1.4796,-1.4335,-1.4088,-1.4088,-1.4088,-1.4088,-1.4088,-1.4088,-1.4088,-1.4088,-1.4088,-1.3864,-1.3294,-1.1429,-1.0351,-0.9792,-0.7925,-0.7095,-0.7095,-0.7095,-0.6827,-0.634,-0.5669,-0.509,-0.4508,-0.3304,-0.3896,-0.5167,-0.4683,-0.5442,-0.6536,-0.6429,-0.6344,-0.63,-0.63,-0.63,-0.63,-0.63,-0.63,-0.616,-0.5641,-0.5703,-0.5854,-0.5705,-0.5559,-0.547,-0.5405,-0.509,-0.4957,-0.5326,-0.509,-0.4957,-0.5326,-0.5395,-0.5395,-0.5395,-0.5281,-0.522,-0.522,-0.5091,-0.4659,-0.3874,-0.3001,-0.2029,-0.0862,-0.0303,0.0,0.0,0.0,0.0,0.0,0.0,0.0,0.0,0.0,0.0,0.0,0.0,0.0,0.0,0.0,0.0,0.0,0.0,0.0,0.0,0.0,0.0,0.0,0.0,-0.0318,-0.0793,-0.0769,-0.1374,-0.211,-0.7988,-0.7988,-0.7988,-0.7988,-0.7988,-0.8432,-0.9801,-0.9998,-1.0435,-1.175,-1.0779,-0.9998,-0.9998,-0.8825,-0.7988,-0.7988,-1.0288,-1.2149,-1.3204,-1.4247,-1.4747,-1.4569,-1.4255,-1.4088,-1.4088,-1.4088,-1.4088,-1.4088,-1.4088,-1.4088,-1.4088,-1.3997,-1.3336,-1.2242,-1.0994,-0.9879,-0.8803,-0.7621,-0.7095,-0.7095,-0.7095,-0.6428,-0.5403,-0.527,-0.4508,-0.326,-0.2057,-0.3172,-0.5087,-0.4186,-0.516,-0.6692,-0.6643,-0.6501,-0.6317,-0.6416,-0.6377,-0.63,-0.63,-0.63,-0.606,-0.5079,-0.5378,-0.5858,-0.5709,-0.5557,-0.5446,-0.541,-0.4661,-0.4251,-0.5123,-0.4586,-0.4284,-0.5126,-0.5359,-0.5395,-0.5395,-0.5395,-0.5395,-0.5395,-0.5168,-0.4699,-0.3892,-0.2955,-0.1735,-0.0124,0.0,0.0,0.0,0.0,0.0,0.0,0.0,0.0,0.0,0.0,0.0,0.0,0.0,0.0,0.0,0.0,0.0,0.0,0.0,0.0,0.0,0.0,0.0,0.0,0.0,0.0,0.0,0.0,-0.0503,-0.1074,-0.7988,-0.7988,-0.7988,-0.7988,-0.7988,-0.8432,-0.9801,-0.9998,-1.0435,-1.175,-1.0779,-0.9998,-0.9998,-0.8825,-0.7988,-0.7988,-0.946,-1.0956,-1.2164,-1.2991,-1.3871,-1.487,-1.4369,-1.4088,-1.4088,-1.4088,-1.4088,-1.4088,-1.4088,-1.4088,-1.4088,-1.3118,-1.2547,-1.22,-1.0178,-0.9148,-0.8803,-0.7621,-0.7095,-0.7095,-0.7095,-0.6428,-0.5314,-0.433,-0.326,-0.2013,-0.0807,-0.1924,-0.4229,-0.5695,-0.6497,-0.6957,-0.7515,-0.7117,-0.6598,-0.7289,-0.6911,-0.63,-0.63,-0.63,-0.6261,-0.6022,-0.5449,-0.4928,-0.4806,-0.4544,-0.4562,-0.5374,-0.4726,-0.4048,-0.4251,-0.4148,-0.4082,-0.4284,-0.4921,-0.5395,-0.5395,-0.5395,-0.5395,-0.5395,-0.4728,-0.4177,-0.398,-0.2507,-0.1109,-0.0064,0.0,0.0,0.0,0.0,0.0,0.0,0.0,0.0,0.0,0.0,0.0,0.0,0.0,0.0,0.0,0.0,0.0,0.0,0.0,0.0,0.0,0.0,0.0,0.0,0.0,0.0,0.0,0.0,-0.0132,-0.0269,-0.7988,-0.7988,-0.7988,-0.7988,-0.7988,-0.8233,-0.8924,-0.9069,-0.9266,-0.9948,-0.946,-0.9069,-0.9069,-0.8432,-0.7988,-0.7988,-0.9801,-1.1123,-1.1692,-1.3101,-1.4206,-1.4756,-1.4322,-1.4088,-1.4088,-1.4088,-1.4088,-1.4088,-1.3512,-1.3245,-1.3209,-1.2035,-1.1209,-1.0611,-0.9449,-0.8584,-0.8017,-0.736,-0.7095,-0.7095,-0.7095,-0.6068,-0.4463,-0.3838,-0.2503,-0.0852,-0.0225,-0.1567,-0.3964,-0.6215,-0.7321,-0.7824,-0.8214,-0.8193,-0.8032,-0.7978,-0.7545,-0.6911,-0.6416,-0.63,-0.618,-0.567,-0.4727,-0.4151,-0.5035,-0.4722,-0.4385,-0.4842,-0.414,-0.3468,-0.3387,-0.3011,-0.2845,-0.3311,-0.4148,-0.4722,-0.4722,-0.5123,-0.5395,-0.5395,-0.4586,-0.3647,-0.2811,-0.1476,-0.0501,-0.0033,0.0,0.0,0.0,0.0,0.0,0.0,0.0,0.0,0.0,0.0,0.0,0.0,0.0,0.0,0.0,0.0,0.0,0.0,0.0,0.0,0.0,0.0,0.0,0.0,0.0,0.0,0.0,0.0,0.0,0.0,-0.7988,-0.7988,-0.7988,-0.7988,-0.7988,-0.7988,-0.7988,-0.7988,-0.7988,-0.7988,-0.7988,-0.7988,-0.7988,-0.7988,-0.7988,-0.7988,-1.019,-1.1574,-1.1572,-1.3515,-1.462,-1.4609,-1.4269,-1.4088,-1.4088,-1.3906,-1.3779,-1.3779,-1.2808,-1.22,-1.198,-1.0826,-0.9792,-0.889,-0.8671,-0.8013,-0.7095,-0.7095,-0.7095,-0.7095,-0.7095,-0.5708,-0.3614,-0.3614,-0.2102,0.0,0.0,-0.1567,-0.3926,-0.6065,-0.7657,-0.8777,-0.8912,-0.9338,-0.9642,-0.8744,-0.8182,-0.7632,-0.6574,-0.63,-0.6103,-0.5198,-0.4021,-0.3573,-0.5368,-0.4833,-0.3943,-0.3961,-0.3266,-0.2598,-0.2472,-0.1814,-0.1541,-0.2344,-0.3311,-0.4015,-0.4015,-0.4821,-0.5395,-0.5395,-0.4453,-0.3078,-0.124,-0.0437,0.0,0.0,0.0,0.0,0.0,0.0,0.0,0.0,0.0,0.0,0.0,0.0,0.0,0.0,0.0,0.0,0.0,0.0,0.0,0.0,0.0,0.0,0.0,0.0,0.0,0.0,0.0,0.0,0.0,0.0,0.0,0.0,-0.7988,-0.7988,-0.7988,-0.7988,-0.7988,-0.7988,-0.7988,-0.7988,-0.7988,-0.7988,-0.7988,-0.7988,-0.7988,-0.7988,-0.7988,-0.7988,-0.9361,-1.0716,-1.1754,-1.2724,-1.3781,-1.4859,-1.4382,-1.4088,-1.4088,-1.3075,-1.2547,-1.2547,-1.237,-1.1809,-1.0826,-0.9666,-0.9065,-0.8846,-0.7797,-0.7272,-0.7095,-0.7095,-0.7095,-0.7095,-0.7095,-0.5708,-0.3614,-0.3614,-0.2102,0.0,0.0,-0.1567,-0.3794,-0.5179,-0.7068,-0.8996,-0.9752,-1.0153,-1.0192,-0.9657,-0.886,-0.7868,-0.6641,-0.63,-0.6261,-0.6103,-0.4569,-0.3394,-0.4588,-0.3251,-0.1995,-0.2879,-0.2235,-0.15,-0.1494,-0.1396,-0.134,-0.1474,-0.2911,-0.4015,-0.4015,-0.4821,-0.5395,-0.5395,-0.3915,-0.2178,-0.0337,-0.0067,0.0,0.0,0.0,0.0,0.0,0.0,0.0,0.0,0.0,0.0,0.0,0.0,0.0,0.0,0.0,0.0,0.0,0.0,0.0,0.0,0.0,0.0,0.0,0.0,0.0,0.0,0.0,0.0,0.0,0.0,0.0,0.0,-0.7988,-0.7988,-0.7988,-0.7988,-0.7988,-0.7988,-0.7988,-0.7988,-0.7988,-0.7988,-0.7988,-0.7988,-0.7988,-0.7988,-0.7988,-0.7988,-0.9176,-1.0412,-1.1609,-1.2437,-1.3432,-1.4672,-1.4315,-1.4088,-1.4088,-1.2942,-1.198,-1.1338,-1.0697,-1.0135,-0.9623,-0.8448,-0.7885,-0.7885,-0.736,-0.7095,-0.7095,-0.7095,-0.7095,-0.7095,-0.7095,-0.6113,-0.4552,-0.3838,-0.2503,-0.0986,-0.0986,-0.2102,-0.3792,-0.4999,-0.7379,-0.9908,-1.0285,-1.1226,-1.1881,-1.0426,-0.9147,-0.7785,-0.5928,-0.496,-0.453,-0.453,-0.3361,-0.2386,-0.2854,-0.1708,-0.0884,-0.1969,-0.1781,-0.1267,-0.0669,-0.059,-0.0582,-0.0573,-0.1642,-0.2678,-0.3211,-0.3647,-0.3682,-0.3178,-0.241,-0.1409,-0.0135,0.0,0.0,0.0,0.0,-0.0202,-0.0706,-0.0266,-0.0228,-0.0696,-0.025,0.0,0.0,0.0,0.0,0.0,0.0,0.0,0.0,0.0,0.0,0.0,0.0,0.0,0.0,0.0,0.0,0.0,0.0,0.0,0.0,0.0,0.0,0.0]}]]